<?xml version="1.0" encoding="UTF-8" standalone="no" ?>
<gpx xmlns="http://www.topografix.com/GPX/1/1" xmlns:xsi="http://www.w3.org/2001/XMLSchema-instance" xsi:schemaLocation="http://www.topografix.com/GPX/1/1 http://www.topografix.com/GPX/1/1/gpx.xsd" version="1.1" creator="VisuGPX - https://www.visugpx.com">
  <metadata>
    <name>Bourbonnais 120km</name>
    <desc><![CDATA[beau tour dans le bourbonnais direction Mayet de montagne retour sur Busset -Riis ]]></desc>
  </metadata>
  <trk>
    <name><![CDATA[Bourbonnais 120km]]></name>
    <trkseg>
      <trkpt lat="45.86071" lon="3.29216">
        <ele>319.56341552734</ele>
        <time>2020-06-23T12:11:04.000Z</time>
      </trkpt>
      <trkpt lat="45.86078" lon="3.2922">
        <ele>319.52420043945</ele>
        <time>2020-06-23T12:11:04.001Z</time>
      </trkpt>
      <trkpt lat="45.86078" lon="3.29252">
        <ele>319.13912963867</ele>
        <time>2020-06-23T12:11:04.006Z</time>
      </trkpt>
      <trkpt lat="45.86158" lon="3.2934">
        <ele>317.63122558594</ele>
        <time>2020-06-23T12:11:04.027Z</time>
      </trkpt>
      <trkpt lat="45.86245" lon="3.29445">
        <ele>316.7333984375</ele>
        <time>2020-06-23T12:11:04.066Z</time>
      </trkpt>
      <trkpt lat="45.86293" lon="3.29495">
        <ele>316.15957641602</ele>
        <time>2020-06-23T12:11:04.115Z</time>
      </trkpt>
      <trkpt lat="45.86338" lon="3.29539">
        <ele>315.3073425293</ele>
        <time>2020-06-23T12:11:04.172Z</time>
      </trkpt>
      <trkpt lat="45.86385" lon="3.29591">
        <ele>314.11273193359</ele>
        <time>2020-06-23T12:11:04.239Z</time>
      </trkpt>
      <trkpt lat="45.86438" lon="3.29639">
        <ele>314</ele>
        <time>2020-06-23T12:11:04.316Z</time>
      </trkpt>
      <trkpt lat="45.86531" lon="3.2974">
        <ele>314.69537353516</ele>
        <time>2020-06-23T12:11:04.412Z</time>
      </trkpt>
      <trkpt lat="45.86619" lon="3.29831">
        <ele>314.19424438477</ele>
        <time>2020-06-23T12:11:04.525Z</time>
      </trkpt>
      <trkpt lat="45.86638" lon="3.29848">
        <ele>314</ele>
        <time>2020-06-23T12:11:04.641Z</time>
      </trkpt>
      <trkpt lat="45.86639" lon="3.29867">
        <ele>314</ele>
        <time>2020-06-23T12:11:04.760Z</time>
      </trkpt>
      <trkpt lat="45.86619" lon="3.29927">
        <ele>314.21536254883</ele>
        <time>2020-06-23T12:11:04.886Z</time>
      </trkpt>
      <trkpt lat="45.86603" lon="3.29984">
        <ele>314.53909301758</ele>
        <time>2020-06-23T12:11:05.019Z</time>
      </trkpt>
      <trkpt lat="45.86597" lon="3.30011">
        <ele>314.99716186523</ele>
        <time>2020-06-23T12:11:05.155Z</time>
      </trkpt>
      <trkpt lat="45.86578" lon="3.30116">
        <ele>313.96795654297</ele>
        <time>2020-06-23T12:11:05.303Z</time>
      </trkpt>
      <trkpt lat="45.86562" lon="3.30221">
        <ele>315.92608642578</ele>
        <time>2020-06-23T12:11:05.463Z</time>
      </trkpt>
      <trkpt lat="45.8655" lon="3.30263">
        <ele>316.00360107422</ele>
        <time>2020-06-23T12:11:05.628Z</time>
      </trkpt>
      <trkpt lat="45.86546" lon="3.30272">
        <ele>315.58163452148</ele>
        <time>2020-06-23T12:11:05.795Z</time>
      </trkpt>
      <trkpt lat="45.86542" lon="3.30274">
        <ele>315.50039672852</ele>
        <time>2020-06-23T12:11:05.962Z</time>
      </trkpt>
      <trkpt lat="45.86491" lon="3.30265">
        <ele>315.91793823242</ele>
        <time>2020-06-23T12:11:06.137Z</time>
      </trkpt>
      <trkpt lat="45.86405" lon="3.30237">
        <ele>315.50527954102</ele>
        <time>2020-06-23T12:11:06.327Z</time>
      </trkpt>
      <trkpt lat="45.86372" lon="3.30216">
        <ele>315.36038208008</ele>
        <time>2020-06-23T12:11:06.522Z</time>
      </trkpt>
      <trkpt lat="45.86342" lon="3.302">
        <ele>315.18588256836</ele>
        <time>2020-06-23T12:11:06.722Z</time>
      </trkpt>
      <trkpt lat="45.8634" lon="3.30198">
        <ele>315.19314575195</ele>
        <time>2020-06-23T12:11:06.923Z</time>
      </trkpt>
      <trkpt lat="45.86345" lon="3.30197">
        <ele>315.26342773438</ele>
        <time>2020-06-23T12:11:07.125Z</time>
      </trkpt>
      <trkpt lat="45.86357" lon="3.30211">
        <ele>315.23657226562</ele>
        <time>2020-06-23T12:11:07.329Z</time>
      </trkpt>
      <trkpt lat="45.86386" lon="3.30233">
        <ele>315.32989501953</ele>
        <time>2020-06-23T12:11:07.538Z</time>
      </trkpt>
      <trkpt lat="45.86407" lon="3.30243">
        <ele>315.45489501953</ele>
        <time>2020-06-23T12:11:07.751Z</time>
      </trkpt>
      <trkpt lat="45.86489" lon="3.30271">
        <ele>315.64196777344</ele>
        <time>2020-06-23T12:11:07.977Z</time>
      </trkpt>
      <trkpt lat="45.86533" lon="3.30278">
        <ele>315.31372070312</ele>
        <time>2020-06-23T12:11:08.211Z</time>
      </trkpt>
      <trkpt lat="45.86632" lon="3.30275">
        <ele>314.82559204102</ele>
        <time>2020-06-23T12:11:08.460Z</time>
      </trkpt>
      <trkpt lat="45.86816" lon="3.30287">
        <ele>313.82772827148</ele>
        <time>2020-06-23T12:11:08.739Z</time>
      </trkpt>
      <trkpt lat="45.86854" lon="3.30283">
        <ele>313.65658569336</ele>
        <time>2020-06-23T12:11:09.024Z</time>
      </trkpt>
      <trkpt lat="45.86959" lon="3.30266">
        <ele>312.22653198242</ele>
        <time>2020-06-23T12:11:09.326Z</time>
      </trkpt>
      <trkpt lat="45.87014" lon="3.30266">
        <ele>313.47604370117</ele>
        <time>2020-06-23T12:11:09.637Z</time>
      </trkpt>
      <trkpt lat="45.87034" lon="3.30272">
        <ele>314.19470214844</ele>
        <time>2020-06-23T12:11:09.951Z</time>
      </trkpt>
      <trkpt lat="45.87047" lon="3.30279">
        <ele>314.6535949707</ele>
        <time>2020-06-23T12:11:10.267Z</time>
      </trkpt>
      <trkpt lat="45.87086" lon="3.30313">
        <ele>314.28903198242</ele>
        <time>2020-06-23T12:11:10.590Z</time>
      </trkpt>
      <trkpt lat="45.87288" lon="3.30532">
        <ele>316.33950805664</ele>
        <time>2020-06-23T12:11:10.954Z</time>
      </trkpt>
      <trkpt lat="45.87309" lon="3.30557">
        <ele>316.37530517578</ele>
        <time>2020-06-23T12:11:11.322Z</time>
      </trkpt>
      <trkpt lat="45.87375" lon="3.30646">
        <ele>313.53552246094</ele>
        <time>2020-06-23T12:11:11.705Z</time>
      </trkpt>
      <trkpt lat="45.87411" lon="3.30691">
        <ele>312.87112426758</ele>
        <time>2020-06-23T12:11:12.096Z</time>
      </trkpt>
      <trkpt lat="45.87457" lon="3.30736">
        <ele>312.86096191406</ele>
        <time>2020-06-23T12:11:12.495Z</time>
      </trkpt>
      <trkpt lat="45.87481" lon="3.30756">
        <ele>312.70175170898</ele>
        <time>2020-06-23T12:11:12.899Z</time>
      </trkpt>
      <trkpt lat="45.87517" lon="3.30788">
        <ele>311.64031982422</ele>
        <time>2020-06-23T12:11:13.310Z</time>
      </trkpt>
      <trkpt lat="45.87572" lon="3.30853">
        <ele>310.18408203125</ele>
        <time>2020-06-23T12:11:13.732Z</time>
      </trkpt>
      <trkpt lat="45.87614" lon="3.30907">
        <ele>310.72589111328</ele>
        <time>2020-06-23T12:11:14.163Z</time>
      </trkpt>
      <trkpt lat="45.87644" lon="3.30951">
        <ele>310.84646606445</ele>
        <time>2020-06-23T12:11:14.601Z</time>
      </trkpt>
      <trkpt lat="45.87672" lon="3.30985">
        <ele>311.10400390625</ele>
        <time>2020-06-23T12:11:15.045Z</time>
      </trkpt>
      <trkpt lat="45.87811" lon="3.31135">
        <ele>309.89895629883</ele>
        <time>2020-06-23T12:11:15.517Z</time>
      </trkpt>
      <trkpt lat="45.87859" lon="3.31183">
        <ele>308.78482055664</ele>
        <time>2020-06-23T12:11:15.998Z</time>
      </trkpt>
      <trkpt lat="45.8793" lon="3.31238">
        <ele>308.69241333008</ele>
        <time>2020-06-23T12:11:16.492Z</time>
      </trkpt>
      <trkpt lat="45.87979" lon="3.31286">
        <ele>309.19625854492</ele>
        <time>2020-06-23T12:11:16.996Z</time>
      </trkpt>
      <trkpt lat="45.88013" lon="3.31326">
        <ele>309.27410888672</ele>
        <time>2020-06-23T12:11:17.507Z</time>
      </trkpt>
      <trkpt lat="45.88049" lon="3.31363">
        <ele>308.88916015625</ele>
        <time>2020-06-23T12:11:18.025Z</time>
      </trkpt>
      <trkpt lat="45.88111" lon="3.31406">
        <ele>308.94253540039</ele>
        <time>2020-06-23T12:11:18.554Z</time>
      </trkpt>
      <trkpt lat="45.88158" lon="3.31441">
        <ele>308.8720703125</ele>
        <time>2020-06-23T12:11:19.091Z</time>
      </trkpt>
      <trkpt lat="45.8817" lon="3.31453">
        <ele>308.73178100586</ele>
        <time>2020-06-23T12:11:19.631Z</time>
      </trkpt>
      <trkpt lat="45.88209" lon="3.31501">
        <ele>308.15686035156</ele>
        <time>2020-06-23T12:11:20.179Z</time>
      </trkpt>
      <trkpt lat="45.88253" lon="3.3157">
        <ele>309.03271484375</ele>
        <time>2020-06-23T12:11:20.737Z</time>
      </trkpt>
      <trkpt lat="45.88295" lon="3.31628">
        <ele>309.85940551758</ele>
        <time>2020-06-23T12:11:21.305Z</time>
      </trkpt>
      <trkpt lat="45.88449" lon="3.31828">
        <ele>307.51104736328</ele>
        <time>2020-06-23T12:11:21.906Z</time>
      </trkpt>
      <trkpt lat="45.88478" lon="3.31865">
        <ele>307</ele>
        <time>2020-06-23T12:11:22.513Z</time>
      </trkpt>
      <trkpt lat="45.88521" lon="3.31914">
        <ele>307</ele>
        <time>2020-06-23T12:11:23.129Z</time>
      </trkpt>
      <trkpt lat="45.88606" lon="3.32003">
        <ele>306.40655517578</ele>
        <time>2020-06-23T12:11:23.762Z</time>
      </trkpt>
      <trkpt lat="45.88656" lon="3.3205">
        <ele>306.05154418945</ele>
        <time>2020-06-23T12:11:24.404Z</time>
      </trkpt>
      <trkpt lat="45.88764" lon="3.32145">
        <ele>304.50686645508</ele>
        <time>2020-06-23T12:11:25.067Z</time>
      </trkpt>
      <trkpt lat="45.88813" lon="3.32195">
        <ele>304.33493041992</ele>
        <time>2020-06-23T12:11:25.739Z</time>
      </trkpt>
      <trkpt lat="45.88862" lon="3.32257">
        <ele>306.24649047852</ele>
        <time>2020-06-23T12:11:26.422Z</time>
      </trkpt>
      <trkpt lat="45.88893" lon="3.32287">
        <ele>307.04235839844</ele>
        <time>2020-06-23T12:11:27.111Z</time>
      </trkpt>
      <trkpt lat="45.88899" lon="3.32289">
        <ele>307.10733032227</ele>
        <time>2020-06-23T12:11:27.801Z</time>
      </trkpt>
      <trkpt lat="45.88967" lon="3.32333">
        <ele>307.83560180664</ele>
        <time>2020-06-23T12:11:28.503Z</time>
      </trkpt>
      <trkpt lat="45.89106" lon="3.3243">
        <ele>305.21328735352</ele>
        <time>2020-06-23T12:11:29.229Z</time>
      </trkpt>
      <trkpt lat="45.89159" lon="3.32461">
        <ele>304.46722412109</ele>
        <time>2020-06-23T12:11:29.965Z</time>
      </trkpt>
      <trkpt lat="45.89194" lon="3.32475">
        <ele>305.07656860352</ele>
        <time>2020-06-23T12:11:30.706Z</time>
      </trkpt>
      <trkpt lat="45.89365" lon="3.32537">
        <ele>303.30334472656</ele>
        <time>2020-06-23T12:11:31.476Z</time>
      </trkpt>
      <trkpt lat="45.89628" lon="3.32612">
        <ele>303.67602539062</ele>
        <time>2020-06-23T12:11:32.288Z</time>
      </trkpt>
      <trkpt lat="45.89693" lon="3.32626">
        <ele>304.69775390625</ele>
        <time>2020-06-23T12:11:33.111Z</time>
      </trkpt>
      <trkpt lat="45.8989" lon="3.3266">
        <ele>305.50723266602</ele>
        <time>2020-06-23T12:11:33.966Z</time>
      </trkpt>
      <trkpt lat="45.89972" lon="3.32677">
        <ele>304.94366455078</ele>
        <time>2020-06-23T12:11:34.834Z</time>
      </trkpt>
      <trkpt lat="45.90038" lon="3.32702">
        <ele>303.19403076172</ele>
        <time>2020-06-23T12:11:35.713Z</time>
      </trkpt>
      <trkpt lat="45.90095" lon="3.3273">
        <ele>302.86260986328</ele>
        <time>2020-06-23T12:11:36.602Z</time>
      </trkpt>
      <trkpt lat="45.90185" lon="3.32785">
        <ele>303.53677368164</ele>
        <time>2020-06-23T12:11:37.506Z</time>
      </trkpt>
      <trkpt lat="45.90238" lon="3.32827">
        <ele>304</ele>
        <time>2020-06-23T12:11:38.420Z</time>
      </trkpt>
      <trkpt lat="45.90333" lon="3.32931">
        <ele>302.31478881836</ele>
        <time>2020-06-23T12:11:39.353Z</time>
      </trkpt>
      <trkpt lat="45.90366" lon="3.32956">
        <ele>303.0085144043</ele>
        <time>2020-06-23T12:11:40.292Z</time>
      </trkpt>
      <trkpt lat="45.90386" lon="3.32968">
        <ele>303.40051269531</ele>
        <time>2020-06-23T12:11:41.235Z</time>
      </trkpt>
      <trkpt lat="45.90528" lon="3.33037">
        <ele>302.88562011719</ele>
        <time>2020-06-23T12:11:42.202Z</time>
      </trkpt>
      <trkpt lat="45.90557" lon="3.33046">
        <ele>302.78713989258</ele>
        <time>2020-06-23T12:11:43.173Z</time>
      </trkpt>
      <trkpt lat="45.90682" lon="3.33077">
        <ele>303.50350952148</ele>
        <time>2020-06-23T12:11:44.165Z</time>
      </trkpt>
      <trkpt lat="45.90726" lon="3.33089">
        <ele>303</ele>
        <time>2020-06-23T12:11:45.164Z</time>
      </trkpt>
      <trkpt lat="45.90871" lon="3.33137">
        <ele>301.75311279297</ele>
        <time>2020-06-23T12:11:46.187Z</time>
      </trkpt>
      <trkpt lat="45.90989" lon="3.33191">
        <ele>304.12460327148</ele>
        <time>2020-06-23T12:11:47.229Z</time>
      </trkpt>
      <trkpt lat="45.91044" lon="3.3322">
        <ele>304.47036743164</ele>
        <time>2020-06-23T12:11:48.281Z</time>
      </trkpt>
      <trkpt lat="45.9105" lon="3.33224">
        <ele>304.52627563477</ele>
        <time>2020-06-23T12:11:49.334Z</time>
      </trkpt>
      <trkpt lat="45.91091" lon="3.33266">
        <ele>304.16290283203</ele>
        <time>2020-06-23T12:11:50.395Z</time>
      </trkpt>
      <trkpt lat="45.91119" lon="3.33312">
        <ele>302.93328857422</ele>
        <time>2020-06-23T12:11:51.463Z</time>
      </trkpt>
      <trkpt lat="45.91126" lon="3.3333">
        <ele>302.54864501953</ele>
        <time>2020-06-23T12:11:52.533Z</time>
      </trkpt>
      <trkpt lat="45.91134" lon="3.33358">
        <ele>301.94451904297</ele>
        <time>2020-06-23T12:11:53.606Z</time>
      </trkpt>
      <trkpt lat="45.91144" lon="3.33373">
        <ele>301.78994750977</ele>
        <time>2020-06-23T12:11:54.682Z</time>
      </trkpt>
      <trkpt lat="45.91166" lon="3.33385">
        <ele>302.16595458984</ele>
        <time>2020-06-23T12:11:55.761Z</time>
      </trkpt>
      <trkpt lat="45.91173" lon="3.3339">
        <ele>302.25936889648</ele>
        <time>2020-06-23T12:11:56.842Z</time>
      </trkpt>
      <trkpt lat="45.91216" lon="3.33452">
        <ele>302.5641784668</ele>
        <time>2020-06-23T12:11:57.933Z</time>
      </trkpt>
      <trkpt lat="45.9126" lon="3.3351">
        <ele>302.9208984375</ele>
        <time>2020-06-23T12:11:59.033Z</time>
      </trkpt>
      <trkpt lat="45.91311" lon="3.33557">
        <ele>302.92211914062</ele>
        <time>2020-06-23T12:12:00.143Z</time>
      </trkpt>
      <trkpt lat="45.91359" lon="3.33588">
        <ele>301.60430908203</ele>
        <time>2020-06-23T12:12:01.261Z</time>
      </trkpt>
      <trkpt lat="45.91417" lon="3.3361">
        <ele>301.32299804688</ele>
        <time>2020-06-23T12:12:02.389Z</time>
      </trkpt>
      <trkpt lat="45.91652" lon="3.33671">
        <ele>301.74328613281</ele>
        <time>2020-06-23T12:12:03.555Z</time>
      </trkpt>
      <trkpt lat="45.91691" lon="3.33682">
        <ele>301.38818359375</ele>
        <time>2020-06-23T12:12:04.727Z</time>
      </trkpt>
      <trkpt lat="45.91745" lon="3.337">
        <ele>301.23480224609</ele>
        <time>2020-06-23T12:12:05.908Z</time>
      </trkpt>
      <trkpt lat="45.91944" lon="3.33791">
        <ele>300.68670654297</ele>
        <time>2020-06-23T12:12:07.123Z</time>
      </trkpt>
      <trkpt lat="45.92001" lon="3.33824">
        <ele>298.77642822266</ele>
        <time>2020-06-23T12:12:08.347Z</time>
      </trkpt>
      <trkpt lat="45.92007" lon="3.3383">
        <ele>298.36322021484</ele>
        <time>2020-06-23T12:12:09.573Z</time>
      </trkpt>
      <trkpt lat="45.92018" lon="3.33846">
        <ele>297.81219482422</ele>
        <time>2020-06-23T12:12:10.801Z</time>
      </trkpt>
      <trkpt lat="45.92027" lon="3.33877">
        <ele>297.84442138672</ele>
        <time>2020-06-23T12:12:12.033Z</time>
      </trkpt>
      <trkpt lat="45.92029" lon="3.33912">
        <ele>298.46588134766</ele>
        <time>2020-06-23T12:12:13.269Z</time>
      </trkpt>
      <trkpt lat="45.92033" lon="3.33959">
        <ele>298.75881958008</ele>
        <time>2020-06-23T12:12:14.510Z</time>
      </trkpt>
      <trkpt lat="45.92048" lon="3.34025">
        <ele>298.10919189453</ele>
        <time>2020-06-23T12:12:15.759Z</time>
      </trkpt>
      <trkpt lat="45.92056" lon="3.34046">
        <ele>298.01577758789</ele>
        <time>2020-06-23T12:12:17.011Z</time>
      </trkpt>
      <trkpt lat="45.92085" lon="3.34106">
        <ele>297.56350708008</ele>
        <time>2020-06-23T12:12:18.271Z</time>
      </trkpt>
      <trkpt lat="45.92091" lon="3.34129">
        <ele>297.21817016602</ele>
        <time>2020-06-23T12:12:19.533Z</time>
      </trkpt>
      <trkpt lat="45.92096" lon="3.34188">
        <ele>295.91738891602</ele>
        <time>2020-06-23T12:12:20.802Z</time>
      </trkpt>
      <trkpt lat="45.92101" lon="3.34302">
        <ele>294.56555175781</ele>
        <time>2020-06-23T12:12:22.084Z</time>
      </trkpt>
      <trkpt lat="45.92101" lon="3.34336">
        <ele>294.08441162109</ele>
        <time>2020-06-23T12:12:23.370Z</time>
      </trkpt>
      <trkpt lat="45.92098" lon="3.3437">
        <ele>294.27560424805</ele>
        <time>2020-06-23T12:12:24.659Z</time>
      </trkpt>
      <trkpt lat="45.92096" lon="3.3438">
        <ele>294.46347045898</ele>
        <time>2020-06-23T12:12:25.950Z</time>
      </trkpt>
      <trkpt lat="45.92083" lon="3.34409">
        <ele>295.10659790039</ele>
        <time>2020-06-23T12:12:27.244Z</time>
      </trkpt>
      <trkpt lat="45.92053" lon="3.34453">
        <ele>296.96038818359</ele>
        <time>2020-06-23T12:12:28.545Z</time>
      </trkpt>
      <trkpt lat="45.92027" lon="3.34478">
        <ele>299.11834716797</ele>
        <time>2020-06-23T12:12:29.851Z</time>
      </trkpt>
      <trkpt lat="45.91961" lon="3.34523">
        <ele>300.47064208984</ele>
        <time>2020-06-23T12:12:31.169Z</time>
      </trkpt>
      <trkpt lat="45.91927" lon="3.34559">
        <ele>298.52191162109</ele>
        <time>2020-06-23T12:12:32.494Z</time>
      </trkpt>
      <trkpt lat="45.91899" lon="3.34598">
        <ele>297.68405151367</ele>
        <time>2020-06-23T12:12:33.825Z</time>
      </trkpt>
      <trkpt lat="45.91868" lon="3.34657">
        <ele>291.04864501953</ele>
        <time>2020-06-23T12:12:35.164Z</time>
      </trkpt>
      <trkpt lat="45.91858" lon="3.34681">
        <ele>289.37603759766</ele>
        <time>2020-06-23T12:12:36.507Z</time>
      </trkpt>
      <trkpt lat="45.9182" lon="3.34817">
        <ele>285.21188354492</ele>
        <time>2020-06-23T12:12:37.866Z</time>
      </trkpt>
      <trkpt lat="45.91784" lon="3.34929">
        <ele>283.75302124023</ele>
        <time>2020-06-23T12:12:39.239Z</time>
      </trkpt>
      <trkpt lat="45.91772" lon="3.34978">
        <ele>283.01626586914</ele>
        <time>2020-06-23T12:12:40.617Z</time>
      </trkpt>
      <trkpt lat="45.9173" lon="3.35193">
        <ele>283.92153930664</ele>
        <time>2020-06-23T12:12:42.020Z</time>
      </trkpt>
      <trkpt lat="45.91666" lon="3.35421">
        <ele>284.0632019043</ele>
        <time>2020-06-23T12:12:43.451Z</time>
      </trkpt>
      <trkpt lat="45.91646" lon="3.35503">
        <ele>283.2080078125</ele>
        <time>2020-06-23T12:12:44.892Z</time>
      </trkpt>
      <trkpt lat="45.91643" lon="3.35525">
        <ele>282.90240478516</ele>
        <time>2020-06-23T12:12:46.335Z</time>
      </trkpt>
      <trkpt lat="45.91641" lon="3.35593">
        <ele>282.05532836914</ele>
        <time>2020-06-23T12:12:47.786Z</time>
      </trkpt>
      <trkpt lat="45.91649" lon="3.35648">
        <ele>282</ele>
        <time>2020-06-23T12:12:49.243Z</time>
      </trkpt>
      <trkpt lat="45.91656" lon="3.35691">
        <ele>282.119140625</ele>
        <time>2020-06-23T12:12:50.705Z</time>
      </trkpt>
      <trkpt lat="45.91679" lon="3.35788">
        <ele>282.45825195312</ele>
        <time>2020-06-23T12:12:52.178Z</time>
      </trkpt>
      <trkpt lat="45.91731" lon="3.35973">
        <ele>284.24243164062</ele>
        <time>2020-06-23T12:12:53.674Z</time>
      </trkpt>
      <trkpt lat="45.91737" lon="3.36025">
        <ele>284.66473388672</ele>
        <time>2020-06-23T12:12:55.175Z</time>
      </trkpt>
      <trkpt lat="45.91737" lon="3.36077">
        <ele>285.26428222656</ele>
        <time>2020-06-23T12:12:56.682Z</time>
      </trkpt>
      <trkpt lat="45.91728" lon="3.36139">
        <ele>286.34326171875</ele>
        <time>2020-06-23T12:12:58.196Z</time>
      </trkpt>
      <trkpt lat="45.9162" lon="3.36635">
        <ele>284.52551269531</ele>
        <time>2020-06-23T12:12:59.768Z</time>
      </trkpt>
      <trkpt lat="45.91616" lon="3.36689">
        <ele>286.48492431641</ele>
        <time>2020-06-23T12:13:01.346Z</time>
      </trkpt>
      <trkpt lat="45.91616" lon="3.36788">
        <ele>288.83920288086</ele>
        <time>2020-06-23T12:13:02.936Z</time>
      </trkpt>
      <trkpt lat="45.91619" lon="3.37226">
        <ele>289.79733276367</ele>
        <time>2020-06-23T12:13:04.574Z</time>
      </trkpt>
      <trkpt lat="45.91623" lon="3.37243">
        <ele>289.95349121094</ele>
        <time>2020-06-23T12:13:06.214Z</time>
      </trkpt>
      <trkpt lat="45.9164" lon="3.37256">
        <ele>289.90252685547</ele>
        <time>2020-06-23T12:13:07.858Z</time>
      </trkpt>
      <trkpt lat="45.91679" lon="3.3728">
        <ele>289.89712524414</ele>
        <time>2020-06-23T12:13:09.508Z</time>
      </trkpt>
      <trkpt lat="45.91697" lon="3.37287">
        <ele>289.84692382812</ele>
        <time>2020-06-23T12:13:11.161Z</time>
      </trkpt>
      <trkpt lat="45.91762" lon="3.37306">
        <ele>289.07690429688</ele>
        <time>2020-06-23T12:13:12.825Z</time>
      </trkpt>
      <trkpt lat="45.91769" lon="3.37312">
        <ele>289.04672241211</ele>
        <time>2020-06-23T12:13:14.490Z</time>
      </trkpt>
      <trkpt lat="45.91796" lon="3.37357">
        <ele>289.16482543945</ele>
        <time>2020-06-23T12:13:16.162Z</time>
      </trkpt>
      <trkpt lat="45.91809" lon="3.3737">
        <ele>288.6276550293</ele>
        <time>2020-06-23T12:13:17.837Z</time>
      </trkpt>
      <trkpt lat="45.91849" lon="3.37395">
        <ele>286.43621826172</ele>
        <time>2020-06-23T12:13:19.518Z</time>
      </trkpt>
      <trkpt lat="45.91856" lon="3.37403">
        <ele>286.00256347656</ele>
        <time>2020-06-23T12:13:21.201Z</time>
      </trkpt>
      <trkpt lat="45.91871" lon="3.37433">
        <ele>284.96640014648</ele>
        <time>2020-06-23T12:13:22.888Z</time>
      </trkpt>
      <trkpt lat="45.91884" lon="3.37482">
        <ele>284.91018676758</ele>
        <time>2020-06-23T12:13:24.581Z</time>
      </trkpt>
      <trkpt lat="45.91892" lon="3.37506">
        <ele>284.82699584961</ele>
        <time>2020-06-23T12:13:26.277Z</time>
      </trkpt>
      <trkpt lat="45.91914" lon="3.37547">
        <ele>284.33392333984</ele>
        <time>2020-06-23T12:13:27.979Z</time>
      </trkpt>
      <trkpt lat="45.91934" lon="3.37576">
        <ele>283.87112426758</ele>
        <time>2020-06-23T12:13:29.685Z</time>
      </trkpt>
      <trkpt lat="45.9195" lon="3.37609">
        <ele>283.56433105469</ele>
        <time>2020-06-23T12:13:31.396Z</time>
      </trkpt>
      <trkpt lat="45.91963" lon="3.37646">
        <ele>283.1926574707</ele>
        <time>2020-06-23T12:13:33.111Z</time>
      </trkpt>
      <trkpt lat="45.91998" lon="3.37753">
        <ele>283.86071777344</ele>
        <time>2020-06-23T12:13:34.839Z</time>
      </trkpt>
      <trkpt lat="45.92007" lon="3.37787">
        <ele>283.19354248047</ele>
        <time>2020-06-23T12:13:36.572Z</time>
      </trkpt>
      <trkpt lat="45.92026" lon="3.37881">
        <ele>281.37048339844</ele>
        <time>2020-06-23T12:13:38.316Z</time>
      </trkpt>
      <trkpt lat="45.92048" lon="3.37964">
        <ele>281.59368896484</ele>
        <time>2020-06-23T12:13:40.069Z</time>
      </trkpt>
      <trkpt lat="45.92119" lon="3.38124">
        <ele>281.8244934082</ele>
        <time>2020-06-23T12:13:41.844Z</time>
      </trkpt>
      <trkpt lat="45.92188" lon="3.38295">
        <ele>282.79388427734</ele>
        <time>2020-06-23T12:13:43.641Z</time>
      </trkpt>
      <trkpt lat="45.92208" lon="3.38349">
        <ele>282.7995300293</ele>
        <time>2020-06-23T12:13:45.444Z</time>
      </trkpt>
      <trkpt lat="45.92209" lon="3.38384">
        <ele>282.39053344727</ele>
        <time>2020-06-23T12:13:47.251Z</time>
      </trkpt>
      <trkpt lat="45.922" lon="3.38418">
        <ele>282</ele>
        <time>2020-06-23T12:13:49.062Z</time>
      </trkpt>
      <trkpt lat="45.92086" lon="3.38767">
        <ele>285.91595458984</ele>
        <time>2020-06-23T12:13:50.916Z</time>
      </trkpt>
      <trkpt lat="45.92084" lon="3.38778">
        <ele>286.19946289062</ele>
        <time>2020-06-23T12:13:52.772Z</time>
      </trkpt>
      <trkpt lat="45.92084" lon="3.38801">
        <ele>286.1930847168</ele>
        <time>2020-06-23T12:13:54.630Z</time>
      </trkpt>
      <trkpt lat="45.92092" lon="3.38834">
        <ele>285.08404541016</ele>
        <time>2020-06-23T12:13:56.492Z</time>
      </trkpt>
      <trkpt lat="45.9211" lon="3.38861">
        <ele>283.93356323242</ele>
        <time>2020-06-23T12:13:58.358Z</time>
      </trkpt>
      <trkpt lat="45.92182" lon="3.38943">
        <ele>282.13897705078</ele>
        <time>2020-06-23T12:14:00.239Z</time>
      </trkpt>
      <trkpt lat="45.92223" lon="3.38994">
        <ele>282.74853515625</ele>
        <time>2020-06-23T12:14:02.129Z</time>
      </trkpt>
      <trkpt lat="45.92275" lon="3.39108">
        <ele>281.8923034668</ele>
        <time>2020-06-23T12:14:04.034Z</time>
      </trkpt>
      <trkpt lat="45.92285" lon="3.39127">
        <ele>281.86050415039</ele>
        <time>2020-06-23T12:14:05.942Z</time>
      </trkpt>
      <trkpt lat="45.92292" lon="3.39135">
        <ele>281.80822753906</ele>
        <time>2020-06-23T12:14:07.851Z</time>
      </trkpt>
      <trkpt lat="45.92347" lon="3.39192">
        <ele>281.52462768555</ele>
        <time>2020-06-23T12:14:09.771Z</time>
      </trkpt>
      <trkpt lat="45.92388" lon="3.3925">
        <ele>281.03387451172</ele>
        <time>2020-06-23T12:14:11.700Z</time>
      </trkpt>
      <trkpt lat="45.92403" lon="3.39278">
        <ele>281.1549987793</ele>
        <time>2020-06-23T12:14:13.633Z</time>
      </trkpt>
      <trkpt lat="45.92411" lon="3.39298">
        <ele>281.40158081055</ele>
        <time>2020-06-23T12:14:15.569Z</time>
      </trkpt>
      <trkpt lat="45.9242" lon="3.39331">
        <ele>281.78744506836</ele>
        <time>2020-06-23T12:14:17.508Z</time>
      </trkpt>
      <trkpt lat="45.9243" lon="3.39373">
        <ele>282.59808349609</ele>
        <time>2020-06-23T12:14:19.453Z</time>
      </trkpt>
      <trkpt lat="45.92441" lon="3.39438">
        <ele>285.25689697266</ele>
        <time>2020-06-23T12:14:21.405Z</time>
      </trkpt>
      <trkpt lat="45.92447" lon="3.39458">
        <ele>285.26251220703</ele>
        <time>2020-06-23T12:14:23.359Z</time>
      </trkpt>
      <trkpt lat="45.92456" lon="3.39475">
        <ele>285.17874145508</ele>
        <time>2020-06-23T12:14:25.316Z</time>
      </trkpt>
      <trkpt lat="45.92494" lon="3.39541">
        <ele>285.59448242188</ele>
        <time>2020-06-23T12:14:27.282Z</time>
      </trkpt>
      <trkpt lat="45.92523" lon="3.39586">
        <ele>286.90676879883</ele>
        <time>2020-06-23T12:14:29.255Z</time>
      </trkpt>
      <trkpt lat="45.92557" lon="3.39635">
        <ele>285.99362182617</ele>
        <time>2020-06-23T12:14:31.236Z</time>
      </trkpt>
      <trkpt lat="45.9256" lon="3.39643">
        <ele>285.88381958008</ele>
        <time>2020-06-23T12:14:33.218Z</time>
      </trkpt>
      <trkpt lat="45.92555" lon="3.39688">
        <ele>286.18591308594</ele>
        <time>2020-06-23T12:14:35.205Z</time>
      </trkpt>
      <trkpt lat="45.92555" lon="3.39708">
        <ele>285.90573120117</ele>
        <time>2020-06-23T12:14:37.194Z</time>
      </trkpt>
      <trkpt lat="45.92564" lon="3.39737">
        <ele>285.11117553711</ele>
        <time>2020-06-23T12:14:39.187Z</time>
      </trkpt>
      <trkpt lat="45.92581" lon="3.39754">
        <ele>284.27264404297</ele>
        <time>2020-06-23T12:14:41.183Z</time>
      </trkpt>
      <trkpt lat="45.92627" lon="3.39767">
        <ele>282.63027954102</ele>
        <time>2020-06-23T12:14:43.187Z</time>
      </trkpt>
      <trkpt lat="45.92641" lon="3.39776">
        <ele>282.60583496094</ele>
        <time>2020-06-23T12:14:45.193Z</time>
      </trkpt>
      <trkpt lat="45.92691" lon="3.39813">
        <ele>282.55541992188</ele>
        <time>2020-06-23T12:14:47.208Z</time>
      </trkpt>
      <trkpt lat="45.92759" lon="3.39844">
        <ele>282.46911621094</ele>
        <time>2020-06-23T12:14:49.234Z</time>
      </trkpt>
      <trkpt lat="45.92848" lon="3.39903">
        <ele>282.99987792969</ele>
        <time>2020-06-23T12:14:51.276Z</time>
      </trkpt>
      <trkpt lat="45.92878" lon="3.3992">
        <ele>282.87786865234</ele>
        <time>2020-06-23T12:14:53.323Z</time>
      </trkpt>
      <trkpt lat="45.92891" lon="3.39932">
        <ele>282.98748779297</ele>
        <time>2020-06-23T12:14:55.373Z</time>
      </trkpt>
      <trkpt lat="45.92906" lon="3.39958">
        <ele>282.5491027832</ele>
        <time>2020-06-23T12:14:57.427Z</time>
      </trkpt>
      <trkpt lat="45.92942" lon="3.40032">
        <ele>281.52404785156</ele>
        <time>2020-06-23T12:14:59.491Z</time>
      </trkpt>
      <trkpt lat="45.92949" lon="3.40052">
        <ele>281.2014465332</ele>
        <time>2020-06-23T12:15:01.557Z</time>
      </trkpt>
      <trkpt lat="45.92974" lon="3.40218">
        <ele>281.88641357422</ele>
        <time>2020-06-23T12:15:03.642Z</time>
      </trkpt>
      <trkpt lat="45.92992" lon="3.40283">
        <ele>282.12698364258</ele>
        <time>2020-06-23T12:15:05.735Z</time>
      </trkpt>
      <trkpt lat="45.93017" lon="3.40345">
        <ele>281.39920043945</ele>
        <time>2020-06-23T12:15:07.836Z</time>
      </trkpt>
      <trkpt lat="45.93049" lon="3.4051">
        <ele>283.42959594727</ele>
        <time>2020-06-23T12:15:09.956Z</time>
      </trkpt>
      <trkpt lat="45.93069" lon="3.40566">
        <ele>283.33554077148</ele>
        <time>2020-06-23T12:15:12.083Z</time>
      </trkpt>
      <trkpt lat="45.93081" lon="3.40593">
        <ele>283.35885620117</ele>
        <time>2020-06-23T12:15:14.214Z</time>
      </trkpt>
      <trkpt lat="45.93096" lon="3.40631">
        <ele>282.67907714844</ele>
        <time>2020-06-23T12:15:16.350Z</time>
      </trkpt>
      <trkpt lat="45.93135" lon="3.40778">
        <ele>281.40850830078</ele>
        <time>2020-06-23T12:15:18.503Z</time>
      </trkpt>
      <trkpt lat="45.93164" lon="3.40897">
        <ele>282.04705810547</ele>
        <time>2020-06-23T12:15:20.670Z</time>
      </trkpt>
      <trkpt lat="45.93201" lon="3.40998">
        <ele>282.60488891602</ele>
        <time>2020-06-23T12:15:22.850Z</time>
      </trkpt>
      <trkpt lat="45.93222" lon="3.41041">
        <ele>282.36715698242</ele>
        <time>2020-06-23T12:15:25.036Z</time>
      </trkpt>
      <trkpt lat="45.93263" lon="3.41098">
        <ele>282.06414794922</ele>
        <time>2020-06-23T12:15:27.231Z</time>
      </trkpt>
      <trkpt lat="45.93277" lon="3.41113">
        <ele>281.73526000977</ele>
        <time>2020-06-23T12:15:29.429Z</time>
      </trkpt>
      <trkpt lat="45.93293" lon="3.41121">
        <ele>281.35189819336</ele>
        <time>2020-06-23T12:15:31.629Z</time>
      </trkpt>
      <trkpt lat="45.93301" lon="3.41123">
        <ele>281.15014648438</ele>
        <time>2020-06-23T12:15:33.831Z</time>
      </trkpt>
      <trkpt lat="45.93335" lon="3.41121">
        <ele>280.59268188477</ele>
        <time>2020-06-23T12:15:36.038Z</time>
      </trkpt>
      <trkpt lat="45.93385" lon="3.41121">
        <ele>279.40802001953</ele>
        <time>2020-06-23T12:15:38.253Z</time>
      </trkpt>
      <trkpt lat="45.93424" lon="3.41134">
        <ele>279.41912841797</ele>
        <time>2020-06-23T12:15:40.475Z</time>
      </trkpt>
      <trkpt lat="45.93432" lon="3.41138">
        <ele>279.47744750977</ele>
        <time>2020-06-23T12:15:42.698Z</time>
      </trkpt>
      <trkpt lat="45.93457" lon="3.41166">
        <ele>279.81433105469</ele>
        <time>2020-06-23T12:15:44.926Z</time>
      </trkpt>
      <trkpt lat="45.93495" lon="3.41226">
        <ele>280.27502441406</ele>
        <time>2020-06-23T12:15:47.163Z</time>
      </trkpt>
      <trkpt lat="45.93507" lon="3.41255">
        <ele>280.47012329102</ele>
        <time>2020-06-23T12:15:49.404Z</time>
      </trkpt>
      <trkpt lat="45.93523" lon="3.41281">
        <ele>280.41439819336</ele>
        <time>2020-06-23T12:15:51.649Z</time>
      </trkpt>
      <trkpt lat="45.93543" lon="3.41299">
        <ele>280.17172241211</ele>
        <time>2020-06-23T12:15:53.897Z</time>
      </trkpt>
      <trkpt lat="45.93615" lon="3.41345">
        <ele>278.62237548828</ele>
        <time>2020-06-23T12:15:56.158Z</time>
      </trkpt>
      <trkpt lat="45.93668" lon="3.41385">
        <ele>278.87100219727</ele>
        <time>2020-06-23T12:15:58.429Z</time>
      </trkpt>
      <trkpt lat="45.93718" lon="3.41431">
        <ele>279.98184204102</ele>
        <time>2020-06-23T12:16:00.709Z</time>
      </trkpt>
      <trkpt lat="45.93838" lon="3.41513">
        <ele>280</ele>
        <time>2020-06-23T12:16:03.010Z</time>
      </trkpt>
      <trkpt lat="45.93889" lon="3.41552">
        <ele>279.56292724609</ele>
        <time>2020-06-23T12:16:05.321Z</time>
      </trkpt>
      <trkpt lat="45.93896" lon="3.4156">
        <ele>279.40994262695</ele>
        <time>2020-06-23T12:16:07.633Z</time>
      </trkpt>
      <trkpt lat="45.93908" lon="3.4159">
        <ele>278.88778686523</ele>
        <time>2020-06-23T12:16:09.949Z</time>
      </trkpt>
      <trkpt lat="45.93927" lon="3.41642">
        <ele>278.56771850586</ele>
        <time>2020-06-23T12:16:12.272Z</time>
      </trkpt>
      <trkpt lat="45.9395" lon="3.41671">
        <ele>278.28985595703</ele>
        <time>2020-06-23T12:16:14.599Z</time>
      </trkpt>
      <trkpt lat="45.93995" lon="3.41713">
        <ele>277.98962402344</ele>
        <time>2020-06-23T12:16:16.935Z</time>
      </trkpt>
      <trkpt lat="45.94017" lon="3.41748">
        <ele>278.04605102539</ele>
        <time>2020-06-23T12:16:19.276Z</time>
      </trkpt>
      <trkpt lat="45.94039" lon="3.41809">
        <ele>277.64593505859</ele>
        <time>2020-06-23T12:16:21.625Z</time>
      </trkpt>
      <trkpt lat="45.94086" lon="3.41998">
        <ele>278.32638549805</ele>
        <time>2020-06-23T12:16:23.996Z</time>
      </trkpt>
      <trkpt lat="45.94103" lon="3.42088">
        <ele>277.67855834961</ele>
        <time>2020-06-23T12:16:26.378Z</time>
      </trkpt>
      <trkpt lat="45.94103" lon="3.42088">
        <ele>277.6780090332</ele>
        <time>2020-06-23T12:16:28.760Z</time>
      </trkpt>
      <trkpt lat="45.94108" lon="3.42165">
        <ele>280.19247436523</ele>
        <time>2020-06-23T12:16:31.151Z</time>
      </trkpt>
      <trkpt lat="45.94104" lon="3.4223">
        <ele>285.25714111328</ele>
        <time>2020-06-23T12:16:33.549Z</time>
      </trkpt>
      <trkpt lat="45.94108" lon="3.42273">
        <ele>288.59307861328</ele>
        <time>2020-06-23T12:16:35.952Z</time>
      </trkpt>
      <trkpt lat="45.94131" lon="3.42365">
        <ele>290.15316772461</ele>
        <time>2020-06-23T12:16:38.366Z</time>
      </trkpt>
      <trkpt lat="45.94144" lon="3.42447">
        <ele>288.36514282227</ele>
        <time>2020-06-23T12:16:40.789Z</time>
      </trkpt>
      <trkpt lat="45.9416" lon="3.42527">
        <ele>285.64916992188</ele>
        <time>2020-06-23T12:16:43.221Z</time>
      </trkpt>
      <trkpt lat="45.94163" lon="3.42536">
        <ele>285.58862304688</ele>
        <time>2020-06-23T12:16:45.654Z</time>
      </trkpt>
      <trkpt lat="45.9418" lon="3.4257">
        <ele>284.81677246094</ele>
        <time>2020-06-23T12:16:48.092Z</time>
      </trkpt>
      <trkpt lat="45.942" lon="3.42603">
        <ele>283.81600952148</ele>
        <time>2020-06-23T12:16:50.535Z</time>
      </trkpt>
      <trkpt lat="45.94242" lon="3.42645">
        <ele>282.02328491211</ele>
        <time>2020-06-23T12:16:52.986Z</time>
      </trkpt>
      <trkpt lat="45.94268" lon="3.42684">
        <ele>281.46917724609</ele>
        <time>2020-06-23T12:16:55.443Z</time>
      </trkpt>
      <trkpt lat="45.94329" lon="3.42819">
        <ele>281.86874389648</ele>
        <time>2020-06-23T12:16:57.918Z</time>
      </trkpt>
      <trkpt lat="45.94396" lon="3.42979">
        <ele>280.7766418457</ele>
        <time>2020-06-23T12:17:00.414Z</time>
      </trkpt>
      <trkpt lat="45.94471" lon="3.43131">
        <ele>281.22525024414</ele>
        <time>2020-06-23T12:17:02.931Z</time>
      </trkpt>
      <trkpt lat="45.94512" lon="3.4322">
        <ele>281.65475463867</ele>
        <time>2020-06-23T12:17:05.460Z</time>
      </trkpt>
      <trkpt lat="45.94522" lon="3.43233">
        <ele>281.36923217773</ele>
        <time>2020-06-23T12:17:07.991Z</time>
      </trkpt>
      <trkpt lat="45.94534" lon="3.43241">
        <ele>280.82681274414</ele>
        <time>2020-06-23T12:17:10.524Z</time>
      </trkpt>
      <trkpt lat="45.94632" lon="3.43286">
        <ele>278.62265014648</ele>
        <time>2020-06-23T12:17:13.073Z</time>
      </trkpt>
      <trkpt lat="45.94665" lon="3.43304">
        <ele>277.50112915039</ele>
        <time>2020-06-23T12:17:15.628Z</time>
      </trkpt>
      <trkpt lat="45.94678" lon="3.43319">
        <ele>276.82110595703</ele>
        <time>2020-06-23T12:17:18.186Z</time>
      </trkpt>
      <trkpt lat="45.94689" lon="3.43338">
        <ele>276.11251831055</ele>
        <time>2020-06-23T12:17:20.746Z</time>
      </trkpt>
      <trkpt lat="45.94697" lon="3.43359">
        <ele>275.77011108398</ele>
        <time>2020-06-23T12:17:23.309Z</time>
      </trkpt>
      <trkpt lat="45.94703" lon="3.43382">
        <ele>275.90838623047</ele>
        <time>2020-06-23T12:17:25.875Z</time>
      </trkpt>
      <trkpt lat="45.94713" lon="3.4345">
        <ele>275.43914794922</ele>
        <time>2020-06-23T12:17:28.449Z</time>
      </trkpt>
      <trkpt lat="45.94722" lon="3.4353">
        <ele>273.85687255859</ele>
        <time>2020-06-23T12:17:31.032Z</time>
      </trkpt>
      <trkpt lat="45.94723" lon="3.43564">
        <ele>273.42935180664</ele>
        <time>2020-06-23T12:17:33.618Z</time>
      </trkpt>
      <trkpt lat="45.94719" lon="3.43644">
        <ele>273.05868530273</ele>
        <time>2020-06-23T12:17:36.213Z</time>
      </trkpt>
      <trkpt lat="45.94712" lon="3.43722">
        <ele>273.47009277344</ele>
        <time>2020-06-23T12:17:38.817Z</time>
      </trkpt>
      <trkpt lat="45.94711" lon="3.43744">
        <ele>273.73721313477</ele>
        <time>2020-06-23T12:17:41.424Z</time>
      </trkpt>
      <trkpt lat="45.94715" lon="3.43788">
        <ele>274</ele>
        <time>2020-06-23T12:17:44.036Z</time>
      </trkpt>
      <trkpt lat="45.94733" lon="3.43851">
        <ele>274</ele>
        <time>2020-06-23T12:17:46.655Z</time>
      </trkpt>
      <trkpt lat="45.94749" lon="3.43916">
        <ele>274</ele>
        <time>2020-06-23T12:17:49.282Z</time>
      </trkpt>
      <trkpt lat="45.9475" lon="3.43974">
        <ele>274.18948364258</ele>
        <time>2020-06-23T12:17:51.915Z</time>
      </trkpt>
      <trkpt lat="45.94739" lon="3.44041">
        <ele>274.69763183594</ele>
        <time>2020-06-23T12:17:54.556Z</time>
      </trkpt>
      <trkpt lat="45.9473" lon="3.44119">
        <ele>273.82373046875</ele>
        <time>2020-06-23T12:17:57.206Z</time>
      </trkpt>
      <trkpt lat="45.94729" lon="3.44194">
        <ele>273.13467407227</ele>
        <time>2020-06-23T12:17:59.864Z</time>
      </trkpt>
      <trkpt lat="45.94731" lon="3.44249">
        <ele>273.79760742188</ele>
        <time>2020-06-23T12:18:02.528Z</time>
      </trkpt>
      <trkpt lat="45.94737" lon="3.44285">
        <ele>274.07556152344</ele>
        <time>2020-06-23T12:18:05.196Z</time>
      </trkpt>
      <trkpt lat="45.94741" lon="3.44308">
        <ele>274.30322265625</ele>
        <time>2020-06-23T12:18:07.867Z</time>
      </trkpt>
      <trkpt lat="45.9476" lon="3.44386">
        <ele>274.14028930664</ele>
        <time>2020-06-23T12:18:10.547Z</time>
      </trkpt>
      <trkpt lat="45.94801" lon="3.44539">
        <ele>273</ele>
        <time>2020-06-23T12:18:13.246Z</time>
      </trkpt>
      <trkpt lat="45.9481" lon="3.4457">
        <ele>273</ele>
        <time>2020-06-23T12:18:15.948Z</time>
      </trkpt>
      <trkpt lat="45.94836" lon="3.44644">
        <ele>273.19448852539</ele>
        <time>2020-06-23T12:18:18.660Z</time>
      </trkpt>
      <trkpt lat="45.94915" lon="3.44808">
        <ele>273.44979858398</ele>
        <time>2020-06-23T12:18:21.394Z</time>
      </trkpt>
      <trkpt lat="45.94948" lon="3.44874">
        <ele>274.52581787109</ele>
        <time>2020-06-23T12:18:24.137Z</time>
      </trkpt>
      <trkpt lat="45.94985" lon="3.44932">
        <ele>275.45550537109</ele>
        <time>2020-06-23T12:18:26.889Z</time>
      </trkpt>
      <trkpt lat="45.95005" lon="3.4495">
        <ele>275.12445068359</ele>
        <time>2020-06-23T12:18:29.645Z</time>
      </trkpt>
      <trkpt lat="45.9507" lon="3.44988">
        <ele>273.67892456055</ele>
        <time>2020-06-23T12:18:32.412Z</time>
      </trkpt>
      <trkpt lat="45.95077" lon="3.44994">
        <ele>273.72375488281</ele>
        <time>2020-06-23T12:18:35.180Z</time>
      </trkpt>
      <trkpt lat="45.95108" lon="3.45029">
        <ele>273.7858581543</ele>
        <time>2020-06-23T12:18:37.954Z</time>
      </trkpt>
      <trkpt lat="45.95133" lon="3.45074">
        <ele>273.18325805664</ele>
        <time>2020-06-23T12:18:40.735Z</time>
      </trkpt>
      <trkpt lat="45.95169" lon="3.45151">
        <ele>274.11181640625</ele>
        <time>2020-06-23T12:18:43.526Z</time>
      </trkpt>
      <trkpt lat="45.95204" lon="3.45212">
        <ele>274.17211914062</ele>
        <time>2020-06-23T12:18:46.326Z</time>
      </trkpt>
      <trkpt lat="45.95237" lon="3.45243">
        <ele>273.14779663086</ele>
        <time>2020-06-23T12:18:49.132Z</time>
      </trkpt>
      <trkpt lat="45.95283" lon="3.45267">
        <ele>272.6330871582</ele>
        <time>2020-06-23T12:18:51.946Z</time>
      </trkpt>
      <trkpt lat="45.95445" lon="3.45341">
        <ele>273.80456542969</ele>
        <time>2020-06-23T12:18:54.787Z</time>
      </trkpt>
      <trkpt lat="45.95488" lon="3.45368">
        <ele>274.22338867188</ele>
        <time>2020-06-23T12:18:57.636Z</time>
      </trkpt>
      <trkpt lat="45.95527" lon="3.45406">
        <ele>274.68167114258</ele>
        <time>2020-06-23T12:19:00.492Z</time>
      </trkpt>
      <trkpt lat="45.95564" lon="3.45465">
        <ele>274.22692871094</ele>
        <time>2020-06-23T12:19:03.357Z</time>
      </trkpt>
      <trkpt lat="45.95583" lon="3.45513">
        <ele>273.06860351562</ele>
        <time>2020-06-23T12:19:06.228Z</time>
      </trkpt>
      <trkpt lat="45.95647" lon="3.45749">
        <ele>272.9270324707</ele>
        <time>2020-06-23T12:19:09.128Z</time>
      </trkpt>
      <trkpt lat="45.95676" lon="3.45815">
        <ele>272.58642578125</ele>
        <time>2020-06-23T12:19:12.036Z</time>
      </trkpt>
      <trkpt lat="45.95702" lon="3.45856">
        <ele>272.34829711914</ele>
        <time>2020-06-23T12:19:14.951Z</time>
      </trkpt>
      <trkpt lat="45.95738" lon="3.45895">
        <ele>272.3830871582</ele>
        <time>2020-06-23T12:19:17.873Z</time>
      </trkpt>
      <trkpt lat="45.95915" lon="3.46055">
        <ele>272.9299621582</ele>
        <time>2020-06-23T12:19:20.828Z</time>
      </trkpt>
      <trkpt lat="45.95971" lon="3.46096">
        <ele>273.92819213867</ele>
        <time>2020-06-23T12:19:23.793Z</time>
      </trkpt>
      <trkpt lat="45.96023" lon="3.46129">
        <ele>274.80670166016</ele>
        <time>2020-06-23T12:19:26.767Z</time>
      </trkpt>
      <trkpt lat="45.96045" lon="3.46141">
        <ele>275.19848632812</ele>
        <time>2020-06-23T12:19:29.745Z</time>
      </trkpt>
      <trkpt lat="45.96114" lon="3.46186">
        <ele>272.28311157227</ele>
        <time>2020-06-23T12:19:32.735Z</time>
      </trkpt>
      <trkpt lat="45.96188" lon="3.4624">
        <ele>271</ele>
        <time>2020-06-23T12:19:35.739Z</time>
      </trkpt>
      <trkpt lat="45.96278" lon="3.46311">
        <ele>272.08279418945</ele>
        <time>2020-06-23T12:19:38.759Z</time>
      </trkpt>
      <trkpt lat="45.96286" lon="3.4632">
        <ele>272.3020324707</ele>
        <time>2020-06-23T12:19:41.781Z</time>
      </trkpt>
      <trkpt lat="45.96295" lon="3.46338">
        <ele>272.68579101562</ele>
        <time>2020-06-23T12:19:44.805Z</time>
      </trkpt>
      <trkpt lat="45.96294" lon="3.46352">
        <ele>272.67715454102</ele>
        <time>2020-06-23T12:19:47.831Z</time>
      </trkpt>
      <trkpt lat="45.96292" lon="3.46359">
        <ele>272.62628173828</ele>
        <time>2020-06-23T12:19:50.858Z</time>
      </trkpt>
      <trkpt lat="45.96197" lon="3.466">
        <ele>273</ele>
        <time>2020-06-23T12:19:53.916Z</time>
      </trkpt>
      <trkpt lat="45.96105" lon="3.46842">
        <ele>273.82116699219</ele>
        <time>2020-06-23T12:19:57.004Z</time>
      </trkpt>
      <trkpt lat="45.96097" lon="3.46858">
        <ele>273.26147460938</ele>
        <time>2020-06-23T12:20:00.094Z</time>
      </trkpt>
      <trkpt lat="45.9608" lon="3.46872">
        <ele>272.7297668457</ele>
        <time>2020-06-23T12:20:03.188Z</time>
      </trkpt>
      <trkpt lat="45.96074" lon="3.46897">
        <ele>273.55673217773</ele>
        <time>2020-06-23T12:20:06.284Z</time>
      </trkpt>
      <trkpt lat="45.96074" lon="3.46915">
        <ele>273.98043823242</ele>
        <time>2020-06-23T12:20:09.383Z</time>
      </trkpt>
      <trkpt lat="45.96071" lon="3.46934">
        <ele>274.53213500977</ele>
        <time>2020-06-23T12:20:12.484Z</time>
      </trkpt>
      <trkpt lat="45.96051" lon="3.46996">
        <ele>276.51086425781</ele>
        <time>2020-06-23T12:20:15.592Z</time>
      </trkpt>
      <trkpt lat="45.96024" lon="3.47109">
        <ele>280.89266967773</ele>
        <time>2020-06-23T12:20:18.714Z</time>
      </trkpt>
      <trkpt lat="45.96014" lon="3.47178">
        <ele>280.06137084961</ele>
        <time>2020-06-23T12:20:21.844Z</time>
      </trkpt>
      <trkpt lat="45.95992" lon="3.47352">
        <ele>282.64007568359</ele>
        <time>2020-06-23T12:20:24.993Z</time>
      </trkpt>
      <trkpt lat="45.95985" lon="3.47369">
        <ele>283.10403442383</ele>
        <time>2020-06-23T12:20:28.145Z</time>
      </trkpt>
      <trkpt lat="45.95978" lon="3.47405">
        <ele>283.61291503906</ele>
        <time>2020-06-23T12:20:31.301Z</time>
      </trkpt>
      <trkpt lat="45.95974" lon="3.47441">
        <ele>284.00607299805</ele>
        <time>2020-06-23T12:20:34.461Z</time>
      </trkpt>
      <trkpt lat="45.95963" lon="3.47474">
        <ele>284.13458251953</ele>
        <time>2020-06-23T12:20:37.625Z</time>
      </trkpt>
      <trkpt lat="45.95909" lon="3.47607">
        <ele>284.56567382812</ele>
        <time>2020-06-23T12:20:40.806Z</time>
      </trkpt>
      <trkpt lat="45.95869" lon="3.47697">
        <ele>285.82879638672</ele>
        <time>2020-06-23T12:20:43.999Z</time>
      </trkpt>
      <trkpt lat="45.95851" lon="3.47742">
        <ele>285.47836303711</ele>
        <time>2020-06-23T12:20:47.198Z</time>
      </trkpt>
      <trkpt lat="45.95781" lon="3.47948">
        <ele>287.27835083008</ele>
        <time>2020-06-23T12:20:50.422Z</time>
      </trkpt>
      <trkpt lat="45.95777" lon="3.47963">
        <ele>287.45373535156</ele>
        <time>2020-06-23T12:20:53.648Z</time>
      </trkpt>
      <trkpt lat="45.95778" lon="3.47999">
        <ele>286.9987487793</ele>
        <time>2020-06-23T12:20:56.878Z</time>
      </trkpt>
      <trkpt lat="45.95774" lon="3.48043">
        <ele>285.76556396484</ele>
        <time>2020-06-23T12:21:00.113Z</time>
      </trkpt>
      <trkpt lat="45.95769" lon="3.48065">
        <ele>285.33581542969</ele>
        <time>2020-06-23T12:21:03.351Z</time>
      </trkpt>
      <trkpt lat="45.9575" lon="3.48125">
        <ele>285.08337402344</ele>
        <time>2020-06-23T12:21:06.596Z</time>
      </trkpt>
      <trkpt lat="45.95751" lon="3.48128">
        <ele>285.03903198242</ele>
        <time>2020-06-23T12:21:09.841Z</time>
      </trkpt>
      <trkpt lat="45.95753" lon="3.48124">
        <ele>285.02072143555</ele>
        <time>2020-06-23T12:21:13.087Z</time>
      </trkpt>
      <trkpt lat="45.95769" lon="3.48067">
        <ele>285.31842041016</ele>
        <time>2020-06-23T12:21:16.340Z</time>
      </trkpt>
      <trkpt lat="45.95778" lon="3.47993">
        <ele>287.18557739258</ele>
        <time>2020-06-23T12:21:19.601Z</time>
      </trkpt>
      <trkpt lat="45.95784" lon="3.47984">
        <ele>287.12670898438</ele>
        <time>2020-06-23T12:21:22.864Z</time>
      </trkpt>
      <trkpt lat="45.95832" lon="3.47968">
        <ele>285.41366577148</ele>
        <time>2020-06-23T12:21:26.134Z</time>
      </trkpt>
      <trkpt lat="45.95867" lon="3.47959">
        <ele>284.57675170898</ele>
        <time>2020-06-23T12:21:29.410Z</time>
      </trkpt>
      <trkpt lat="45.95955" lon="3.47942">
        <ele>283.12762451172</ele>
        <time>2020-06-23T12:21:32.700Z</time>
      </trkpt>
      <trkpt lat="45.96023" lon="3.47924">
        <ele>281.82727050781</ele>
        <time>2020-06-23T12:21:36.001Z</time>
      </trkpt>
      <trkpt lat="45.96076" lon="3.47913">
        <ele>280.79370117188</ele>
        <time>2020-06-23T12:21:39.311Z</time>
      </trkpt>
      <trkpt lat="45.96091" lon="3.47906">
        <ele>280.521484375</ele>
        <time>2020-06-23T12:21:42.623Z</time>
      </trkpt>
      <trkpt lat="45.96111" lon="3.47891">
        <ele>280.07424926758</ele>
        <time>2020-06-23T12:21:45.939Z</time>
      </trkpt>
      <trkpt lat="45.96133" lon="3.47891">
        <ele>279.30221557617</ele>
        <time>2020-06-23T12:21:49.259Z</time>
      </trkpt>
      <trkpt lat="45.9616" lon="3.47906">
        <ele>279.44436645508</ele>
        <time>2020-06-23T12:21:52.583Z</time>
      </trkpt>
      <trkpt lat="45.96166" lon="3.47912">
        <ele>279.58755493164</ele>
        <time>2020-06-23T12:21:55.908Z</time>
      </trkpt>
      <trkpt lat="45.96179" lon="3.47935">
        <ele>279.95568847656</ele>
        <time>2020-06-23T12:21:59.237Z</time>
      </trkpt>
      <trkpt lat="45.96185" lon="3.47953">
        <ele>280.53253173828</ele>
        <time>2020-06-23T12:22:02.568Z</time>
      </trkpt>
      <trkpt lat="45.9619" lon="3.47982">
        <ele>281.33605957031</ele>
        <time>2020-06-23T12:22:05.902Z</time>
      </trkpt>
      <trkpt lat="45.96191" lon="3.4808">
        <ele>284.42855834961</ele>
        <time>2020-06-23T12:22:09.247Z</time>
      </trkpt>
      <trkpt lat="45.96193" lon="3.48095">
        <ele>285.34088134766</ele>
        <time>2020-06-23T12:22:12.594Z</time>
      </trkpt>
      <trkpt lat="45.96198" lon="3.48115">
        <ele>286.03884887695</ele>
        <time>2020-06-23T12:22:15.943Z</time>
      </trkpt>
      <trkpt lat="45.96206" lon="3.48131">
        <ele>286.53424072266</ele>
        <time>2020-06-23T12:22:19.294Z</time>
      </trkpt>
      <trkpt lat="45.96258" lon="3.48226">
        <ele>288</ele>
        <time>2020-06-23T12:22:22.659Z</time>
      </trkpt>
      <trkpt lat="45.96288" lon="3.4829">
        <ele>287.71896362305</ele>
        <time>2020-06-23T12:22:26.033Z</time>
      </trkpt>
      <trkpt lat="45.9629" lon="3.48298">
        <ele>287.62454223633</ele>
        <time>2020-06-23T12:22:29.407Z</time>
      </trkpt>
      <trkpt lat="45.96286" lon="3.48341">
        <ele>287.25796508789</ele>
        <time>2020-06-23T12:22:32.786Z</time>
      </trkpt>
      <trkpt lat="45.96287" lon="3.48386">
        <ele>288.12750244141</ele>
        <time>2020-06-23T12:22:36.170Z</time>
      </trkpt>
      <trkpt lat="45.96295" lon="3.48452">
        <ele>288.60968017578</ele>
        <time>2020-06-23T12:22:39.562Z</time>
      </trkpt>
      <trkpt lat="45.96299" lon="3.4853">
        <ele>288.38522338867</ele>
        <time>2020-06-23T12:22:42.963Z</time>
      </trkpt>
      <trkpt lat="45.96299" lon="3.48626">
        <ele>289.63537597656</ele>
        <time>2020-06-23T12:22:46.374Z</time>
      </trkpt>
      <trkpt lat="45.96303" lon="3.48694">
        <ele>290.05209350586</ele>
        <time>2020-06-23T12:22:49.793Z</time>
      </trkpt>
      <trkpt lat="45.96315" lon="3.48819">
        <ele>290.18240356445</ele>
        <time>2020-06-23T12:22:53.226Z</time>
      </trkpt>
      <trkpt lat="45.96317" lon="3.48867">
        <ele>290.52313232422</ele>
        <time>2020-06-23T12:22:56.664Z</time>
      </trkpt>
      <trkpt lat="45.96313" lon="3.48935">
        <ele>292.05941772461</ele>
        <time>2020-06-23T12:23:00.110Z</time>
      </trkpt>
      <trkpt lat="45.9628" lon="3.49194">
        <ele>297.06262207031</ele>
        <time>2020-06-23T12:23:03.585Z</time>
      </trkpt>
      <trkpt lat="45.96278" lon="3.49243">
        <ele>298.79528808594</ele>
        <time>2020-06-23T12:23:07.066Z</time>
      </trkpt>
      <trkpt lat="45.96284" lon="3.49313">
        <ele>298.60073852539</ele>
        <time>2020-06-23T12:23:10.555Z</time>
      </trkpt>
      <trkpt lat="45.96297" lon="3.49388">
        <ele>298.13317871094</ele>
        <time>2020-06-23T12:23:14.052Z</time>
      </trkpt>
      <trkpt lat="45.96314" lon="3.49469">
        <ele>299.08728027344</ele>
        <time>2020-06-23T12:23:17.559Z</time>
      </trkpt>
      <trkpt lat="45.96326" lon="3.4954">
        <ele>301.68746948242</ele>
        <time>2020-06-23T12:23:21.074Z</time>
      </trkpt>
      <trkpt lat="45.96337" lon="3.49629">
        <ele>305.4382019043</ele>
        <time>2020-06-23T12:23:24.599Z</time>
      </trkpt>
      <trkpt lat="45.96343" lon="3.49666">
        <ele>307.45294189453</ele>
        <time>2020-06-23T12:23:28.128Z</time>
      </trkpt>
      <trkpt lat="45.96359" lon="3.49721">
        <ele>309.74285888672</ele>
        <time>2020-06-23T12:23:31.664Z</time>
      </trkpt>
      <trkpt lat="45.96393" lon="3.4983">
        <ele>314.32107543945</ele>
        <time>2020-06-23T12:23:35.213Z</time>
      </trkpt>
      <trkpt lat="45.96399" lon="3.49859">
        <ele>315.40972900391</ele>
        <time>2020-06-23T12:23:38.766Z</time>
      </trkpt>
      <trkpt lat="45.9641" lon="3.49939">
        <ele>317.58877563477</ele>
        <time>2020-06-23T12:23:42.328Z</time>
      </trkpt>
      <trkpt lat="45.96414" lon="3.5003">
        <ele>320.02816772461</ele>
        <time>2020-06-23T12:23:45.900Z</time>
      </trkpt>
      <trkpt lat="45.96419" lon="3.50094">
        <ele>322.44165039062</ele>
        <time>2020-06-23T12:23:49.479Z</time>
      </trkpt>
      <trkpt lat="45.96431" lon="3.50137">
        <ele>322.49795532227</ele>
        <time>2020-06-23T12:23:53.063Z</time>
      </trkpt>
      <trkpt lat="45.96452" lon="3.50192">
        <ele>322.72961425781</ele>
        <time>2020-06-23T12:23:56.654Z</time>
      </trkpt>
      <trkpt lat="45.96477" lon="3.50234">
        <ele>322.97442626953</ele>
        <time>2020-06-23T12:24:00.251Z</time>
      </trkpt>
      <trkpt lat="45.96489" lon="3.5025">
        <ele>322.82769775391</ele>
        <time>2020-06-23T12:24:03.851Z</time>
      </trkpt>
      <trkpt lat="45.96547" lon="3.50303">
        <ele>323.01119995117</ele>
        <time>2020-06-23T12:24:07.462Z</time>
      </trkpt>
      <trkpt lat="45.96602" lon="3.5039">
        <ele>325.4375</ele>
        <time>2020-06-23T12:24:11.086Z</time>
      </trkpt>
      <trkpt lat="45.96623" lon="3.50427">
        <ele>327.07077026367</ele>
        <time>2020-06-23T12:24:14.715Z</time>
      </trkpt>
      <trkpt lat="45.96634" lon="3.50454">
        <ele>327.16915893555</ele>
        <time>2020-06-23T12:24:18.348Z</time>
      </trkpt>
      <trkpt lat="45.96641" lon="3.50476">
        <ele>327.01568603516</ele>
        <time>2020-06-23T12:24:21.984Z</time>
      </trkpt>
      <trkpt lat="45.96661" lon="3.50564">
        <ele>328.28326416016</ele>
        <time>2020-06-23T12:24:25.630Z</time>
      </trkpt>
      <trkpt lat="45.96665" lon="3.50606">
        <ele>329.11831665039</ele>
        <time>2020-06-23T12:24:29.281Z</time>
      </trkpt>
      <trkpt lat="45.96662" lon="3.50809">
        <ele>337.2236328125</ele>
        <time>2020-06-23T12:24:32.954Z</time>
      </trkpt>
      <trkpt lat="45.96656" lon="3.51003">
        <ele>347.73358154297</ele>
        <time>2020-06-23T12:24:36.649Z</time>
      </trkpt>
      <trkpt lat="45.96662" lon="3.5148">
        <ele>348.00430297852</ele>
        <time>2020-06-23T12:24:40.397Z</time>
      </trkpt>
      <trkpt lat="45.96665" lon="3.51506">
        <ele>349.33828735352</ele>
        <time>2020-06-23T12:24:44.148Z</time>
      </trkpt>
      <trkpt lat="45.96674" lon="3.51543">
        <ele>351.14709472656</ele>
        <time>2020-06-23T12:24:47.904Z</time>
      </trkpt>
      <trkpt lat="45.96696" lon="3.51607">
        <ele>354.39428710938</ele>
        <time>2020-06-23T12:24:51.668Z</time>
      </trkpt>
      <trkpt lat="45.96724" lon="3.51676">
        <ele>359.53732299805</ele>
        <time>2020-06-23T12:24:55.441Z</time>
      </trkpt>
      <trkpt lat="45.96732" lon="3.5169">
        <ele>360.8874206543</ele>
        <time>2020-06-23T12:24:59.215Z</time>
      </trkpt>
      <trkpt lat="45.96741" lon="3.51701">
        <ele>362.20153808594</ele>
        <time>2020-06-23T12:25:02.991Z</time>
      </trkpt>
      <trkpt lat="45.96748" lon="3.51706">
        <ele>362.97235107422</ele>
        <time>2020-06-23T12:25:06.769Z</time>
      </trkpt>
      <trkpt lat="45.96764" lon="3.51711">
        <ele>364.01956176758</ele>
        <time>2020-06-23T12:25:10.549Z</time>
      </trkpt>
      <trkpt lat="45.96781" lon="3.51713">
        <ele>364.87930297852</ele>
        <time>2020-06-23T12:25:14.332Z</time>
      </trkpt>
      <trkpt lat="45.96808" lon="3.51713">
        <ele>365.80224609375</ele>
        <time>2020-06-23T12:25:18.119Z</time>
      </trkpt>
      <trkpt lat="45.96888" lon="3.51696">
        <ele>372.05880737305</ele>
        <time>2020-06-23T12:25:21.919Z</time>
      </trkpt>
      <trkpt lat="45.96905" lon="3.51694">
        <ele>372.32318115234</ele>
        <time>2020-06-23T12:25:25.722Z</time>
      </trkpt>
      <trkpt lat="45.96922" lon="3.51696">
        <ele>372.74014282227</ele>
        <time>2020-06-23T12:25:29.528Z</time>
      </trkpt>
      <trkpt lat="45.96931" lon="3.51699">
        <ele>372.9499206543</ele>
        <time>2020-06-23T12:25:33.335Z</time>
      </trkpt>
      <trkpt lat="45.96948" lon="3.51709">
        <ele>373.35217285156</ele>
        <time>2020-06-23T12:25:37.145Z</time>
      </trkpt>
      <trkpt lat="45.96967" lon="3.51725">
        <ele>373.81640625</ele>
        <time>2020-06-23T12:25:40.959Z</time>
      </trkpt>
      <trkpt lat="45.96992" lon="3.51742">
        <ele>372.75811767578</ele>
        <time>2020-06-23T12:25:44.777Z</time>
      </trkpt>
      <trkpt lat="45.97016" lon="3.51754">
        <ele>371.01852416992</ele>
        <time>2020-06-23T12:25:48.599Z</time>
      </trkpt>
      <trkpt lat="45.97027" lon="3.51756">
        <ele>370.21963500977</ele>
        <time>2020-06-23T12:25:52.423Z</time>
      </trkpt>
      <trkpt lat="45.97111" lon="3.51752">
        <ele>366.44940185547</ele>
        <time>2020-06-23T12:25:56.260Z</time>
      </trkpt>
      <trkpt lat="45.97129" lon="3.51754">
        <ele>365.80172729492</ele>
        <time>2020-06-23T12:26:00.100Z</time>
      </trkpt>
      <trkpt lat="45.97148" lon="3.51758">
        <ele>365.71667480469</ele>
        <time>2020-06-23T12:26:03.943Z</time>
      </trkpt>
      <trkpt lat="45.97167" lon="3.51764">
        <ele>365.78576660156</ele>
        <time>2020-06-23T12:26:07.790Z</time>
      </trkpt>
      <trkpt lat="45.97187" lon="3.51776">
        <ele>364.90255737305</ele>
        <time>2020-06-23T12:26:11.640Z</time>
      </trkpt>
      <trkpt lat="45.97207" lon="3.51795">
        <ele>362.91354370117</ele>
        <time>2020-06-23T12:26:15.494Z</time>
      </trkpt>
      <trkpt lat="45.97245" lon="3.51837">
        <ele>359.24349975586</ele>
        <time>2020-06-23T12:26:19.355Z</time>
      </trkpt>
      <trkpt lat="45.97265" lon="3.51855">
        <ele>357.77874755859</ele>
        <time>2020-06-23T12:26:23.220Z</time>
      </trkpt>
      <trkpt lat="45.97287" lon="3.51867">
        <ele>356.59429931641</ele>
        <time>2020-06-23T12:26:27.089Z</time>
      </trkpt>
      <trkpt lat="45.9731" lon="3.51875">
        <ele>356.23611450195</ele>
        <time>2020-06-23T12:26:30.962Z</time>
      </trkpt>
      <trkpt lat="45.97334" lon="3.51878">
        <ele>353.13003540039</ele>
        <time>2020-06-23T12:26:34.839Z</time>
      </trkpt>
      <trkpt lat="45.9736" lon="3.51879">
        <ele>351.6845703125</ele>
        <time>2020-06-23T12:26:38.720Z</time>
      </trkpt>
      <trkpt lat="45.97422" lon="3.51874">
        <ele>348.12680053711</ele>
        <time>2020-06-23T12:26:42.611Z</time>
      </trkpt>
      <trkpt lat="45.9751" lon="3.5186">
        <ele>341.6042175293</ele>
        <time>2020-06-23T12:26:46.516Z</time>
      </trkpt>
      <trkpt lat="45.97535" lon="3.51855">
        <ele>341.32485961914</ele>
        <time>2020-06-23T12:26:50.425Z</time>
      </trkpt>
      <trkpt lat="45.97573" lon="3.51844">
        <ele>341.97625732422</ele>
        <time>2020-06-23T12:26:54.340Z</time>
      </trkpt>
      <trkpt lat="45.97585" lon="3.51843">
        <ele>341.87872314453</ele>
        <time>2020-06-23T12:26:58.257Z</time>
      </trkpt>
      <trkpt lat="45.97597" lon="3.51845">
        <ele>341.23590087891</ele>
        <time>2020-06-23T12:27:02.176Z</time>
      </trkpt>
      <trkpt lat="45.97609" lon="3.51851">
        <ele>339.64736938477</ele>
        <time>2020-06-23T12:27:06.097Z</time>
      </trkpt>
      <trkpt lat="45.97631" lon="3.51868">
        <ele>335.40124511719</ele>
        <time>2020-06-23T12:27:10.022Z</time>
      </trkpt>
      <trkpt lat="45.97654" lon="3.51883">
        <ele>331.42678833008</ele>
        <time>2020-06-23T12:27:13.951Z</time>
      </trkpt>
      <trkpt lat="45.97678" lon="3.51895">
        <ele>327.56423950195</ele>
        <time>2020-06-23T12:27:17.884Z</time>
      </trkpt>
      <trkpt lat="45.977" lon="3.51905">
        <ele>323.83746337891</ele>
        <time>2020-06-23T12:27:21.821Z</time>
      </trkpt>
      <trkpt lat="45.97712" lon="3.51907">
        <ele>321.74691772461</ele>
        <time>2020-06-23T12:27:25.760Z</time>
      </trkpt>
      <trkpt lat="45.97723" lon="3.51905">
        <ele>319.95724487305</ele>
        <time>2020-06-23T12:27:29.701Z</time>
      </trkpt>
      <trkpt lat="45.97778" lon="3.5189">
        <ele>315.78796386719</ele>
        <time>2020-06-23T12:27:33.651Z</time>
      </trkpt>
      <trkpt lat="45.9778" lon="3.51898">
        <ele>315.29699707031</ele>
        <time>2020-06-23T12:27:37.601Z</time>
      </trkpt>
      <trkpt lat="45.97775" lon="3.51905">
        <ele>315.53256225586</ele>
        <time>2020-06-23T12:27:41.553Z</time>
      </trkpt>
      <trkpt lat="45.97742" lon="3.51943">
        <ele>315.55703735352</ele>
        <time>2020-06-23T12:27:45.511Z</time>
      </trkpt>
      <trkpt lat="45.97733" lon="3.51952">
        <ele>315.82165527344</ele>
        <time>2020-06-23T12:27:49.471Z</time>
      </trkpt>
      <trkpt lat="45.97698" lon="3.51976">
        <ele>316.25985717773</ele>
        <time>2020-06-23T12:27:53.437Z</time>
      </trkpt>
      <trkpt lat="45.9769" lon="3.51984">
        <ele>316.24041748047</ele>
        <time>2020-06-23T12:27:57.405Z</time>
      </trkpt>
      <trkpt lat="45.97684" lon="3.51993">
        <ele>315.71826171875</ele>
        <time>2020-06-23T12:28:01.374Z</time>
      </trkpt>
      <trkpt lat="45.97677" lon="3.5203">
        <ele>313.98666381836</ele>
        <time>2020-06-23T12:28:05.348Z</time>
      </trkpt>
      <trkpt lat="45.97669" lon="3.52054">
        <ele>313.99639892578</ele>
        <time>2020-06-23T12:28:09.325Z</time>
      </trkpt>
      <trkpt lat="45.97662" lon="3.52072">
        <ele>314.26400756836</ele>
        <time>2020-06-23T12:28:13.304Z</time>
      </trkpt>
      <trkpt lat="45.97644" lon="3.521">
        <ele>314.90875244141</ele>
        <time>2020-06-23T12:28:17.287Z</time>
      </trkpt>
      <trkpt lat="45.97641" lon="3.52108">
        <ele>315.11187744141</ele>
        <time>2020-06-23T12:28:21.271Z</time>
      </trkpt>
      <trkpt lat="45.97635" lon="3.52142">
        <ele>316.30258178711</ele>
        <time>2020-06-23T12:28:25.259Z</time>
      </trkpt>
      <trkpt lat="45.97633" lon="3.52179">
        <ele>316.56167602539</ele>
        <time>2020-06-23T12:28:29.251Z</time>
      </trkpt>
      <trkpt lat="45.97644" lon="3.52264">
        <ele>316.59136962891</ele>
        <time>2020-06-23T12:28:33.253Z</time>
      </trkpt>
      <trkpt lat="45.97658" lon="3.52323">
        <ele>319.75918579102</ele>
        <time>2020-06-23T12:28:37.262Z</time>
      </trkpt>
      <trkpt lat="45.97665" lon="3.52339">
        <ele>321.05871582031</ele>
        <time>2020-06-23T12:28:41.273Z</time>
      </trkpt>
      <trkpt lat="45.97717" lon="3.52423">
        <ele>325.42694091797</ele>
        <time>2020-06-23T12:28:45.296Z</time>
      </trkpt>
      <trkpt lat="45.97763" lon="3.52501">
        <ele>340.36669921875</ele>
        <time>2020-06-23T12:28:49.331Z</time>
      </trkpt>
      <trkpt lat="45.97798" lon="3.52547">
        <ele>342.22152709961</ele>
        <time>2020-06-23T12:28:53.373Z</time>
      </trkpt>
      <trkpt lat="45.97822" lon="3.52582">
        <ele>339.66845703125</ele>
        <time>2020-06-23T12:28:57.421Z</time>
      </trkpt>
      <trkpt lat="45.97837" lon="3.52596">
        <ele>339.58438110352</ele>
        <time>2020-06-23T12:29:01.472Z</time>
      </trkpt>
      <trkpt lat="45.97876" lon="3.52629">
        <ele>339.90896606445</ele>
        <time>2020-06-23T12:29:05.530Z</time>
      </trkpt>
      <trkpt lat="45.97893" lon="3.52652">
        <ele>338.20016479492</ele>
        <time>2020-06-23T12:29:09.592Z</time>
      </trkpt>
      <trkpt lat="45.97904" lon="3.52673">
        <ele>335.45812988281</ele>
        <time>2020-06-23T12:29:13.657Z</time>
      </trkpt>
      <trkpt lat="45.97924" lon="3.52704">
        <ele>339.60955810547</ele>
        <time>2020-06-23T12:29:17.726Z</time>
      </trkpt>
      <trkpt lat="45.97943" lon="3.52721">
        <ele>345.05200195312</ele>
        <time>2020-06-23T12:29:21.799Z</time>
      </trkpt>
      <trkpt lat="45.97959" lon="3.52728">
        <ele>348.19610595703</ele>
        <time>2020-06-23T12:29:25.875Z</time>
      </trkpt>
      <trkpt lat="45.9797" lon="3.52727">
        <ele>349.3141784668</ele>
        <time>2020-06-23T12:29:29.952Z</time>
      </trkpt>
      <trkpt lat="45.97989" lon="3.52712">
        <ele>347.86822509766</ele>
        <time>2020-06-23T12:29:34.033Z</time>
      </trkpt>
      <trkpt lat="45.98001" lon="3.52683">
        <ele>342.18499755859</ele>
        <time>2020-06-23T12:29:38.118Z</time>
      </trkpt>
      <trkpt lat="45.98008" lon="3.5266">
        <ele>346.45071411133</ele>
        <time>2020-06-23T12:29:42.205Z</time>
      </trkpt>
      <trkpt lat="45.9802" lon="3.52644">
        <ele>349.5100402832</ele>
        <time>2020-06-23T12:29:46.295Z</time>
      </trkpt>
      <trkpt lat="45.98036" lon="3.52634">
        <ele>348.22360229492</ele>
        <time>2020-06-23T12:29:50.388Z</time>
      </trkpt>
      <trkpt lat="45.98056" lon="3.52639">
        <ele>345.81182861328</ele>
        <time>2020-06-23T12:29:54.484Z</time>
      </trkpt>
      <trkpt lat="45.98122" lon="3.527">
        <ele>342.07110595703</ele>
        <time>2020-06-23T12:29:58.593Z</time>
      </trkpt>
      <trkpt lat="45.98161" lon="3.5274">
        <ele>340.48529052734</ele>
        <time>2020-06-23T12:30:02.709Z</time>
      </trkpt>
      <trkpt lat="45.982" lon="3.52775">
        <ele>338.27008056641</ele>
        <time>2020-06-23T12:30:06.833Z</time>
      </trkpt>
      <trkpt lat="45.9825" lon="3.5281">
        <ele>342.57672119141</ele>
        <time>2020-06-23T12:30:10.966Z</time>
      </trkpt>
      <trkpt lat="45.98289" lon="3.52828">
        <ele>349.15936279297</ele>
        <time>2020-06-23T12:30:15.105Z</time>
      </trkpt>
      <trkpt lat="45.9831" lon="3.52841">
        <ele>354.41220092773</ele>
        <time>2020-06-23T12:30:19.248Z</time>
      </trkpt>
      <trkpt lat="45.98328" lon="3.52866">
        <ele>352.99719238281</ele>
        <time>2020-06-23T12:30:23.395Z</time>
      </trkpt>
      <trkpt lat="45.9834" lon="3.52891">
        <ele>349.44332885742</ele>
        <time>2020-06-23T12:30:27.545Z</time>
      </trkpt>
      <trkpt lat="45.98352" lon="3.52905">
        <ele>348.18222045898</ele>
        <time>2020-06-23T12:30:31.698Z</time>
      </trkpt>
      <trkpt lat="45.98368" lon="3.5292">
        <ele>346.93692016602</ele>
        <time>2020-06-23T12:30:35.854Z</time>
      </trkpt>
      <trkpt lat="45.98391" lon="3.52934">
        <ele>346.01388549805</ele>
        <time>2020-06-23T12:30:40.014Z</time>
      </trkpt>
      <trkpt lat="45.98413" lon="3.52937">
        <ele>347.62197875977</ele>
        <time>2020-06-23T12:30:44.177Z</time>
      </trkpt>
      <trkpt lat="45.98452" lon="3.52936">
        <ele>350.94488525391</ele>
        <time>2020-06-23T12:30:48.347Z</time>
      </trkpt>
      <trkpt lat="45.98487" lon="3.52939">
        <ele>353.34423828125</ele>
        <time>2020-06-23T12:30:52.522Z</time>
      </trkpt>
      <trkpt lat="45.98527" lon="3.52953">
        <ele>354.94314575195</ele>
        <time>2020-06-23T12:30:56.704Z</time>
      </trkpt>
      <trkpt lat="45.98569" lon="3.52986">
        <ele>353.86590576172</ele>
        <time>2020-06-23T12:31:00.893Z</time>
      </trkpt>
      <trkpt lat="45.98614" lon="3.53028">
        <ele>353.93063354492</ele>
        <time>2020-06-23T12:31:05.091Z</time>
      </trkpt>
      <trkpt lat="45.98639" lon="3.53045">
        <ele>355.93774414062</ele>
        <time>2020-06-23T12:31:09.293Z</time>
      </trkpt>
      <trkpt lat="45.98663" lon="3.53055">
        <ele>356.78796386719</ele>
        <time>2020-06-23T12:31:13.499Z</time>
      </trkpt>
      <trkpt lat="45.98684" lon="3.53071">
        <ele>356.39584350586</ele>
        <time>2020-06-23T12:31:17.709Z</time>
      </trkpt>
      <trkpt lat="45.98743" lon="3.53107">
        <ele>359.80554199219</ele>
        <time>2020-06-23T12:31:21.930Z</time>
      </trkpt>
      <trkpt lat="45.98754" lon="3.53115">
        <ele>360.95440673828</ele>
        <time>2020-06-23T12:31:26.153Z</time>
      </trkpt>
      <trkpt lat="45.98772" lon="3.53135">
        <ele>361.40896606445</ele>
        <time>2020-06-23T12:31:30.379Z</time>
      </trkpt>
      <trkpt lat="45.98779" lon="3.53145">
        <ele>360.95523071289</ele>
        <time>2020-06-23T12:31:34.607Z</time>
      </trkpt>
      <trkpt lat="45.98824" lon="3.53246">
        <ele>360.79153442383</ele>
        <time>2020-06-23T12:31:38.848Z</time>
      </trkpt>
      <trkpt lat="45.98832" lon="3.53269">
        <ele>361.51452636719</ele>
        <time>2020-06-23T12:31:43.092Z</time>
      </trkpt>
      <trkpt lat="45.98848" lon="3.53345">
        <ele>364.95565795898</ele>
        <time>2020-06-23T12:31:47.345Z</time>
      </trkpt>
      <trkpt lat="45.98851" lon="3.53397">
        <ele>363.45385742188</ele>
        <time>2020-06-23T12:31:51.604Z</time>
      </trkpt>
      <trkpt lat="45.98852" lon="3.53484">
        <ele>365.24578857422</ele>
        <time>2020-06-23T12:31:55.872Z</time>
      </trkpt>
      <trkpt lat="45.98853" lon="3.53508">
        <ele>365.51007080078</ele>
        <time>2020-06-23T12:32:00.143Z</time>
      </trkpt>
      <trkpt lat="45.98856" lon="3.53522">
        <ele>366.25680541992</ele>
        <time>2020-06-23T12:32:04.416Z</time>
      </trkpt>
      <trkpt lat="45.9887" lon="3.53566">
        <ele>370.83657836914</ele>
        <time>2020-06-23T12:32:08.694Z</time>
      </trkpt>
      <trkpt lat="45.98891" lon="3.53666">
        <ele>369.68258666992</ele>
        <time>2020-06-23T12:32:12.984Z</time>
      </trkpt>
      <trkpt lat="45.98905" lon="3.53691">
        <ele>371.34075927734</ele>
        <time>2020-06-23T12:32:17.277Z</time>
      </trkpt>
      <trkpt lat="45.9892" lon="3.53704">
        <ele>373.94815063477</ele>
        <time>2020-06-23T12:32:21.573Z</time>
      </trkpt>
      <trkpt lat="45.98951" lon="3.53723">
        <ele>381.07888793945</ele>
        <time>2020-06-23T12:32:25.874Z</time>
      </trkpt>
      <trkpt lat="45.98969" lon="3.53737">
        <ele>384.58450317383</ele>
        <time>2020-06-23T12:32:30.179Z</time>
      </trkpt>
      <trkpt lat="45.98977" lon="3.53746">
        <ele>385.40643310547</ele>
        <time>2020-06-23T12:32:34.485Z</time>
      </trkpt>
      <trkpt lat="45.98987" lon="3.53763">
        <ele>384.67370605469</ele>
        <time>2020-06-23T12:32:38.794Z</time>
      </trkpt>
      <trkpt lat="45.98995" lon="3.5379">
        <ele>384.06692504883</ele>
        <time>2020-06-23T12:32:43.106Z</time>
      </trkpt>
      <trkpt lat="45.98998" lon="3.5381">
        <ele>382.58639526367</ele>
        <time>2020-06-23T12:32:47.420Z</time>
      </trkpt>
      <trkpt lat="45.98998" lon="3.53848">
        <ele>378.11703491211</ele>
        <time>2020-06-23T12:32:51.739Z</time>
      </trkpt>
      <trkpt lat="45.98995" lon="3.53878">
        <ele>374.90994262695</ele>
        <time>2020-06-23T12:32:56.061Z</time>
      </trkpt>
      <trkpt lat="45.98983" lon="3.5392">
        <ele>370.69049072266</ele>
        <time>2020-06-23T12:33:00.388Z</time>
      </trkpt>
      <trkpt lat="45.98971" lon="3.53945">
        <ele>368.529296875</ele>
        <time>2020-06-23T12:33:04.718Z</time>
      </trkpt>
      <trkpt lat="45.98963" lon="3.53955">
        <ele>368.65661621094</ele>
        <time>2020-06-23T12:33:09.050Z</time>
      </trkpt>
      <trkpt lat="45.98944" lon="3.53969">
        <ele>368.30303955078</ele>
        <time>2020-06-23T12:33:13.386Z</time>
      </trkpt>
      <trkpt lat="45.98907" lon="3.53988">
        <ele>368.87295532227</ele>
        <time>2020-06-23T12:33:17.728Z</time>
      </trkpt>
      <trkpt lat="45.98881" lon="3.54007">
        <ele>373.16134643555</ele>
        <time>2020-06-23T12:33:22.075Z</time>
      </trkpt>
      <trkpt lat="45.98855" lon="3.54021">
        <ele>371.19781494141</ele>
        <time>2020-06-23T12:33:26.426Z</time>
      </trkpt>
      <trkpt lat="45.98837" lon="3.54034">
        <ele>374.77133178711</ele>
        <time>2020-06-23T12:33:30.780Z</time>
      </trkpt>
      <trkpt lat="45.98818" lon="3.54055">
        <ele>376.51000976562</ele>
        <time>2020-06-23T12:33:35.138Z</time>
      </trkpt>
      <trkpt lat="45.98804" lon="3.54076">
        <ele>379.37875366211</ele>
        <time>2020-06-23T12:33:39.499Z</time>
      </trkpt>
      <trkpt lat="45.98778" lon="3.54105">
        <ele>381.37615966797</ele>
        <time>2020-06-23T12:33:43.866Z</time>
      </trkpt>
      <trkpt lat="45.98713" lon="3.54166">
        <ele>385.72280883789</ele>
        <time>2020-06-23T12:33:48.245Z</time>
      </trkpt>
      <trkpt lat="45.98695" lon="3.54194">
        <ele>387.11227416992</ele>
        <time>2020-06-23T12:33:52.628Z</time>
      </trkpt>
      <trkpt lat="45.98684" lon="3.54243">
        <ele>396.56985473633</ele>
        <time>2020-06-23T12:33:57.017Z</time>
      </trkpt>
      <trkpt lat="45.98684" lon="3.54272">
        <ele>397.68832397461</ele>
        <time>2020-06-23T12:34:01.409Z</time>
      </trkpt>
      <trkpt lat="45.98686" lon="3.54286">
        <ele>399.73233032227</ele>
        <time>2020-06-23T12:34:05.803Z</time>
      </trkpt>
      <trkpt lat="45.98693" lon="3.5431">
        <ele>404.37155151367</ele>
        <time>2020-06-23T12:34:10.200Z</time>
      </trkpt>
      <trkpt lat="45.98695" lon="3.54333">
        <ele>406.44631958008</ele>
        <time>2020-06-23T12:34:14.599Z</time>
      </trkpt>
      <trkpt lat="45.98692" lon="3.54359">
        <ele>405.80303955078</ele>
        <time>2020-06-23T12:34:19.001Z</time>
      </trkpt>
      <trkpt lat="45.98683" lon="3.54397">
        <ele>403.16796875</ele>
        <time>2020-06-23T12:34:23.408Z</time>
      </trkpt>
      <trkpt lat="45.98675" lon="3.54453">
        <ele>400.85488891602</ele>
        <time>2020-06-23T12:34:27.821Z</time>
      </trkpt>
      <trkpt lat="45.98677" lon="3.54476">
        <ele>401.35668945312</ele>
        <time>2020-06-23T12:34:32.237Z</time>
      </trkpt>
      <trkpt lat="45.98683" lon="3.545">
        <ele>403.4973449707</ele>
        <time>2020-06-23T12:34:36.656Z</time>
      </trkpt>
      <trkpt lat="45.98687" lon="3.54529">
        <ele>406.13702392578</ele>
        <time>2020-06-23T12:34:41.078Z</time>
      </trkpt>
      <trkpt lat="45.98678" lon="3.54564">
        <ele>406.73095703125</ele>
        <time>2020-06-23T12:34:45.504Z</time>
      </trkpt>
      <trkpt lat="45.9867" lon="3.54578">
        <ele>405.22467041016</ele>
        <time>2020-06-23T12:34:49.932Z</time>
      </trkpt>
      <trkpt lat="45.98657" lon="3.54589">
        <ele>401.29696655273</ele>
        <time>2020-06-23T12:34:54.363Z</time>
      </trkpt>
      <trkpt lat="45.98627" lon="3.54589">
        <ele>397.32659912109</ele>
        <time>2020-06-23T12:34:58.798Z</time>
      </trkpt>
      <trkpt lat="45.98607" lon="3.54595">
        <ele>395.26217651367</ele>
        <time>2020-06-23T12:35:03.237Z</time>
      </trkpt>
      <trkpt lat="45.98599" lon="3.54599">
        <ele>394.17807006836</ele>
        <time>2020-06-23T12:35:07.677Z</time>
      </trkpt>
      <trkpt lat="45.98589" lon="3.54609">
        <ele>396.7067565918</ele>
        <time>2020-06-23T12:35:12.119Z</time>
      </trkpt>
      <trkpt lat="45.98573" lon="3.54631">
        <ele>402.21081542969</ele>
        <time>2020-06-23T12:35:16.564Z</time>
      </trkpt>
      <trkpt lat="45.98561" lon="3.54657">
        <ele>406.35412597656</ele>
        <time>2020-06-23T12:35:21.013Z</time>
      </trkpt>
      <trkpt lat="45.98545" lon="3.54677">
        <ele>410.68969726562</ele>
        <time>2020-06-23T12:35:25.465Z</time>
      </trkpt>
      <trkpt lat="45.98533" lon="3.54688">
        <ele>409.44561767578</ele>
        <time>2020-06-23T12:35:29.920Z</time>
      </trkpt>
      <trkpt lat="45.9851" lon="3.54702">
        <ele>409.75463867188</ele>
        <time>2020-06-23T12:35:34.379Z</time>
      </trkpt>
      <trkpt lat="45.98483" lon="3.54722">
        <ele>408.60717773438</ele>
        <time>2020-06-23T12:35:38.843Z</time>
      </trkpt>
      <trkpt lat="45.98451" lon="3.54764">
        <ele>413.45791625977</ele>
        <time>2020-06-23T12:35:43.314Z</time>
      </trkpt>
      <trkpt lat="45.98435" lon="3.54779">
        <ele>414.59893798828</ele>
        <time>2020-06-23T12:35:47.788Z</time>
      </trkpt>
      <trkpt lat="45.98421" lon="3.5479">
        <ele>415.66693115234</ele>
        <time>2020-06-23T12:35:52.264Z</time>
      </trkpt>
      <trkpt lat="45.98414" lon="3.54799">
        <ele>415.57122802734</ele>
        <time>2020-06-23T12:35:56.742Z</time>
      </trkpt>
      <trkpt lat="45.98408" lon="3.54817">
        <ele>414.76419067383</ele>
        <time>2020-06-23T12:36:01.222Z</time>
      </trkpt>
      <trkpt lat="45.98407" lon="3.54823">
        <ele>415.20626831055</ele>
        <time>2020-06-23T12:36:05.703Z</time>
      </trkpt>
      <trkpt lat="45.9841" lon="3.54857">
        <ele>419.37805175781</ele>
        <time>2020-06-23T12:36:10.187Z</time>
      </trkpt>
      <trkpt lat="45.98419" lon="3.5489">
        <ele>426.59777832031</ele>
        <time>2020-06-23T12:36:14.675Z</time>
      </trkpt>
      <trkpt lat="45.98421" lon="3.54911">
        <ele>428.30639648438</ele>
        <time>2020-06-23T12:36:19.166Z</time>
      </trkpt>
      <trkpt lat="45.9842" lon="3.54918">
        <ele>428.39831542969</ele>
        <time>2020-06-23T12:36:23.657Z</time>
      </trkpt>
      <trkpt lat="45.98411" lon="3.54956">
        <ele>425.53088378906</ele>
        <time>2020-06-23T12:36:28.153Z</time>
      </trkpt>
      <trkpt lat="45.9841" lon="3.54968">
        <ele>426.00735473633</ele>
        <time>2020-06-23T12:36:32.650Z</time>
      </trkpt>
      <trkpt lat="45.98425" lon="3.55025">
        <ele>435.80813598633</ele>
        <time>2020-06-23T12:36:37.154Z</time>
      </trkpt>
      <trkpt lat="45.98423" lon="3.55049">
        <ele>434.06915283203</ele>
        <time>2020-06-23T12:36:41.661Z</time>
      </trkpt>
      <trkpt lat="45.9842" lon="3.5506">
        <ele>433.75100708008</ele>
        <time>2020-06-23T12:36:46.169Z</time>
      </trkpt>
      <trkpt lat="45.9842" lon="3.55079">
        <ele>434.99810791016</ele>
        <time>2020-06-23T12:36:50.679Z</time>
      </trkpt>
      <trkpt lat="45.98449" lon="3.55148">
        <ele>439.8938293457</ele>
        <time>2020-06-23T12:36:55.198Z</time>
      </trkpt>
      <trkpt lat="45.98451" lon="3.55187">
        <ele>439.25625610352</ele>
        <time>2020-06-23T12:36:59.722Z</time>
      </trkpt>
      <trkpt lat="45.98439" lon="3.55236">
        <ele>434.57977294922</ele>
        <time>2020-06-23T12:37:04.251Z</time>
      </trkpt>
      <trkpt lat="45.98438" lon="3.5525">
        <ele>435.7297668457</ele>
        <time>2020-06-23T12:37:08.782Z</time>
      </trkpt>
      <trkpt lat="45.98443" lon="3.55282">
        <ele>436.22250366211</ele>
        <time>2020-06-23T12:37:13.317Z</time>
      </trkpt>
      <trkpt lat="45.98458" lon="3.55323">
        <ele>433.54675292969</ele>
        <time>2020-06-23T12:37:17.857Z</time>
      </trkpt>
      <trkpt lat="45.98462" lon="3.55328">
        <ele>433.28598022461</ele>
        <time>2020-06-23T12:37:22.398Z</time>
      </trkpt>
      <trkpt lat="45.98476" lon="3.55341">
        <ele>433.05844116211</ele>
        <time>2020-06-23T12:37:26.941Z</time>
      </trkpt>
      <trkpt lat="45.98492" lon="3.55339">
        <ele>436.20816040039</ele>
        <time>2020-06-23T12:37:31.487Z</time>
      </trkpt>
      <trkpt lat="45.98503" lon="3.55341">
        <ele>438.27188110352</ele>
        <time>2020-06-23T12:37:36.035Z</time>
      </trkpt>
      <trkpt lat="45.98538" lon="3.55352">
        <ele>443.88204956055</ele>
        <time>2020-06-23T12:37:40.588Z</time>
      </trkpt>
      <trkpt lat="45.98553" lon="3.55362">
        <ele>445.57174682617</ele>
        <time>2020-06-23T12:37:45.144Z</time>
      </trkpt>
      <trkpt lat="45.98561" lon="3.55376">
        <ele>445.99389648438</ele>
        <time>2020-06-23T12:37:49.702Z</time>
      </trkpt>
      <trkpt lat="45.9856" lon="3.55388">
        <ele>444.32922363281</ele>
        <time>2020-06-23T12:37:54.261Z</time>
      </trkpt>
      <trkpt lat="45.98545" lon="3.55435">
        <ele>438.02105712891</ele>
        <time>2020-06-23T12:37:58.826Z</time>
      </trkpt>
      <trkpt lat="45.98544" lon="3.55442">
        <ele>438.35531616211</ele>
        <time>2020-06-23T12:38:03.392Z</time>
      </trkpt>
      <trkpt lat="45.98548" lon="3.55462">
        <ele>439.33081054688</ele>
        <time>2020-06-23T12:38:07.960Z</time>
      </trkpt>
      <trkpt lat="45.98561" lon="3.55496">
        <ele>441.81369018555</ele>
        <time>2020-06-23T12:38:12.533Z</time>
      </trkpt>
      <trkpt lat="45.98564" lon="3.55518">
        <ele>443.71737670898</ele>
        <time>2020-06-23T12:38:17.108Z</time>
      </trkpt>
      <trkpt lat="45.98561" lon="3.55537">
        <ele>444.09350585938</ele>
        <time>2020-06-23T12:38:21.685Z</time>
      </trkpt>
      <trkpt lat="45.98551" lon="3.55573">
        <ele>446.01617431641</ele>
        <time>2020-06-23T12:38:26.267Z</time>
      </trkpt>
      <trkpt lat="45.98549" lon="3.55586">
        <ele>446.94863891602</ele>
        <time>2020-06-23T12:38:30.850Z</time>
      </trkpt>
      <trkpt lat="45.9855" lon="3.55607">
        <ele>448.17755126953</ele>
        <time>2020-06-23T12:38:35.436Z</time>
      </trkpt>
      <trkpt lat="45.98556" lon="3.55634">
        <ele>448.10354614258</ele>
        <time>2020-06-23T12:38:40.025Z</time>
      </trkpt>
      <trkpt lat="45.98566" lon="3.5566">
        <ele>450.14474487305</ele>
        <time>2020-06-23T12:38:44.617Z</time>
      </trkpt>
      <trkpt lat="45.98568" lon="3.55671">
        <ele>451.0055847168</ele>
        <time>2020-06-23T12:38:49.210Z</time>
      </trkpt>
      <trkpt lat="45.9857" lon="3.55717">
        <ele>449.34957885742</ele>
        <time>2020-06-23T12:38:53.808Z</time>
      </trkpt>
      <trkpt lat="45.98574" lon="3.55727">
        <ele>449.46221923828</ele>
        <time>2020-06-23T12:38:58.408Z</time>
      </trkpt>
      <trkpt lat="45.9858" lon="3.55735">
        <ele>449.68255615234</ele>
        <time>2020-06-23T12:39:03.009Z</time>
      </trkpt>
      <trkpt lat="45.9859" lon="3.55741">
        <ele>450.20599365234</ele>
        <time>2020-06-23T12:39:07.612Z</time>
      </trkpt>
      <trkpt lat="45.9862" lon="3.55751">
        <ele>451.93936157227</ele>
        <time>2020-06-23T12:39:12.220Z</time>
      </trkpt>
      <trkpt lat="45.98646" lon="3.55732">
        <ele>459.32781982422</ele>
        <time>2020-06-23T12:39:16.832Z</time>
      </trkpt>
      <trkpt lat="45.98665" lon="3.55727">
        <ele>459.99627685547</ele>
        <time>2020-06-23T12:39:21.447Z</time>
      </trkpt>
      <trkpt lat="45.9869" lon="3.55727">
        <ele>460.6806640625</ele>
        <time>2020-06-23T12:39:26.066Z</time>
      </trkpt>
      <trkpt lat="45.98725" lon="3.55732">
        <ele>463.69757080078</ele>
        <time>2020-06-23T12:39:30.691Z</time>
      </trkpt>
      <trkpt lat="45.98791" lon="3.55727">
        <ele>469.08450317383</ele>
        <time>2020-06-23T12:39:35.327Z</time>
      </trkpt>
      <trkpt lat="45.98825" lon="3.55726">
        <ele>472.33746337891</ele>
        <time>2020-06-23T12:39:39.968Z</time>
      </trkpt>
      <trkpt lat="45.98864" lon="3.55739">
        <ele>471.90393066406</ele>
        <time>2020-06-23T12:39:44.615Z</time>
      </trkpt>
      <trkpt lat="45.98892" lon="3.55757">
        <ele>467.66519165039</ele>
        <time>2020-06-23T12:39:49.267Z</time>
      </trkpt>
      <trkpt lat="45.98899" lon="3.55763">
        <ele>466.4020690918</ele>
        <time>2020-06-23T12:39:53.921Z</time>
      </trkpt>
      <trkpt lat="45.989" lon="3.55773">
        <ele>466.17767333984</ele>
        <time>2020-06-23T12:39:58.576Z</time>
      </trkpt>
      <trkpt lat="45.98892" lon="3.55833">
        <ele>465.1689453125</ele>
        <time>2020-06-23T12:40:03.238Z</time>
      </trkpt>
      <trkpt lat="45.98895" lon="3.55916">
        <ele>470.05673217773</ele>
        <time>2020-06-23T12:40:07.909Z</time>
      </trkpt>
      <trkpt lat="45.98899" lon="3.55947">
        <ele>472.20217895508</ele>
        <time>2020-06-23T12:40:12.583Z</time>
      </trkpt>
      <trkpt lat="45.98905" lon="3.55965">
        <ele>473.48773193359</ele>
        <time>2020-06-23T12:40:17.260Z</time>
      </trkpt>
      <trkpt lat="45.98922" lon="3.56005">
        <ele>478.05804443359</ele>
        <time>2020-06-23T12:40:21.942Z</time>
      </trkpt>
      <trkpt lat="45.98974" lon="3.56086">
        <ele>480.06561279297</ele>
        <time>2020-06-23T12:40:26.636Z</time>
      </trkpt>
      <trkpt lat="45.9899" lon="3.56102">
        <ele>479.47988891602</ele>
        <time>2020-06-23T12:40:31.333Z</time>
      </trkpt>
      <trkpt lat="45.99006" lon="3.56111">
        <ele>480.64093017578</ele>
        <time>2020-06-23T12:40:36.033Z</time>
      </trkpt>
      <trkpt lat="45.99029" lon="3.56119">
        <ele>483.23443603516</ele>
        <time>2020-06-23T12:40:40.737Z</time>
      </trkpt>
      <trkpt lat="45.99058" lon="3.56135">
        <ele>485.64559936523</ele>
        <time>2020-06-23T12:40:45.446Z</time>
      </trkpt>
      <trkpt lat="45.99071" lon="3.56146">
        <ele>486.25778198242</ele>
        <time>2020-06-23T12:40:50.157Z</time>
      </trkpt>
      <trkpt lat="45.9908" lon="3.5617">
        <ele>484.09118652344</ele>
        <time>2020-06-23T12:40:54.871Z</time>
      </trkpt>
      <trkpt lat="45.99077" lon="3.56188">
        <ele>481.26409912109</ele>
        <time>2020-06-23T12:40:59.587Z</time>
      </trkpt>
      <trkpt lat="45.99064" lon="3.56199">
        <ele>479.68395996094</ele>
        <time>2020-06-23T12:41:04.306Z</time>
      </trkpt>
      <trkpt lat="45.99029" lon="3.56204">
        <ele>475.9651184082</ele>
        <time>2020-06-23T12:41:09.030Z</time>
      </trkpt>
      <trkpt lat="45.99012" lon="3.56204">
        <ele>473.74652099609</ele>
        <time>2020-06-23T12:41:13.757Z</time>
      </trkpt>
      <trkpt lat="45.98986" lon="3.56213">
        <ele>471.15182495117</ele>
        <time>2020-06-23T12:41:18.488Z</time>
      </trkpt>
      <trkpt lat="45.98972" lon="3.56234">
        <ele>471.83673095703</ele>
        <time>2020-06-23T12:41:23.222Z</time>
      </trkpt>
      <trkpt lat="45.98972" lon="3.56254">
        <ele>473.70678710938</ele>
        <time>2020-06-23T12:41:27.959Z</time>
      </trkpt>
      <trkpt lat="45.98974" lon="3.5626">
        <ele>474.29962158203</ele>
        <time>2020-06-23T12:41:32.696Z</time>
      </trkpt>
      <trkpt lat="45.98988" lon="3.56287">
        <ele>476.51956176758</ele>
        <time>2020-06-23T12:41:37.437Z</time>
      </trkpt>
      <trkpt lat="45.99012" lon="3.56307">
        <ele>479.80212402344</ele>
        <time>2020-06-23T12:41:42.183Z</time>
      </trkpt>
      <trkpt lat="45.99029" lon="3.5633">
        <ele>481.96481323242</ele>
        <time>2020-06-23T12:41:46.932Z</time>
      </trkpt>
      <trkpt lat="45.9904" lon="3.56339">
        <ele>483.39916992188</ele>
        <time>2020-06-23T12:41:51.683Z</time>
      </trkpt>
      <trkpt lat="45.99055" lon="3.56343">
        <ele>485.53140258789</ele>
        <time>2020-06-23T12:41:56.437Z</time>
      </trkpt>
      <trkpt lat="45.99071" lon="3.56343">
        <ele>485.84246826172</ele>
        <time>2020-06-23T12:42:01.193Z</time>
      </trkpt>
      <trkpt lat="45.99098" lon="3.56338">
        <ele>485.5221862793</ele>
        <time>2020-06-23T12:42:05.954Z</time>
      </trkpt>
      <trkpt lat="45.99098" lon="3.56338">
        <ele>485.51846313477</ele>
        <time>2020-06-23T12:42:10.715Z</time>
      </trkpt>
      <trkpt lat="45.99098" lon="3.56338">
        <ele>485.51834106445</ele>
        <time>2020-06-23T12:42:15.476Z</time>
      </trkpt>
      <trkpt lat="45.99113" lon="3.56333">
        <ele>485.34820556641</ele>
        <time>2020-06-23T12:42:20.239Z</time>
      </trkpt>
      <trkpt lat="45.99132" lon="3.56322">
        <ele>486.28616333008</ele>
        <time>2020-06-23T12:42:25.005Z</time>
      </trkpt>
      <trkpt lat="45.99175" lon="3.56304">
        <ele>490.22116088867</ele>
        <time>2020-06-23T12:42:29.779Z</time>
      </trkpt>
      <trkpt lat="45.99195" lon="3.56304">
        <ele>492.25814819336</ele>
        <time>2020-06-23T12:42:34.556Z</time>
      </trkpt>
      <trkpt lat="45.99222" lon="3.56307">
        <ele>494.8620300293</ele>
        <time>2020-06-23T12:42:39.337Z</time>
      </trkpt>
      <trkpt lat="45.99257" lon="3.56304">
        <ele>498.19869995117</ele>
        <time>2020-06-23T12:42:44.124Z</time>
      </trkpt>
      <trkpt lat="45.99268" lon="3.56301">
        <ele>498.9391784668</ele>
        <time>2020-06-23T12:42:48.913Z</time>
      </trkpt>
      <trkpt lat="45.99281" lon="3.56295">
        <ele>499.72741699219</ele>
        <time>2020-06-23T12:42:53.704Z</time>
      </trkpt>
      <trkpt lat="45.99353" lon="3.56252">
        <ele>502.79803466797</ele>
        <time>2020-06-23T12:42:58.507Z</time>
      </trkpt>
      <trkpt lat="45.99395" lon="3.56235">
        <ele>504.48226928711</ele>
        <time>2020-06-23T12:43:03.317Z</time>
      </trkpt>
      <trkpt lat="45.99401" lon="3.56234">
        <ele>505.07681274414</ele>
        <time>2020-06-23T12:43:08.128Z</time>
      </trkpt>
      <trkpt lat="45.99414" lon="3.56237">
        <ele>506.14361572266</ele>
        <time>2020-06-23T12:43:12.941Z</time>
      </trkpt>
      <trkpt lat="45.99425" lon="3.56244">
        <ele>506.52337646484</ele>
        <time>2020-06-23T12:43:17.756Z</time>
      </trkpt>
      <trkpt lat="45.99434" lon="3.56262">
        <ele>505.65124511719</ele>
        <time>2020-06-23T12:43:22.574Z</time>
      </trkpt>
      <trkpt lat="45.99435" lon="3.56267">
        <ele>505.24899291992</ele>
        <time>2020-06-23T12:43:27.392Z</time>
      </trkpt>
      <trkpt lat="45.99429" lon="3.56286">
        <ele>507.2184753418</ele>
        <time>2020-06-23T12:43:32.213Z</time>
      </trkpt>
      <trkpt lat="45.99399" lon="3.56316">
        <ele>506.64419555664</ele>
        <time>2020-06-23T12:43:37.040Z</time>
      </trkpt>
      <trkpt lat="45.99376" lon="3.56344">
        <ele>507.2314453125</ele>
        <time>2020-06-23T12:43:41.871Z</time>
      </trkpt>
      <trkpt lat="45.9934" lon="3.56399">
        <ele>508.77981567383</ele>
        <time>2020-06-23T12:43:46.711Z</time>
      </trkpt>
      <trkpt lat="45.99334" lon="3.56415">
        <ele>509.67947387695</ele>
        <time>2020-06-23T12:43:51.553Z</time>
      </trkpt>
      <trkpt lat="45.99335" lon="3.56433">
        <ele>512.0322265625</ele>
        <time>2020-06-23T12:43:56.397Z</time>
      </trkpt>
      <trkpt lat="45.99341" lon="3.56449">
        <ele>513.66485595703</ele>
        <time>2020-06-23T12:44:01.243Z</time>
      </trkpt>
      <trkpt lat="45.99348" lon="3.56459">
        <ele>514.99060058594</ele>
        <time>2020-06-23T12:44:06.090Z</time>
      </trkpt>
      <trkpt lat="45.99358" lon="3.56471">
        <ele>517.06658935547</ele>
        <time>2020-06-23T12:44:10.940Z</time>
      </trkpt>
      <trkpt lat="45.99394" lon="3.56508">
        <ele>523.83996582031</ele>
        <time>2020-06-23T12:44:15.797Z</time>
      </trkpt>
      <trkpt lat="45.99414" lon="3.56526">
        <ele>525.92083740234</ele>
        <time>2020-06-23T12:44:20.657Z</time>
      </trkpt>
      <trkpt lat="45.99426" lon="3.56534">
        <ele>526.94378662109</ele>
        <time>2020-06-23T12:44:25.520Z</time>
      </trkpt>
      <trkpt lat="45.99447" lon="3.56555">
        <ele>528.38513183594</ele>
        <time>2020-06-23T12:44:30.387Z</time>
      </trkpt>
      <trkpt lat="45.99455" lon="3.56577">
        <ele>528.62243652344</ele>
        <time>2020-06-23T12:44:35.256Z</time>
      </trkpt>
      <trkpt lat="45.99456" lon="3.56595">
        <ele>527.94244384766</ele>
        <time>2020-06-23T12:44:40.127Z</time>
      </trkpt>
      <trkpt lat="45.99455" lon="3.56601">
        <ele>527.33343505859</ele>
        <time>2020-06-23T12:44:44.999Z</time>
      </trkpt>
      <trkpt lat="45.99446" lon="3.56613">
        <ele>527.23754882812</ele>
        <time>2020-06-23T12:44:49.873Z</time>
      </trkpt>
      <trkpt lat="45.99422" lon="3.56622">
        <ele>525.08978271484</ele>
        <time>2020-06-23T12:44:54.751Z</time>
      </trkpt>
      <trkpt lat="45.9941" lon="3.56633">
        <ele>524.44030761719</ele>
        <time>2020-06-23T12:44:59.631Z</time>
      </trkpt>
      <trkpt lat="45.99403" lon="3.56646">
        <ele>524.80798339844</ele>
        <time>2020-06-23T12:45:04.513Z</time>
      </trkpt>
      <trkpt lat="45.99401" lon="3.56664">
        <ele>526.27673339844</ele>
        <time>2020-06-23T12:45:09.397Z</time>
      </trkpt>
      <trkpt lat="45.99407" lon="3.56731">
        <ele>534.92407226562</ele>
        <time>2020-06-23T12:45:14.289Z</time>
      </trkpt>
      <trkpt lat="45.99404" lon="3.56751">
        <ele>537.01843261719</ele>
        <time>2020-06-23T12:45:19.183Z</time>
      </trkpt>
      <trkpt lat="45.99402" lon="3.56758">
        <ele>537.36804199219</ele>
        <time>2020-06-23T12:45:24.078Z</time>
      </trkpt>
      <trkpt lat="45.99394" lon="3.56768">
        <ele>537.47778320312</ele>
        <time>2020-06-23T12:45:28.974Z</time>
      </trkpt>
      <trkpt lat="45.99382" lon="3.56782">
        <ele>537.93566894531</ele>
        <time>2020-06-23T12:45:33.873Z</time>
      </trkpt>
      <trkpt lat="45.99361" lon="3.56814">
        <ele>539.94537353516</ele>
        <time>2020-06-23T12:45:38.777Z</time>
      </trkpt>
      <trkpt lat="45.99357" lon="3.56817">
        <ele>539.74853515625</ele>
        <time>2020-06-23T12:45:43.682Z</time>
      </trkpt>
      <trkpt lat="45.99353" lon="3.56819">
        <ele>539.58642578125</ele>
        <time>2020-06-23T12:45:48.587Z</time>
      </trkpt>
      <trkpt lat="45.99339" lon="3.56818">
        <ele>537.55297851562</ele>
        <time>2020-06-23T12:45:53.494Z</time>
      </trkpt>
      <trkpt lat="45.9932" lon="3.56809">
        <ele>532.50012207031</ele>
        <time>2020-06-23T12:45:58.405Z</time>
      </trkpt>
      <trkpt lat="45.99312" lon="3.5681">
        <ele>531.53344726562</ele>
        <time>2020-06-23T12:46:03.317Z</time>
      </trkpt>
      <trkpt lat="45.99298" lon="3.56815">
        <ele>532.25726318359</ele>
        <time>2020-06-23T12:46:08.231Z</time>
      </trkpt>
      <trkpt lat="45.99282" lon="3.56825">
        <ele>534.34503173828</ele>
        <time>2020-06-23T12:46:13.148Z</time>
      </trkpt>
      <trkpt lat="45.99274" lon="3.56836">
        <ele>535.04077148438</ele>
        <time>2020-06-23T12:46:18.067Z</time>
      </trkpt>
      <trkpt lat="45.99267" lon="3.5685">
        <ele>536.28436279297</ele>
        <time>2020-06-23T12:46:22.988Z</time>
      </trkpt>
      <trkpt lat="45.99258" lon="3.56883">
        <ele>540.45916748047</ele>
        <time>2020-06-23T12:46:27.913Z</time>
      </trkpt>
      <trkpt lat="45.99252" lon="3.56896">
        <ele>540.80047607422</ele>
        <time>2020-06-23T12:46:32.840Z</time>
      </trkpt>
      <trkpt lat="45.99244" lon="3.56908">
        <ele>540.58587646484</ele>
        <time>2020-06-23T12:46:37.768Z</time>
      </trkpt>
      <trkpt lat="45.99234" lon="3.56915">
        <ele>539.68218994141</ele>
        <time>2020-06-23T12:46:42.698Z</time>
      </trkpt>
      <trkpt lat="45.99219" lon="3.56923">
        <ele>538.77770996094</ele>
        <time>2020-06-23T12:46:47.631Z</time>
      </trkpt>
      <trkpt lat="45.99195" lon="3.56926">
        <ele>538.58068847656</ele>
        <time>2020-06-23T12:46:52.567Z</time>
      </trkpt>
      <trkpt lat="45.99182" lon="3.56933">
        <ele>538.82281494141</ele>
        <time>2020-06-23T12:46:57.506Z</time>
      </trkpt>
      <trkpt lat="45.99178" lon="3.56937">
        <ele>539.21063232422</ele>
        <time>2020-06-23T12:47:02.445Z</time>
      </trkpt>
      <trkpt lat="45.99168" lon="3.56953">
        <ele>541.47045898438</ele>
        <time>2020-06-23T12:47:07.387Z</time>
      </trkpt>
      <trkpt lat="45.9915" lon="3.57004">
        <ele>543.86199951172</ele>
        <time>2020-06-23T12:47:12.335Z</time>
      </trkpt>
      <trkpt lat="45.99138" lon="3.57026">
        <ele>544.37078857422</ele>
        <time>2020-06-23T12:47:17.286Z</time>
      </trkpt>
      <trkpt lat="45.99125" lon="3.57045">
        <ele>544.79858398438</ele>
        <time>2020-06-23T12:47:22.240Z</time>
      </trkpt>
      <trkpt lat="45.99119" lon="3.57064">
        <ele>545.69158935547</ele>
        <time>2020-06-23T12:47:27.197Z</time>
      </trkpt>
      <trkpt lat="45.99117" lon="3.57094">
        <ele>546.71295166016</ele>
        <time>2020-06-23T12:47:32.157Z</time>
      </trkpt>
      <trkpt lat="45.99121" lon="3.57131">
        <ele>547.94067382812</ele>
        <time>2020-06-23T12:47:37.121Z</time>
      </trkpt>
      <trkpt lat="45.9913" lon="3.57165">
        <ele>549.92486572266</ele>
        <time>2020-06-23T12:47:42.089Z</time>
      </trkpt>
      <trkpt lat="45.99135" lon="3.57176">
        <ele>550.87750244141</ele>
        <time>2020-06-23T12:47:47.059Z</time>
      </trkpt>
      <trkpt lat="45.99141" lon="3.57186">
        <ele>551.79522705078</ele>
        <time>2020-06-23T12:47:52.030Z</time>
      </trkpt>
      <trkpt lat="45.9915" lon="3.57193">
        <ele>552.49047851562</ele>
        <time>2020-06-23T12:47:57.003Z</time>
      </trkpt>
      <trkpt lat="45.99173" lon="3.57202">
        <ele>554.36975097656</ele>
        <time>2020-06-23T12:48:01.980Z</time>
      </trkpt>
      <trkpt lat="45.99201" lon="3.57204">
        <ele>557.01153564453</ele>
        <time>2020-06-23T12:48:06.961Z</time>
      </trkpt>
      <trkpt lat="45.99231" lon="3.5721">
        <ele>560.23583984375</ele>
        <time>2020-06-23T12:48:11.947Z</time>
      </trkpt>
      <trkpt lat="45.99243" lon="3.57223">
        <ele>562.20013427734</ele>
        <time>2020-06-23T12:48:16.935Z</time>
      </trkpt>
      <trkpt lat="45.99245" lon="3.57229">
        <ele>562.49920654297</ele>
        <time>2020-06-23T12:48:21.924Z</time>
      </trkpt>
      <trkpt lat="45.99248" lon="3.5725">
        <ele>562.35400390625</ele>
        <time>2020-06-23T12:48:26.916Z</time>
      </trkpt>
      <trkpt lat="45.99251" lon="3.57286">
        <ele>562.29296875</ele>
        <time>2020-06-23T12:48:31.912Z</time>
      </trkpt>
      <trkpt lat="45.99258" lon="3.57313">
        <ele>563.65936279297</ele>
        <time>2020-06-23T12:48:36.911Z</time>
      </trkpt>
      <trkpt lat="45.99269" lon="3.57343">
        <ele>565.59417724609</ele>
        <time>2020-06-23T12:48:41.914Z</time>
      </trkpt>
      <trkpt lat="45.99269" lon="3.57368">
        <ele>565.65802001953</ele>
        <time>2020-06-23T12:48:46.919Z</time>
      </trkpt>
      <trkpt lat="45.99255" lon="3.57399">
        <ele>563.41479492188</ele>
        <time>2020-06-23T12:48:51.928Z</time>
      </trkpt>
      <trkpt lat="45.99252" lon="3.57418">
        <ele>563.57257080078</ele>
        <time>2020-06-23T12:48:56.940Z</time>
      </trkpt>
      <trkpt lat="45.99255" lon="3.57438">
        <ele>564.89239501953</ele>
        <time>2020-06-23T12:49:01.954Z</time>
      </trkpt>
      <trkpt lat="45.99277" lon="3.5752">
        <ele>571.79083251953</ele>
        <time>2020-06-23T12:49:06.978Z</time>
      </trkpt>
      <trkpt lat="45.99285" lon="3.57537">
        <ele>572.44775390625</ele>
        <time>2020-06-23T12:49:12.004Z</time>
      </trkpt>
      <trkpt lat="45.99291" lon="3.57545">
        <ele>573.43298339844</ele>
        <time>2020-06-23T12:49:17.031Z</time>
      </trkpt>
      <trkpt lat="45.99308" lon="3.57557">
        <ele>576.54107666016</ele>
        <time>2020-06-23T12:49:22.061Z</time>
      </trkpt>
      <trkpt lat="45.99333" lon="3.57569">
        <ele>581.94183349609</ele>
        <time>2020-06-23T12:49:27.096Z</time>
      </trkpt>
      <trkpt lat="45.99347" lon="3.57582">
        <ele>584.40368652344</ele>
        <time>2020-06-23T12:49:32.133Z</time>
      </trkpt>
      <trkpt lat="45.99357" lon="3.57611">
        <ele>585.10028076172</ele>
        <time>2020-06-23T12:49:37.174Z</time>
      </trkpt>
      <trkpt lat="45.99359" lon="3.57629">
        <ele>584.73419189453</ele>
        <time>2020-06-23T12:49:42.217Z</time>
      </trkpt>
      <trkpt lat="45.99364" lon="3.57646">
        <ele>585.33319091797</ele>
        <time>2020-06-23T12:49:47.262Z</time>
      </trkpt>
      <trkpt lat="45.99389" lon="3.57687">
        <ele>589.54449462891</ele>
        <time>2020-06-23T12:49:52.313Z</time>
      </trkpt>
      <trkpt lat="45.99399" lon="3.57707">
        <ele>591.02429199219</ele>
        <time>2020-06-23T12:49:57.367Z</time>
      </trkpt>
      <trkpt lat="45.994" lon="3.57718">
        <ele>591.30987548828</ele>
        <time>2020-06-23T12:50:02.422Z</time>
      </trkpt>
      <trkpt lat="45.99399" lon="3.5773">
        <ele>591.29974365234</ele>
        <time>2020-06-23T12:50:07.478Z</time>
      </trkpt>
      <trkpt lat="45.99391" lon="3.57742">
        <ele>590.53302001953</ele>
        <time>2020-06-23T12:50:12.536Z</time>
      </trkpt>
      <trkpt lat="45.99367" lon="3.57757">
        <ele>587.35150146484</ele>
        <time>2020-06-23T12:50:17.598Z</time>
      </trkpt>
      <trkpt lat="45.99344" lon="3.57765">
        <ele>586.08319091797</ele>
        <time>2020-06-23T12:50:22.664Z</time>
      </trkpt>
      <trkpt lat="45.99307" lon="3.57784">
        <ele>585.36779785156</ele>
        <time>2020-06-23T12:50:27.736Z</time>
      </trkpt>
      <trkpt lat="45.99293" lon="3.57796">
        <ele>586.46343994141</ele>
        <time>2020-06-23T12:50:32.811Z</time>
      </trkpt>
      <trkpt lat="45.99288" lon="3.57811">
        <ele>588.50555419922</ele>
        <time>2020-06-23T12:50:37.888Z</time>
      </trkpt>
      <trkpt lat="45.99285" lon="3.57836">
        <ele>591.52655029297</ele>
        <time>2020-06-23T12:50:42.968Z</time>
      </trkpt>
      <trkpt lat="45.99288" lon="3.57855">
        <ele>593.12255859375</ele>
        <time>2020-06-23T12:50:48.050Z</time>
      </trkpt>
      <trkpt lat="45.99297" lon="3.5788">
        <ele>594.76019287109</ele>
        <time>2020-06-23T12:50:53.135Z</time>
      </trkpt>
      <trkpt lat="45.99332" lon="3.57955">
        <ele>597.02203369141</ele>
        <time>2020-06-23T12:50:58.230Z</time>
      </trkpt>
      <trkpt lat="45.99346" lon="3.57973">
        <ele>596.48040771484</ele>
        <time>2020-06-23T12:51:03.328Z</time>
      </trkpt>
      <trkpt lat="45.9937" lon="3.57992">
        <ele>596.69104003906</ele>
        <time>2020-06-23T12:51:08.430Z</time>
      </trkpt>
      <trkpt lat="45.9942" lon="3.5802">
        <ele>598.78607177734</ele>
        <time>2020-06-23T12:51:13.541Z</time>
      </trkpt>
      <trkpt lat="45.99438" lon="3.58033">
        <ele>599.48095703125</ele>
        <time>2020-06-23T12:51:18.655Z</time>
      </trkpt>
      <trkpt lat="45.99458" lon="3.58051">
        <ele>599.98870849609</ele>
        <time>2020-06-23T12:51:23.773Z</time>
      </trkpt>
      <trkpt lat="45.99482" lon="3.58068">
        <ele>601.15417480469</ele>
        <time>2020-06-23T12:51:28.895Z</time>
      </trkpt>
      <trkpt lat="45.9952" lon="3.58089">
        <ele>604.14599609375</ele>
        <time>2020-06-23T12:51:34.024Z</time>
      </trkpt>
      <trkpt lat="45.99549" lon="3.58102">
        <ele>606.70446777344</ele>
        <time>2020-06-23T12:51:39.158Z</time>
      </trkpt>
      <trkpt lat="45.99604" lon="3.58124">
        <ele>612.77581787109</ele>
        <time>2020-06-23T12:51:44.301Z</time>
      </trkpt>
      <trkpt lat="45.99633" lon="3.58127">
        <ele>617.19470214844</ele>
        <time>2020-06-23T12:51:49.449Z</time>
      </trkpt>
      <trkpt lat="45.99649" lon="3.58126">
        <ele>619.36199951172</ele>
        <time>2020-06-23T12:51:54.599Z</time>
      </trkpt>
      <trkpt lat="45.99665" lon="3.58122">
        <ele>620.92767333984</ele>
        <time>2020-06-23T12:51:59.752Z</time>
      </trkpt>
      <trkpt lat="45.99669" lon="3.58119">
        <ele>620.81103515625</ele>
        <time>2020-06-23T12:52:04.905Z</time>
      </trkpt>
      <trkpt lat="45.99695" lon="3.58087">
        <ele>620.94445800781</ele>
        <time>2020-06-23T12:52:10.064Z</time>
      </trkpt>
      <trkpt lat="45.99708" lon="3.58077">
        <ele>621.10467529297</ele>
        <time>2020-06-23T12:52:15.225Z</time>
      </trkpt>
      <trkpt lat="45.99721" lon="3.5806">
        <ele>621.61584472656</ele>
        <time>2020-06-23T12:52:20.389Z</time>
      </trkpt>
      <trkpt lat="45.9973" lon="3.58053">
        <ele>622.08502197266</ele>
        <time>2020-06-23T12:52:25.555Z</time>
      </trkpt>
      <trkpt lat="45.99752" lon="3.5804">
        <ele>623.4091796875</ele>
        <time>2020-06-23T12:52:30.724Z</time>
      </trkpt>
      <trkpt lat="45.9978" lon="3.58033">
        <ele>623.16198730469</ele>
        <time>2020-06-23T12:52:35.898Z</time>
      </trkpt>
      <trkpt lat="45.99796" lon="3.58034">
        <ele>622.95086669922</ele>
        <time>2020-06-23T12:52:41.075Z</time>
      </trkpt>
      <trkpt lat="45.99828" lon="3.58047">
        <ele>625.41046142578</ele>
        <time>2020-06-23T12:52:46.257Z</time>
      </trkpt>
      <trkpt lat="45.99831" lon="3.58046">
        <ele>625.97619628906</ele>
        <time>2020-06-23T12:52:51.439Z</time>
      </trkpt>
      <trkpt lat="45.99833" lon="3.5804">
        <ele>626.25384521484</ele>
        <time>2020-06-23T12:52:56.622Z</time>
      </trkpt>
      <trkpt lat="45.99819" lon="3.58028">
        <ele>624.36712646484</ele>
        <time>2020-06-23T12:53:01.808Z</time>
      </trkpt>
      <trkpt lat="45.99814" lon="3.58026">
        <ele>623.66772460938</ele>
        <time>2020-06-23T12:53:06.995Z</time>
      </trkpt>
      <trkpt lat="45.99787" lon="3.58024">
        <ele>623.18450927734</ele>
        <time>2020-06-23T12:53:12.186Z</time>
      </trkpt>
      <trkpt lat="45.9978" lon="3.58025">
        <ele>623.26232910156</ele>
        <time>2020-06-23T12:53:17.378Z</time>
      </trkpt>
      <trkpt lat="45.99757" lon="3.58036">
        <ele>623.39538574219</ele>
        <time>2020-06-23T12:53:22.574Z</time>
      </trkpt>
      <trkpt lat="45.99726" lon="3.5806">
        <ele>621.54364013672</ele>
        <time>2020-06-23T12:53:27.776Z</time>
      </trkpt>
      <trkpt lat="45.99681" lon="3.58102">
        <ele>620.59307861328</ele>
        <time>2020-06-23T12:53:32.986Z</time>
      </trkpt>
      <trkpt lat="45.99667" lon="3.58111">
        <ele>620.98059082031</ele>
        <time>2020-06-23T12:53:38.199Z</time>
      </trkpt>
      <trkpt lat="45.99651" lon="3.58118">
        <ele>620.61999511719</ele>
        <time>2020-06-23T12:53:43.414Z</time>
      </trkpt>
      <trkpt lat="45.99633" lon="3.58121">
        <ele>618.01373291016</ele>
        <time>2020-06-23T12:53:48.632Z</time>
      </trkpt>
      <trkpt lat="45.99617" lon="3.58119">
        <ele>615.53387451172</ele>
        <time>2020-06-23T12:53:53.853Z</time>
      </trkpt>
      <trkpt lat="45.99578" lon="3.58108">
        <ele>610.50054931641</ele>
        <time>2020-06-23T12:53:59.080Z</time>
      </trkpt>
      <trkpt lat="45.99522" lon="3.58085">
        <ele>604.78741455078</ele>
        <time>2020-06-23T12:54:04.316Z</time>
      </trkpt>
      <trkpt lat="45.99522" lon="3.58087">
        <ele>604.52642822266</ele>
        <time>2020-06-23T12:54:09.553Z</time>
      </trkpt>
      <trkpt lat="45.99543" lon="3.581">
        <ele>606.09307861328</ele>
        <time>2020-06-23T12:54:14.793Z</time>
      </trkpt>
      <trkpt lat="45.99572" lon="3.58113">
        <ele>608.85247802734</ele>
        <time>2020-06-23T12:54:20.038Z</time>
      </trkpt>
      <trkpt lat="45.99596" lon="3.58121">
        <ele>611.74816894531</ele>
        <time>2020-06-23T12:54:25.287Z</time>
      </trkpt>
      <trkpt lat="45.99608" lon="3.58124">
        <ele>613.48754882812</ele>
        <time>2020-06-23T12:54:30.538Z</time>
      </trkpt>
      <trkpt lat="45.99646" lon="3.58124">
        <ele>619.35717773438</ele>
        <time>2020-06-23T12:54:35.795Z</time>
      </trkpt>
      <trkpt lat="45.99662" lon="3.5812">
        <ele>621.04656982422</ele>
        <time>2020-06-23T12:54:41.055Z</time>
      </trkpt>
      <trkpt lat="45.99673" lon="3.58112">
        <ele>620.75115966797</ele>
        <time>2020-06-23T12:54:46.317Z</time>
      </trkpt>
      <trkpt lat="45.99688" lon="3.58096">
        <ele>620.62023925781</ele>
        <time>2020-06-23T12:54:51.582Z</time>
      </trkpt>
      <trkpt lat="45.99731" lon="3.58063">
        <ele>621.52099609375</ele>
        <time>2020-06-23T12:54:56.855Z</time>
      </trkpt>
      <trkpt lat="45.99749" lon="3.58044">
        <ele>623.29241943359</ele>
        <time>2020-06-23T12:55:02.131Z</time>
      </trkpt>
      <trkpt lat="45.99773" lon="3.58032">
        <ele>623.25091552734</ele>
        <time>2020-06-23T12:55:07.411Z</time>
      </trkpt>
      <trkpt lat="45.9979" lon="3.58031">
        <ele>623.06555175781</ele>
        <time>2020-06-23T12:55:12.694Z</time>
      </trkpt>
      <trkpt lat="45.99811" lon="3.58035">
        <ele>623.16339111328</ele>
        <time>2020-06-23T12:55:17.980Z</time>
      </trkpt>
      <trkpt lat="45.99821" lon="3.58041">
        <ele>624.51953125</ele>
        <time>2020-06-23T12:55:23.268Z</time>
      </trkpt>
      <trkpt lat="45.99832" lon="3.58057">
        <ele>625.974609375</ele>
        <time>2020-06-23T12:55:28.559Z</time>
      </trkpt>
      <trkpt lat="45.99834" lon="3.58078">
        <ele>625.97943115234</ele>
        <time>2020-06-23T12:55:33.852Z</time>
      </trkpt>
      <trkpt lat="45.99828" lon="3.58126">
        <ele>626.8388671875</ele>
        <time>2020-06-23T12:55:39.150Z</time>
      </trkpt>
      <trkpt lat="45.99814" lon="3.58184">
        <ele>628.7822265625</ele>
        <time>2020-06-23T12:55:44.455Z</time>
      </trkpt>
      <trkpt lat="45.99754" lon="3.58378">
        <ele>641.00701904297</ele>
        <time>2020-06-23T12:55:49.784Z</time>
      </trkpt>
      <trkpt lat="45.99746" lon="3.58401">
        <ele>642.83044433594</ele>
        <time>2020-06-23T12:55:55.116Z</time>
      </trkpt>
      <trkpt lat="45.99737" lon="3.58418">
        <ele>643.6513671875</ele>
        <time>2020-06-23T12:56:00.450Z</time>
      </trkpt>
      <trkpt lat="45.99708" lon="3.58458">
        <ele>642.69256591797</ele>
        <time>2020-06-23T12:56:05.791Z</time>
      </trkpt>
      <trkpt lat="45.997" lon="3.58482">
        <ele>642.70422363281</ele>
        <time>2020-06-23T12:56:11.134Z</time>
      </trkpt>
      <trkpt lat="45.99699" lon="3.58498">
        <ele>643.26861572266</ele>
        <time>2020-06-23T12:56:16.479Z</time>
      </trkpt>
      <trkpt lat="45.99701" lon="3.58519">
        <ele>644.59399414062</ele>
        <time>2020-06-23T12:56:21.827Z</time>
      </trkpt>
      <trkpt lat="45.99709" lon="3.58573">
        <ele>646.40887451172</ele>
        <time>2020-06-23T12:56:27.181Z</time>
      </trkpt>
      <trkpt lat="45.99722" lon="3.58644">
        <ele>649.70532226562</ele>
        <time>2020-06-23T12:56:32.543Z</time>
      </trkpt>
      <trkpt lat="45.99722" lon="3.58697">
        <ele>651.45672607422</ele>
        <time>2020-06-23T12:56:37.911Z</time>
      </trkpt>
      <trkpt lat="45.99719" lon="3.58731">
        <ele>653.14019775391</ele>
        <time>2020-06-23T12:56:43.283Z</time>
      </trkpt>
      <trkpt lat="45.99714" lon="3.58747">
        <ele>653.70147705078</ele>
        <time>2020-06-23T12:56:48.657Z</time>
      </trkpt>
      <trkpt lat="45.99707" lon="3.58767">
        <ele>653.78430175781</ele>
        <time>2020-06-23T12:56:54.033Z</time>
      </trkpt>
      <trkpt lat="45.99673" lon="3.58843">
        <ele>657.42797851562</ele>
        <time>2020-06-23T12:56:59.419Z</time>
      </trkpt>
      <trkpt lat="45.99665" lon="3.58872">
        <ele>658.48516845703</ele>
        <time>2020-06-23T12:57:04.809Z</time>
      </trkpt>
      <trkpt lat="45.99658" lon="3.58915">
        <ele>660.93389892578</ele>
        <time>2020-06-23T12:57:10.204Z</time>
      </trkpt>
      <trkpt lat="45.99652" lon="3.58935">
        <ele>661.83435058594</ele>
        <time>2020-06-23T12:57:15.601Z</time>
      </trkpt>
      <trkpt lat="45.99639" lon="3.58962">
        <ele>662.06134033203</ele>
        <time>2020-06-23T12:57:21.002Z</time>
      </trkpt>
      <trkpt lat="45.99627" lon="3.58981">
        <ele>661.94873046875</ele>
        <time>2020-06-23T12:57:26.406Z</time>
      </trkpt>
      <trkpt lat="45.99588" lon="3.59054">
        <ele>664.59967041016</ele>
        <time>2020-06-23T12:57:31.820Z</time>
      </trkpt>
      <trkpt lat="45.9957" lon="3.59081">
        <ele>665.99963378906</ele>
        <time>2020-06-23T12:57:37.238Z</time>
      </trkpt>
      <trkpt lat="45.99524" lon="3.59137">
        <ele>664.93762207031</ele>
        <time>2020-06-23T12:57:42.666Z</time>
      </trkpt>
      <trkpt lat="45.99476" lon="3.59193">
        <ele>662.97766113281</ele>
        <time>2020-06-23T12:57:48.104Z</time>
      </trkpt>
      <trkpt lat="45.99463" lon="3.59218">
        <ele>661.76098632812</ele>
        <time>2020-06-23T12:57:53.545Z</time>
      </trkpt>
      <trkpt lat="45.9946" lon="3.59236">
        <ele>661.30218505859</ele>
        <time>2020-06-23T12:57:58.988Z</time>
      </trkpt>
      <trkpt lat="45.99457" lon="3.59269">
        <ele>660.64959716797</ele>
        <time>2020-06-23T12:58:04.435Z</time>
      </trkpt>
      <trkpt lat="45.99438" lon="3.59364">
        <ele>657.97412109375</ele>
        <time>2020-06-23T12:58:09.893Z</time>
      </trkpt>
      <trkpt lat="45.99422" lon="3.59403">
        <ele>657.87145996094</ele>
        <time>2020-06-23T12:58:15.356Z</time>
      </trkpt>
      <trkpt lat="45.99419" lon="3.59413">
        <ele>658.14544677734</ele>
        <time>2020-06-23T12:58:20.820Z</time>
      </trkpt>
      <trkpt lat="45.99421" lon="3.59429">
        <ele>658.50256347656</ele>
        <time>2020-06-23T12:58:26.286Z</time>
      </trkpt>
      <trkpt lat="45.99422" lon="3.5943">
        <ele>658.50311279297</ele>
        <time>2020-06-23T12:58:31.752Z</time>
      </trkpt>
      <trkpt lat="45.99423" lon="3.59427">
        <ele>658.42785644531</ele>
        <time>2020-06-23T12:58:37.219Z</time>
      </trkpt>
      <trkpt lat="45.99423" lon="3.5941">
        <ele>658.02600097656</ele>
        <time>2020-06-23T12:58:42.687Z</time>
      </trkpt>
      <trkpt lat="45.99431" lon="3.59392">
        <ele>657.49835205078</ele>
        <time>2020-06-23T12:58:48.158Z</time>
      </trkpt>
      <trkpt lat="45.99428" lon="3.59398">
        <ele>657.67645263672</ele>
        <time>2020-06-23T12:58:53.630Z</time>
      </trkpt>
      <trkpt lat="45.99423" lon="3.59416">
        <ele>658.15826416016</ele>
        <time>2020-06-23T12:58:59.104Z</time>
      </trkpt>
      <trkpt lat="45.99424" lon="3.59421">
        <ele>658.29272460938</ele>
        <time>2020-06-23T12:59:04.578Z</time>
      </trkpt>
      <trkpt lat="45.99433" lon="3.59446">
        <ele>658.38244628906</ele>
        <time>2020-06-23T12:59:10.055Z</time>
      </trkpt>
      <trkpt lat="45.99443" lon="3.59463">
        <ele>658.04193115234</ele>
        <time>2020-06-23T12:59:15.535Z</time>
      </trkpt>
      <trkpt lat="45.99453" lon="3.59472">
        <ele>657.82873535156</ele>
        <time>2020-06-23T12:59:21.017Z</time>
      </trkpt>
      <trkpt lat="45.99484" lon="3.5949">
        <ele>656.21844482422</ele>
        <time>2020-06-23T12:59:26.504Z</time>
      </trkpt>
      <trkpt lat="45.99504" lon="3.5951">
        <ele>653.32849121094</ele>
        <time>2020-06-23T12:59:31.995Z</time>
      </trkpt>
      <trkpt lat="45.99513" lon="3.59524">
        <ele>652.03570556641</ele>
        <time>2020-06-23T12:59:37.488Z</time>
      </trkpt>
      <trkpt lat="45.99526" lon="3.59551">
        <ele>650.66638183594</ele>
        <time>2020-06-23T12:59:42.985Z</time>
      </trkpt>
      <trkpt lat="45.99541" lon="3.59576">
        <ele>648.93200683594</ele>
        <time>2020-06-23T12:59:48.486Z</time>
      </trkpt>
      <trkpt lat="45.99574" lon="3.59612">
        <ele>645.23370361328</ele>
        <time>2020-06-23T12:59:53.993Z</time>
      </trkpt>
      <trkpt lat="45.99596" lon="3.59631">
        <ele>642.87145996094</ele>
        <time>2020-06-23T12:59:59.504Z</time>
      </trkpt>
      <trkpt lat="45.99603" lon="3.59638">
        <ele>642.29431152344</ele>
        <time>2020-06-23T13:00:05.017Z</time>
      </trkpt>
      <trkpt lat="45.99612" lon="3.59656">
        <ele>641.92047119141</ele>
        <time>2020-06-23T13:00:10.532Z</time>
      </trkpt>
      <trkpt lat="45.99617" lon="3.59685">
        <ele>642.21502685547</ele>
        <time>2020-06-23T13:00:16.050Z</time>
      </trkpt>
      <trkpt lat="45.99617" lon="3.59694">
        <ele>641.74304199219</ele>
        <time>2020-06-23T13:00:21.570Z</time>
      </trkpt>
      <trkpt lat="45.99611" lon="3.59712">
        <ele>641.4599609375</ele>
        <time>2020-06-23T13:00:27.092Z</time>
      </trkpt>
      <trkpt lat="45.99606" lon="3.59719">
        <ele>641.70758056641</ele>
        <time>2020-06-23T13:00:32.615Z</time>
      </trkpt>
      <trkpt lat="45.99579" lon="3.59746">
        <ele>643.13842773438</ele>
        <time>2020-06-23T13:00:38.143Z</time>
      </trkpt>
      <trkpt lat="45.99573" lon="3.59755">
        <ele>643.20159912109</ele>
        <time>2020-06-23T13:00:43.672Z</time>
      </trkpt>
      <trkpt lat="45.99566" lon="3.59777">
        <ele>642.75256347656</ele>
        <time>2020-06-23T13:00:49.204Z</time>
      </trkpt>
      <trkpt lat="45.99564" lon="3.59802">
        <ele>642.33966064453</ele>
        <time>2020-06-23T13:00:54.739Z</time>
      </trkpt>
      <trkpt lat="45.99566" lon="3.59815">
        <ele>641.74609375</ele>
        <time>2020-06-23T13:01:00.275Z</time>
      </trkpt>
      <trkpt lat="45.99576" lon="3.59836">
        <ele>639.8359375</ele>
        <time>2020-06-23T13:01:05.814Z</time>
      </trkpt>
      <trkpt lat="45.996" lon="3.59855">
        <ele>636.36437988281</ele>
        <time>2020-06-23T13:01:11.358Z</time>
      </trkpt>
      <trkpt lat="45.99675" lon="3.59897">
        <ele>631.34246826172</ele>
        <time>2020-06-23T13:01:16.915Z</time>
      </trkpt>
      <trkpt lat="45.99713" lon="3.59923">
        <ele>630.00836181641</ele>
        <time>2020-06-23T13:01:22.478Z</time>
      </trkpt>
      <trkpt lat="45.99754" lon="3.59946">
        <ele>625.47088623047</ele>
        <time>2020-06-23T13:01:28.048Z</time>
      </trkpt>
      <trkpt lat="45.99764" lon="3.59953">
        <ele>624.26330566406</ele>
        <time>2020-06-23T13:01:33.620Z</time>
      </trkpt>
      <trkpt lat="45.99828" lon="3.60021">
        <ele>619.8193359375</ele>
        <time>2020-06-23T13:01:39.205Z</time>
      </trkpt>
      <trkpt lat="45.99947" lon="3.60122">
        <ele>612.51629638672</ele>
        <time>2020-06-23T13:01:44.812Z</time>
      </trkpt>
      <trkpt lat="45.99966" lon="3.60141">
        <ele>610.74249267578</ele>
        <time>2020-06-23T13:01:50.423Z</time>
      </trkpt>
      <trkpt lat="45.99997" lon="3.60189">
        <ele>608.37481689453</ele>
        <time>2020-06-23T13:01:56.041Z</time>
      </trkpt>
      <trkpt lat="46.00018" lon="3.60199">
        <ele>607.18298339844</ele>
        <time>2020-06-23T13:02:01.663Z</time>
      </trkpt>
      <trkpt lat="46.00053" lon="3.60194">
        <ele>607.25158691406</ele>
        <time>2020-06-23T13:02:07.290Z</time>
      </trkpt>
      <trkpt lat="46.00076" lon="3.60186">
        <ele>606.41705322266</ele>
        <time>2020-06-23T13:02:12.921Z</time>
      </trkpt>
      <trkpt lat="46.00133" lon="3.60173">
        <ele>602.27416992188</ele>
        <time>2020-06-23T13:02:18.561Z</time>
      </trkpt>
      <trkpt lat="46.00144" lon="3.60173">
        <ele>602.13488769531</ele>
        <time>2020-06-23T13:02:24.203Z</time>
      </trkpt>
      <trkpt lat="46.00156" lon="3.60176">
        <ele>602.43218994141</ele>
        <time>2020-06-23T13:02:29.847Z</time>
      </trkpt>
      <trkpt lat="46.00176" lon="3.6019">
        <ele>602.07269287109</ele>
        <time>2020-06-23T13:02:35.494Z</time>
      </trkpt>
      <trkpt lat="46.00225" lon="3.60234">
        <ele>599.14221191406</ele>
        <time>2020-06-23T13:02:41.151Z</time>
      </trkpt>
      <trkpt lat="46.00279" lon="3.60294">
        <ele>593.30676269531</ele>
        <time>2020-06-23T13:02:46.819Z</time>
      </trkpt>
      <trkpt lat="46.0033" lon="3.60327">
        <ele>587.62103271484</ele>
        <time>2020-06-23T13:02:52.496Z</time>
      </trkpt>
      <trkpt lat="46.0034" lon="3.60332">
        <ele>586.08416748047</ele>
        <time>2020-06-23T13:02:58.174Z</time>
      </trkpt>
      <trkpt lat="46.00364" lon="3.60334">
        <ele>583.96600341797</ele>
        <time>2020-06-23T13:03:03.856Z</time>
      </trkpt>
      <trkpt lat="46.00375" lon="3.60332">
        <ele>583.32348632812</ele>
        <time>2020-06-23T13:03:09.540Z</time>
      </trkpt>
      <trkpt lat="46.00386" lon="3.60328">
        <ele>582.33459472656</ele>
        <time>2020-06-23T13:03:15.226Z</time>
      </trkpt>
      <trkpt lat="46.00407" lon="3.60314">
        <ele>581.43615722656</ele>
        <time>2020-06-23T13:03:20.915Z</time>
      </trkpt>
      <trkpt lat="46.00434" lon="3.60284">
        <ele>580.22882080078</ele>
        <time>2020-06-23T13:03:26.610Z</time>
      </trkpt>
      <trkpt lat="46.00479" lon="3.60188">
        <ele>576.90167236328</ele>
        <time>2020-06-23T13:03:32.318Z</time>
      </trkpt>
      <trkpt lat="46.00497" lon="3.60168">
        <ele>575.32580566406</ele>
        <time>2020-06-23T13:03:38.029Z</time>
      </trkpt>
      <trkpt lat="46.00526" lon="3.60145">
        <ele>571.54388427734</ele>
        <time>2020-06-23T13:03:43.746Z</time>
      </trkpt>
      <trkpt lat="46.00535" lon="3.60135">
        <ele>571.05865478516</ele>
        <time>2020-06-23T13:03:49.465Z</time>
      </trkpt>
      <trkpt lat="46.00551" lon="3.60111">
        <ele>571.32263183594</ele>
        <time>2020-06-23T13:03:55.187Z</time>
      </trkpt>
      <trkpt lat="46.00569" lon="3.60067">
        <ele>572.78332519531</ele>
        <time>2020-06-23T13:04:00.915Z</time>
      </trkpt>
      <trkpt lat="46.00576" lon="3.60035">
        <ele>574.95837402344</ele>
        <time>2020-06-23T13:04:06.647Z</time>
      </trkpt>
      <trkpt lat="46.00576" lon="3.59988">
        <ele>575.09368896484</ele>
        <time>2020-06-23T13:04:12.384Z</time>
      </trkpt>
      <trkpt lat="46.00556" lon="3.59929">
        <ele>572.56433105469</ele>
        <time>2020-06-23T13:04:18.128Z</time>
      </trkpt>
      <trkpt lat="46.00554" lon="3.59911">
        <ele>571.03369140625</ele>
        <time>2020-06-23T13:04:23.874Z</time>
      </trkpt>
      <trkpt lat="46.00554" lon="3.59859">
        <ele>566.05065917969</ele>
        <time>2020-06-23T13:04:29.626Z</time>
      </trkpt>
      <trkpt lat="46.00546" lon="3.59829">
        <ele>564.27227783203</ele>
        <time>2020-06-23T13:04:35.382Z</time>
      </trkpt>
      <trkpt lat="46.00539" lon="3.59814">
        <ele>563.7255859375</ele>
        <time>2020-06-23T13:04:41.140Z</time>
      </trkpt>
      <trkpt lat="46.00531" lon="3.59802">
        <ele>563.47808837891</ele>
        <time>2020-06-23T13:04:46.900Z</time>
      </trkpt>
      <trkpt lat="46.00511" lon="3.5978">
        <ele>563.56982421875</ele>
        <time>2020-06-23T13:04:52.664Z</time>
      </trkpt>
      <trkpt lat="46.0048" lon="3.59755">
        <ele>564.85345458984</ele>
        <time>2020-06-23T13:04:58.433Z</time>
      </trkpt>
      <trkpt lat="46.00473" lon="3.59744">
        <ele>565.10711669922</ele>
        <time>2020-06-23T13:05:04.204Z</time>
      </trkpt>
      <trkpt lat="46.00468" lon="3.59718">
        <ele>564.59307861328</ele>
        <time>2020-06-23T13:05:09.978Z</time>
      </trkpt>
      <trkpt lat="46.00472" lon="3.59708">
        <ele>563.52380371094</ele>
        <time>2020-06-23T13:05:15.753Z</time>
      </trkpt>
      <trkpt lat="46.00478" lon="3.597">
        <ele>562.45635986328</ele>
        <time>2020-06-23T13:05:21.529Z</time>
      </trkpt>
      <trkpt lat="46.00503" lon="3.59707">
        <ele>560.88940429688</ele>
        <time>2020-06-23T13:05:27.309Z</time>
      </trkpt>
      <trkpt lat="46.00532" lon="3.59725">
        <ele>559.87780761719</ele>
        <time>2020-06-23T13:05:33.095Z</time>
      </trkpt>
      <trkpt lat="46.00542" lon="3.59735">
        <ele>559.38043212891</ele>
        <time>2020-06-23T13:05:38.883Z</time>
      </trkpt>
      <trkpt lat="46.00558" lon="3.59758">
        <ele>558.39739990234</ele>
        <time>2020-06-23T13:05:44.674Z</time>
      </trkpt>
      <trkpt lat="46.00598" lon="3.59791">
        <ele>556.04437255859</ele>
        <time>2020-06-23T13:05:50.473Z</time>
      </trkpt>
      <trkpt lat="46.00617" lon="3.59816">
        <ele>557.05804443359</ele>
        <time>2020-06-23T13:05:56.276Z</time>
      </trkpt>
      <trkpt lat="46.00629" lon="3.59825">
        <ele>556.82122802734</ele>
        <time>2020-06-23T13:06:02.081Z</time>
      </trkpt>
      <trkpt lat="46.00641" lon="3.59828">
        <ele>555.72131347656</ele>
        <time>2020-06-23T13:06:07.888Z</time>
      </trkpt>
      <trkpt lat="46.00652" lon="3.59826">
        <ele>553.75610351562</ele>
        <time>2020-06-23T13:06:13.697Z</time>
      </trkpt>
      <trkpt lat="46.00685" lon="3.59808">
        <ele>546.24945068359</ele>
        <time>2020-06-23T13:06:19.511Z</time>
      </trkpt>
      <trkpt lat="46.00708" lon="3.59793">
        <ele>543.18322753906</ele>
        <time>2020-06-23T13:06:25.329Z</time>
      </trkpt>
      <trkpt lat="46.00729" lon="3.59773">
        <ele>539.453125</ele>
        <time>2020-06-23T13:06:31.151Z</time>
      </trkpt>
      <trkpt lat="46.00759" lon="3.59737">
        <ele>531.02923583984</ele>
        <time>2020-06-23T13:06:36.980Z</time>
      </trkpt>
      <trkpt lat="46.0077" lon="3.59728">
        <ele>528.34295654297</ele>
        <time>2020-06-23T13:06:42.811Z</time>
      </trkpt>
      <trkpt lat="46.00781" lon="3.59721">
        <ele>527.27465820312</ele>
        <time>2020-06-23T13:06:48.644Z</time>
      </trkpt>
      <trkpt lat="46.00816" lon="3.59705">
        <ele>523.57946777344</ele>
        <time>2020-06-23T13:06:54.482Z</time>
      </trkpt>
      <trkpt lat="46.00838" lon="3.59689">
        <ele>523.30456542969</ele>
        <time>2020-06-23T13:07:00.324Z</time>
      </trkpt>
      <trkpt lat="46.00868" lon="3.5966">
        <ele>522.44207763672</ele>
        <time>2020-06-23T13:07:06.172Z</time>
      </trkpt>
      <trkpt lat="46.00889" lon="3.59645">
        <ele>523.3662109375</ele>
        <time>2020-06-23T13:07:12.024Z</time>
      </trkpt>
      <trkpt lat="46.00927" lon="3.59624">
        <ele>522.75933837891</ele>
        <time>2020-06-23T13:07:17.882Z</time>
      </trkpt>
      <trkpt lat="46.00944" lon="3.59614">
        <ele>522.93829345703</ele>
        <time>2020-06-23T13:07:23.743Z</time>
      </trkpt>
      <trkpt lat="46.01004" lon="3.59553">
        <ele>520.08044433594</ele>
        <time>2020-06-23T13:07:29.616Z</time>
      </trkpt>
      <trkpt lat="46.01032" lon="3.59518">
        <ele>521.37225341797</ele>
        <time>2020-06-23T13:07:35.495Z</time>
      </trkpt>
      <trkpt lat="46.01037" lon="3.59507">
        <ele>521.06298828125</ele>
        <time>2020-06-23T13:07:41.376Z</time>
      </trkpt>
      <trkpt lat="46.01044" lon="3.59483">
        <ele>520.51043701172</ele>
        <time>2020-06-23T13:07:47.260Z</time>
      </trkpt>
      <trkpt lat="46.01044" lon="3.5943">
        <ele>518.49597167969</ele>
        <time>2020-06-23T13:07:53.149Z</time>
      </trkpt>
      <trkpt lat="46.01047" lon="3.59406">
        <ele>517.51354980469</ele>
        <time>2020-06-23T13:07:59.041Z</time>
      </trkpt>
      <trkpt lat="46.01059" lon="3.59374">
        <ele>517.16027832031</ele>
        <time>2020-06-23T13:08:04.937Z</time>
      </trkpt>
      <trkpt lat="46.01088" lon="3.59309">
        <ele>514.13848876953</ele>
        <time>2020-06-23T13:08:10.842Z</time>
      </trkpt>
      <trkpt lat="46.01099" lon="3.59286">
        <ele>512.91241455078</ele>
        <time>2020-06-23T13:08:16.750Z</time>
      </trkpt>
      <trkpt lat="46.01126" lon="3.59244">
        <ele>510.65859985352</ele>
        <time>2020-06-23T13:08:22.664Z</time>
      </trkpt>
      <trkpt lat="46.0115" lon="3.5922">
        <ele>508.71081542969</ele>
        <time>2020-06-23T13:08:28.583Z</time>
      </trkpt>
      <trkpt lat="46.01159" lon="3.59214">
        <ele>507.92037963867</ele>
        <time>2020-06-23T13:08:34.504Z</time>
      </trkpt>
      <trkpt lat="46.01178" lon="3.59204">
        <ele>506.60998535156</ele>
        <time>2020-06-23T13:08:40.428Z</time>
      </trkpt>
      <trkpt lat="46.01198" lon="3.59196">
        <ele>505.53936767578</ele>
        <time>2020-06-23T13:08:46.355Z</time>
      </trkpt>
      <trkpt lat="46.01208" lon="3.59195">
        <ele>505.29406738281</ele>
        <time>2020-06-23T13:08:52.284Z</time>
      </trkpt>
      <trkpt lat="46.01229" lon="3.59201">
        <ele>506.1457824707</ele>
        <time>2020-06-23T13:08:58.216Z</time>
      </trkpt>
      <trkpt lat="46.01239" lon="3.59206">
        <ele>507.92791748047</ele>
        <time>2020-06-23T13:09:04.150Z</time>
      </trkpt>
      <trkpt lat="46.01259" lon="3.59213">
        <ele>510.43688964844</ele>
        <time>2020-06-23T13:09:10.087Z</time>
      </trkpt>
      <trkpt lat="46.0127" lon="3.59211">
        <ele>510.21252441406</ele>
        <time>2020-06-23T13:09:16.026Z</time>
      </trkpt>
      <trkpt lat="46.01289" lon="3.59198">
        <ele>507.52813720703</ele>
        <time>2020-06-23T13:09:21.968Z</time>
      </trkpt>
      <trkpt lat="46.01307" lon="3.59177">
        <ele>503.89614868164</ele>
        <time>2020-06-23T13:09:27.914Z</time>
      </trkpt>
      <trkpt lat="46.01329" lon="3.59138">
        <ele>501.21853637695</ele>
        <time>2020-06-23T13:09:33.866Z</time>
      </trkpt>
      <trkpt lat="46.01339" lon="3.59126">
        <ele>500.11392211914</ele>
        <time>2020-06-23T13:09:39.820Z</time>
      </trkpt>
      <trkpt lat="46.01369" lon="3.591">
        <ele>493.72076416016</ele>
        <time>2020-06-23T13:09:45.779Z</time>
      </trkpt>
      <trkpt lat="46.01379" lon="3.59093">
        <ele>493.8473815918</ele>
        <time>2020-06-23T13:09:51.740Z</time>
      </trkpt>
      <trkpt lat="46.01391" lon="3.59091">
        <ele>494.21786499023</ele>
        <time>2020-06-23T13:09:57.703Z</time>
      </trkpt>
      <trkpt lat="46.01415" lon="3.59096">
        <ele>492.75131225586</ele>
        <time>2020-06-23T13:10:03.670Z</time>
      </trkpt>
      <trkpt lat="46.0146" lon="3.5911">
        <ele>492.31665039062</ele>
        <time>2020-06-23T13:10:09.644Z</time>
      </trkpt>
      <trkpt lat="46.01517" lon="3.5912">
        <ele>490.9577331543</ele>
        <time>2020-06-23T13:10:15.627Z</time>
      </trkpt>
      <trkpt lat="46.01541" lon="3.59127">
        <ele>491.71621704102</ele>
        <time>2020-06-23T13:10:21.614Z</time>
      </trkpt>
      <trkpt lat="46.01553" lon="3.59131">
        <ele>492.16967773438</ele>
        <time>2020-06-23T13:10:27.603Z</time>
      </trkpt>
      <trkpt lat="46.01588" lon="3.59148">
        <ele>491.8244934082</ele>
        <time>2020-06-23T13:10:33.598Z</time>
      </trkpt>
      <trkpt lat="46.01609" lon="3.59162">
        <ele>491.87637329102</ele>
        <time>2020-06-23T13:10:39.597Z</time>
      </trkpt>
      <trkpt lat="46.01619" lon="3.59172">
        <ele>492.25531005859</ele>
        <time>2020-06-23T13:10:45.598Z</time>
      </trkpt>
      <trkpt lat="46.01625" lon="3.59184">
        <ele>493.15045166016</ele>
        <time>2020-06-23T13:10:51.601Z</time>
      </trkpt>
      <trkpt lat="46.01636" lon="3.59214">
        <ele>491.39117431641</ele>
        <time>2020-06-23T13:10:57.607Z</time>
      </trkpt>
      <trkpt lat="46.01652" lon="3.59241">
        <ele>489.2795715332</ele>
        <time>2020-06-23T13:11:03.617Z</time>
      </trkpt>
      <trkpt lat="46.0167" lon="3.59261">
        <ele>487.25939941406</ele>
        <time>2020-06-23T13:11:09.631Z</time>
      </trkpt>
      <trkpt lat="46.0169" lon="3.59332">
        <ele>480.8095703125</ele>
        <time>2020-06-23T13:11:15.653Z</time>
      </trkpt>
      <trkpt lat="46.01697" lon="3.59345">
        <ele>479.55551147461</ele>
        <time>2020-06-23T13:11:21.677Z</time>
      </trkpt>
      <trkpt lat="46.01714" lon="3.59363">
        <ele>478.19787597656</ele>
        <time>2020-06-23T13:11:27.705Z</time>
      </trkpt>
      <trkpt lat="46.01745" lon="3.59374">
        <ele>476.71087646484</ele>
        <time>2020-06-23T13:11:33.738Z</time>
      </trkpt>
      <trkpt lat="46.0177" lon="3.59378">
        <ele>476.04251098633</ele>
        <time>2020-06-23T13:11:39.775Z</time>
      </trkpt>
      <trkpt lat="46.01793" lon="3.59378">
        <ele>474.94250488281</ele>
        <time>2020-06-23T13:11:45.815Z</time>
      </trkpt>
      <trkpt lat="46.01842" lon="3.59364">
        <ele>469.1741027832</ele>
        <time>2020-06-23T13:11:51.864Z</time>
      </trkpt>
      <trkpt lat="46.01868" lon="3.59367">
        <ele>468.28530883789</ele>
        <time>2020-06-23T13:11:57.917Z</time>
      </trkpt>
      <trkpt lat="46.01879" lon="3.59376">
        <ele>467.28155517578</ele>
        <time>2020-06-23T13:12:03.972Z</time>
      </trkpt>
      <trkpt lat="46.01886" lon="3.5939">
        <ele>465.94573974609</ele>
        <time>2020-06-23T13:12:10.029Z</time>
      </trkpt>
      <trkpt lat="46.01896" lon="3.59423">
        <ele>462.66458129883</ele>
        <time>2020-06-23T13:12:16.090Z</time>
      </trkpt>
      <trkpt lat="46.019" lon="3.5946">
        <ele>460.10083007812</ele>
        <time>2020-06-23T13:12:22.155Z</time>
      </trkpt>
      <trkpt lat="46.01904" lon="3.59476">
        <ele>459.173828125</ele>
        <time>2020-06-23T13:12:28.222Z</time>
      </trkpt>
      <trkpt lat="46.01911" lon="3.59491">
        <ele>457.65106201172</ele>
        <time>2020-06-23T13:12:34.291Z</time>
      </trkpt>
      <trkpt lat="46.01929" lon="3.59514">
        <ele>453.98934936523</ele>
        <time>2020-06-23T13:12:40.364Z</time>
      </trkpt>
      <trkpt lat="46.01934" lon="3.59525">
        <ele>452.66815185547</ele>
        <time>2020-06-23T13:12:46.438Z</time>
      </trkpt>
      <trkpt lat="46.01936" lon="3.59548">
        <ele>451.06796264648</ele>
        <time>2020-06-23T13:12:52.515Z</time>
      </trkpt>
      <trkpt lat="46.01934" lon="3.59558">
        <ele>451.04501342773</ele>
        <time>2020-06-23T13:12:58.593Z</time>
      </trkpt>
      <trkpt lat="46.01904" lon="3.59578">
        <ele>449.56280517578</ele>
        <time>2020-06-23T13:13:04.676Z</time>
      </trkpt>
      <trkpt lat="46.01882" lon="3.59582">
        <ele>451.80661010742</ele>
        <time>2020-06-23T13:13:10.763Z</time>
      </trkpt>
      <trkpt lat="46.01849" lon="3.59586">
        <ele>457.46667480469</ele>
        <time>2020-06-23T13:13:16.855Z</time>
      </trkpt>
      <trkpt lat="46.01826" lon="3.59593">
        <ele>459.95266723633</ele>
        <time>2020-06-23T13:13:22.951Z</time>
      </trkpt>
      <trkpt lat="46.01805" lon="3.59604">
        <ele>460.96618652344</ele>
        <time>2020-06-23T13:13:29.050Z</time>
      </trkpt>
      <trkpt lat="46.01798" lon="3.59614">
        <ele>460.09368896484</ele>
        <time>2020-06-23T13:13:35.151Z</time>
      </trkpt>
      <trkpt lat="46.01793" lon="3.59637">
        <ele>455.95147705078</ele>
        <time>2020-06-23T13:13:41.255Z</time>
      </trkpt>
      <trkpt lat="46.01798" lon="3.59709">
        <ele>448.86734008789</ele>
        <time>2020-06-23T13:13:47.367Z</time>
      </trkpt>
      <trkpt lat="46.01795" lon="3.5973">
        <ele>452.31787109375</ele>
        <time>2020-06-23T13:13:53.481Z</time>
      </trkpt>
      <trkpt lat="46.01789" lon="3.59763">
        <ele>455.25064086914</ele>
        <time>2020-06-23T13:13:59.599Z</time>
      </trkpt>
      <trkpt lat="46.01796" lon="3.59814">
        <ele>460.35891723633</ele>
        <time>2020-06-23T13:14:05.723Z</time>
      </trkpt>
      <trkpt lat="46.01809" lon="3.59885">
        <ele>465.33602905273</ele>
        <time>2020-06-23T13:14:11.855Z</time>
      </trkpt>
      <trkpt lat="46.01813" lon="3.59912">
        <ele>467.03277587891</ele>
        <time>2020-06-23T13:14:17.990Z</time>
      </trkpt>
      <trkpt lat="46.01818" lon="3.59957">
        <ele>472.18481445312</ele>
        <time>2020-06-23T13:14:24.130Z</time>
      </trkpt>
      <trkpt lat="46.01815" lon="3.59978">
        <ele>473.30953979492</ele>
        <time>2020-06-23T13:14:30.272Z</time>
      </trkpt>
      <trkpt lat="46.01797" lon="3.60021">
        <ele>472.78778076172</ele>
        <time>2020-06-23T13:14:36.420Z</time>
      </trkpt>
      <trkpt lat="46.01775" lon="3.60051">
        <ele>470.15075683594</ele>
        <time>2020-06-23T13:14:42.573Z</time>
      </trkpt>
      <trkpt lat="46.01762" lon="3.60074">
        <ele>468.92654418945</ele>
        <time>2020-06-23T13:14:48.729Z</time>
      </trkpt>
      <trkpt lat="46.01749" lon="3.60086">
        <ele>466.02038574219</ele>
        <time>2020-06-23T13:14:54.888Z</time>
      </trkpt>
      <trkpt lat="46.01717" lon="3.60099">
        <ele>459.48794555664</ele>
        <time>2020-06-23T13:15:01.052Z</time>
      </trkpt>
      <trkpt lat="46.01704" lon="3.60113">
        <ele>458.65521240234</ele>
        <time>2020-06-23T13:15:07.218Z</time>
      </trkpt>
      <trkpt lat="46.01702" lon="3.60122">
        <ele>459.40786743164</ele>
        <time>2020-06-23T13:15:13.386Z</time>
      </trkpt>
      <trkpt lat="46.01703" lon="3.60133">
        <ele>460.75463867188</ele>
        <time>2020-06-23T13:15:19.555Z</time>
      </trkpt>
      <trkpt lat="46.01709" lon="3.60147">
        <ele>462.9123840332</ele>
        <time>2020-06-23T13:15:25.726Z</time>
      </trkpt>
      <trkpt lat="46.01719" lon="3.6016">
        <ele>465.51272583008</ele>
        <time>2020-06-23T13:15:31.899Z</time>
      </trkpt>
      <trkpt lat="46.01731" lon="3.60169">
        <ele>468.71078491211</ele>
        <time>2020-06-23T13:15:38.074Z</time>
      </trkpt>
      <trkpt lat="46.01757" lon="3.60176">
        <ele>476.35000610352</ele>
        <time>2020-06-23T13:15:44.253Z</time>
      </trkpt>
      <trkpt lat="46.01764" lon="3.6018">
        <ele>478.72958374023</ele>
        <time>2020-06-23T13:15:50.433Z</time>
      </trkpt>
      <trkpt lat="46.01767" lon="3.60184">
        <ele>479.86096191406</ele>
        <time>2020-06-23T13:15:56.614Z</time>
      </trkpt>
      <trkpt lat="46.01772" lon="3.60207">
        <ele>482.49307250977</ele>
        <time>2020-06-23T13:16:02.798Z</time>
      </trkpt>
      <trkpt lat="46.01775" lon="3.60274">
        <ele>484.82705688477</ele>
        <time>2020-06-23T13:16:08.989Z</time>
      </trkpt>
      <trkpt lat="46.01774" lon="3.60288">
        <ele>487.02462768555</ele>
        <time>2020-06-23T13:16:15.182Z</time>
      </trkpt>
      <trkpt lat="46.0177" lon="3.60309">
        <ele>489.32507324219</ele>
        <time>2020-06-23T13:16:21.377Z</time>
      </trkpt>
      <trkpt lat="46.01767" lon="3.60324">
        <ele>490.04995727539</ele>
        <time>2020-06-23T13:16:27.574Z</time>
      </trkpt>
      <trkpt lat="46.01756" lon="3.60353">
        <ele>488.90002441406</ele>
        <time>2020-06-23T13:16:33.775Z</time>
      </trkpt>
      <trkpt lat="46.01745" lon="3.60374">
        <ele>489.14810180664</ele>
        <time>2020-06-23T13:16:39.979Z</time>
      </trkpt>
      <trkpt lat="46.01729" lon="3.604">
        <ele>489.76559448242</ele>
        <time>2020-06-23T13:16:46.186Z</time>
      </trkpt>
      <trkpt lat="46.01713" lon="3.60422">
        <ele>490.6123046875</ele>
        <time>2020-06-23T13:16:52.397Z</time>
      </trkpt>
      <trkpt lat="46.01678" lon="3.60462">
        <ele>492.17904663086</ele>
        <time>2020-06-23T13:16:58.615Z</time>
      </trkpt>
      <trkpt lat="46.01664" lon="3.60474">
        <ele>491.98809814453</ele>
        <time>2020-06-23T13:17:04.836Z</time>
      </trkpt>
      <trkpt lat="46.01636" lon="3.60495">
        <ele>490.4885559082</ele>
        <time>2020-06-23T13:17:11.062Z</time>
      </trkpt>
      <trkpt lat="46.0163" lon="3.60501">
        <ele>491.16354370117</ele>
        <time>2020-06-23T13:17:17.289Z</time>
      </trkpt>
      <trkpt lat="46.01626" lon="3.60511">
        <ele>491.93240356445</ele>
        <time>2020-06-23T13:17:23.517Z</time>
      </trkpt>
      <trkpt lat="46.0162" lon="3.60536">
        <ele>492.83169555664</ele>
        <time>2020-06-23T13:17:29.748Z</time>
      </trkpt>
      <trkpt lat="46.01619" lon="3.60555">
        <ele>494.12680053711</ele>
        <time>2020-06-23T13:17:35.981Z</time>
      </trkpt>
      <trkpt lat="46.0162" lon="3.60569">
        <ele>495.78894042969</ele>
        <time>2020-06-23T13:17:42.216Z</time>
      </trkpt>
      <trkpt lat="46.01626" lon="3.60589">
        <ele>499.90707397461</ele>
        <time>2020-06-23T13:17:48.453Z</time>
      </trkpt>
      <trkpt lat="46.01638" lon="3.60601">
        <ele>505.52853393555</ele>
        <time>2020-06-23T13:17:54.693Z</time>
      </trkpt>
      <trkpt lat="46.01646" lon="3.60617">
        <ele>508.00231933594</ele>
        <time>2020-06-23T13:18:00.935Z</time>
      </trkpt>
      <trkpt lat="46.01645" lon="3.6063">
        <ele>508.07028198242</ele>
        <time>2020-06-23T13:18:07.178Z</time>
      </trkpt>
      <trkpt lat="46.01633" lon="3.60647">
        <ele>505.00930786133</ele>
        <time>2020-06-23T13:18:13.424Z</time>
      </trkpt>
      <trkpt lat="46.01601" lon="3.60679">
        <ele>498.41741943359</ele>
        <time>2020-06-23T13:18:19.676Z</time>
      </trkpt>
      <trkpt lat="46.01592" lon="3.60691">
        <ele>498.0188293457</ele>
        <time>2020-06-23T13:18:25.930Z</time>
      </trkpt>
      <trkpt lat="46.0159" lon="3.60699">
        <ele>498.73425292969</ele>
        <time>2020-06-23T13:18:32.185Z</time>
      </trkpt>
      <trkpt lat="46.01588" lon="3.6073">
        <ele>502.38479614258</ele>
        <time>2020-06-23T13:18:38.444Z</time>
      </trkpt>
      <trkpt lat="46.01595" lon="3.60807">
        <ele>508.82620239258</ele>
        <time>2020-06-23T13:18:44.711Z</time>
      </trkpt>
      <trkpt lat="46.01603" lon="3.60847">
        <ele>512.70587158203</ele>
        <time>2020-06-23T13:18:50.983Z</time>
      </trkpt>
      <trkpt lat="46.01628" lon="3.60913">
        <ele>520.01818847656</ele>
        <time>2020-06-23T13:18:57.263Z</time>
      </trkpt>
      <trkpt lat="46.01645" lon="3.60974">
        <ele>522.68646240234</ele>
        <time>2020-06-23T13:19:03.551Z</time>
      </trkpt>
      <trkpt lat="46.01644" lon="3.60985">
        <ele>521.92346191406</ele>
        <time>2020-06-23T13:19:09.840Z</time>
      </trkpt>
      <trkpt lat="46.01641" lon="3.60992">
        <ele>520.95190429688</ele>
        <time>2020-06-23T13:19:16.130Z</time>
      </trkpt>
      <trkpt lat="46.01628" lon="3.60998">
        <ele>516.97271728516</ele>
        <time>2020-06-23T13:19:22.422Z</time>
      </trkpt>
      <trkpt lat="46.01616" lon="3.61011">
        <ele>513.40533447266</ele>
        <time>2020-06-23T13:19:28.716Z</time>
      </trkpt>
      <trkpt lat="46.01615" lon="3.61033">
        <ele>512.37121582031</ele>
        <time>2020-06-23T13:19:35.013Z</time>
      </trkpt>
      <trkpt lat="46.01616" lon="3.61038">
        <ele>512.41577148438</ele>
        <time>2020-06-23T13:19:41.310Z</time>
      </trkpt>
      <trkpt lat="46.01627" lon="3.61066">
        <ele>514.23480224609</ele>
        <time>2020-06-23T13:19:47.611Z</time>
      </trkpt>
      <trkpt lat="46.01643" lon="3.61097">
        <ele>517.46734619141</ele>
        <time>2020-06-23T13:19:53.916Z</time>
      </trkpt>
      <trkpt lat="46.01656" lon="3.61114">
        <ele>519.33660888672</ele>
        <time>2020-06-23T13:20:00.224Z</time>
      </trkpt>
      <trkpt lat="46.01688" lon="3.61148">
        <ele>524.76995849609</ele>
        <time>2020-06-23T13:20:06.539Z</time>
      </trkpt>
      <trkpt lat="46.01703" lon="3.61166">
        <ele>526.99194335938</ele>
        <time>2020-06-23T13:20:12.857Z</time>
      </trkpt>
      <trkpt lat="46.01727" lon="3.61199">
        <ele>529.94476318359</ele>
        <time>2020-06-23T13:20:19.180Z</time>
      </trkpt>
      <trkpt lat="46.01733" lon="3.6121">
        <ele>530.36950683594</ele>
        <time>2020-06-23T13:20:25.504Z</time>
      </trkpt>
      <trkpt lat="46.01739" lon="3.61226">
        <ele>530.35504150391</ele>
        <time>2020-06-23T13:20:31.831Z</time>
      </trkpt>
      <trkpt lat="46.01753" lon="3.61268">
        <ele>529.5927734375</ele>
        <time>2020-06-23T13:20:38.163Z</time>
      </trkpt>
      <trkpt lat="46.01762" lon="3.61284">
        <ele>530.7958984375</ele>
        <time>2020-06-23T13:20:44.497Z</time>
      </trkpt>
      <trkpt lat="46.01776" lon="3.61298">
        <ele>533.38848876953</ele>
        <time>2020-06-23T13:20:50.834Z</time>
      </trkpt>
      <trkpt lat="46.01795" lon="3.61313">
        <ele>536.93145751953</ele>
        <time>2020-06-23T13:20:57.174Z</time>
      </trkpt>
      <trkpt lat="46.01806" lon="3.61325">
        <ele>538.93121337891</ele>
        <time>2020-06-23T13:21:03.516Z</time>
      </trkpt>
      <trkpt lat="46.01832" lon="3.61362">
        <ele>540.21746826172</ele>
        <time>2020-06-23T13:21:09.864Z</time>
      </trkpt>
      <trkpt lat="46.01864" lon="3.61401">
        <ele>540.07891845703</ele>
        <time>2020-06-23T13:21:16.219Z</time>
      </trkpt>
      <trkpt lat="46.01881" lon="3.61418">
        <ele>540.50085449219</ele>
        <time>2020-06-23T13:21:22.577Z</time>
      </trkpt>
      <trkpt lat="46.01903" lon="3.6143">
        <ele>541.15783691406</ele>
        <time>2020-06-23T13:21:28.939Z</time>
      </trkpt>
      <trkpt lat="46.01916" lon="3.61428">
        <ele>541.75482177734</ele>
        <time>2020-06-23T13:21:35.303Z</time>
      </trkpt>
      <trkpt lat="46.01933" lon="3.61421">
        <ele>543.42309570312</ele>
        <time>2020-06-23T13:21:41.670Z</time>
      </trkpt>
      <trkpt lat="46.01952" lon="3.6141">
        <ele>545.52270507812</ele>
        <time>2020-06-23T13:21:48.040Z</time>
      </trkpt>
      <trkpt lat="46.01965" lon="3.61407">
        <ele>546.33026123047</ele>
        <time>2020-06-23T13:21:54.412Z</time>
      </trkpt>
      <trkpt lat="46.01985" lon="3.6141">
        <ele>547.09527587891</ele>
        <time>2020-06-23T13:22:00.788Z</time>
      </trkpt>
      <trkpt lat="46.02" lon="3.61415">
        <ele>547.7490234375</ele>
        <time>2020-06-23T13:22:07.166Z</time>
      </trkpt>
      <trkpt lat="46.02015" lon="3.61422">
        <ele>548.10314941406</ele>
        <time>2020-06-23T13:22:13.547Z</time>
      </trkpt>
      <trkpt lat="46.02033" lon="3.61441">
        <ele>547.80004882812</ele>
        <time>2020-06-23T13:22:19.931Z</time>
      </trkpt>
      <trkpt lat="46.02048" lon="3.61491">
        <ele>548.4111328125</ele>
        <time>2020-06-23T13:22:26.321Z</time>
      </trkpt>
      <trkpt lat="46.02063" lon="3.61523">
        <ele>549.25805664062</ele>
        <time>2020-06-23T13:22:32.716Z</time>
      </trkpt>
      <trkpt lat="46.02072" lon="3.61537">
        <ele>549.59875488281</ele>
        <time>2020-06-23T13:22:39.113Z</time>
      </trkpt>
      <trkpt lat="46.02097" lon="3.61563">
        <ele>551.03887939453</ele>
        <time>2020-06-23T13:22:45.515Z</time>
      </trkpt>
      <trkpt lat="46.02128" lon="3.61583">
        <ele>553.34259033203</ele>
        <time>2020-06-23T13:22:51.922Z</time>
      </trkpt>
      <trkpt lat="46.02142" lon="3.6159">
        <ele>554.56896972656</ele>
        <time>2020-06-23T13:22:58.332Z</time>
      </trkpt>
      <trkpt lat="46.02265" lon="3.61636">
        <ele>563.04638671875</ele>
        <time>2020-06-23T13:23:04.762Z</time>
      </trkpt>
      <trkpt lat="46.02268" lon="3.61638">
        <ele>563.22399902344</ele>
        <time>2020-06-23T13:23:11.192Z</time>
      </trkpt>
      <trkpt lat="46.02279" lon="3.61652">
        <ele>563.65502929688</ele>
        <time>2020-06-23T13:23:17.625Z</time>
      </trkpt>
      <trkpt lat="46.02282" lon="3.61662">
        <ele>563.65759277344</ele>
        <time>2020-06-23T13:23:24.059Z</time>
      </trkpt>
      <trkpt lat="46.02283" lon="3.6168">
        <ele>563.48931884766</ele>
        <time>2020-06-23T13:23:30.495Z</time>
      </trkpt>
      <trkpt lat="46.02281" lon="3.61703">
        <ele>563.95697021484</ele>
        <time>2020-06-23T13:23:36.934Z</time>
      </trkpt>
      <trkpt lat="46.02275" lon="3.61725">
        <ele>564.39611816406</ele>
        <time>2020-06-23T13:23:43.375Z</time>
      </trkpt>
      <trkpt lat="46.02268" lon="3.61739">
        <ele>564.244140625</ele>
        <time>2020-06-23T13:23:49.818Z</time>
      </trkpt>
      <trkpt lat="46.02231" lon="3.61792">
        <ele>562.57562255859</ele>
        <time>2020-06-23T13:23:56.269Z</time>
      </trkpt>
      <trkpt lat="46.02228" lon="3.61807">
        <ele>563.05633544922</ele>
        <time>2020-06-23T13:24:02.722Z</time>
      </trkpt>
      <trkpt lat="46.02229" lon="3.61825">
        <ele>564.00659179688</ele>
        <time>2020-06-23T13:24:09.177Z</time>
      </trkpt>
      <trkpt lat="46.0224" lon="3.61872">
        <ele>566.90515136719</ele>
        <time>2020-06-23T13:24:15.638Z</time>
      </trkpt>
      <trkpt lat="46.02261" lon="3.61939">
        <ele>570.52734375</ele>
        <time>2020-06-23T13:24:22.107Z</time>
      </trkpt>
      <trkpt lat="46.02289" lon="3.6204">
        <ele>575.16876220703</ele>
        <time>2020-06-23T13:24:28.588Z</time>
      </trkpt>
      <trkpt lat="46.02332" lon="3.62175">
        <ele>578.88647460938</ele>
        <time>2020-06-23T13:24:35.086Z</time>
      </trkpt>
      <trkpt lat="46.02333" lon="3.62174">
        <ele>579.06011962891</ele>
        <time>2020-06-23T13:24:41.584Z</time>
      </trkpt>
      <trkpt lat="46.02342" lon="3.62203">
        <ele>579.6005859375</ele>
        <time>2020-06-23T13:24:48.085Z</time>
      </trkpt>
      <trkpt lat="46.02345" lon="3.62206">
        <ele>579.82116699219</ele>
        <time>2020-06-23T13:24:54.587Z</time>
      </trkpt>
      <trkpt lat="46.02345" lon="3.62206">
        <ele>579.84527587891</ele>
        <time>2020-06-23T13:25:01.089Z</time>
      </trkpt>
      <trkpt lat="46.02391" lon="3.62252">
        <ele>584.23565673828</ele>
        <time>2020-06-23T13:25:07.600Z</time>
      </trkpt>
      <trkpt lat="46.02385" lon="3.62462">
        <ele>584.65393066406</ele>
        <time>2020-06-23T13:25:14.134Z</time>
      </trkpt>
      <trkpt lat="46.02394" lon="3.6263">
        <ele>588.40118408203</ele>
        <time>2020-06-23T13:25:20.687Z</time>
      </trkpt>
      <trkpt lat="46.02413" lon="3.62728">
        <ele>591.00451660156</ele>
        <time>2020-06-23T13:25:27.251Z</time>
      </trkpt>
      <trkpt lat="46.02526" lon="3.63047">
        <ele>591.54602050781</ele>
        <time>2020-06-23T13:25:33.855Z</time>
      </trkpt>
      <trkpt lat="46.02531" lon="3.63085">
        <ele>588.81756591797</ele>
        <time>2020-06-23T13:25:40.464Z</time>
      </trkpt>
      <trkpt lat="46.02513" lon="3.6318">
        <ele>578.04974365234</ele>
        <time>2020-06-23T13:25:47.084Z</time>
      </trkpt>
      <trkpt lat="46.02533" lon="3.634">
        <ele>576.26824951172</ele>
        <time>2020-06-23T13:25:53.728Z</time>
      </trkpt>
      <trkpt lat="46.02527" lon="3.63631">
        <ele>571.17022705078</ele>
        <time>2020-06-23T13:26:00.398Z</time>
      </trkpt>
      <trkpt lat="46.02603" lon="3.63828">
        <ele>565.28179931641</ele>
        <time>2020-06-23T13:26:07.093Z</time>
      </trkpt>
      <trkpt lat="46.02607" lon="3.63869">
        <ele>563.26678466797</ele>
        <time>2020-06-23T13:26:13.793Z</time>
      </trkpt>
      <trkpt lat="46.02601" lon="3.63961">
        <ele>559.61547851562</ele>
        <time>2020-06-23T13:26:20.503Z</time>
      </trkpt>
      <trkpt lat="46.02588" lon="3.64065">
        <ele>557.318359375</ele>
        <time>2020-06-23T13:26:27.225Z</time>
      </trkpt>
      <trkpt lat="46.02547" lon="3.64151">
        <ele>555.11584472656</ele>
        <time>2020-06-23T13:26:33.959Z</time>
      </trkpt>
      <trkpt lat="46.02543" lon="3.64226">
        <ele>558.70013427734</ele>
        <time>2020-06-23T13:26:40.701Z</time>
      </trkpt>
      <trkpt lat="46.02543" lon="3.6451">
        <ele>561.53283691406</ele>
        <time>2020-06-23T13:26:47.475Z</time>
      </trkpt>
      <trkpt lat="46.02543" lon="3.64557">
        <ele>559.80895996094</ele>
        <time>2020-06-23T13:26:54.254Z</time>
      </trkpt>
      <trkpt lat="46.02542" lon="3.64601">
        <ele>558.71929931641</ele>
        <time>2020-06-23T13:27:01.038Z</time>
      </trkpt>
      <trkpt lat="46.02542" lon="3.64699">
        <ele>555.62799072266</ele>
        <time>2020-06-23T13:27:07.833Z</time>
      </trkpt>
      <trkpt lat="46.02542" lon="3.64744">
        <ele>552.38415527344</ele>
        <time>2020-06-23T13:27:14.633Z</time>
      </trkpt>
      <trkpt lat="46.02542" lon="3.64857">
        <ele>553.49151611328</ele>
        <time>2020-06-23T13:27:21.445Z</time>
      </trkpt>
      <trkpt lat="46.02538" lon="3.64882">
        <ele>553.95520019531</ele>
        <time>2020-06-23T13:27:28.260Z</time>
      </trkpt>
      <trkpt lat="46.02532" lon="3.64908">
        <ele>554.37969970703</ele>
        <time>2020-06-23T13:27:35.078Z</time>
      </trkpt>
      <trkpt lat="46.02539" lon="3.64913">
        <ele>554.70935058594</ele>
        <time>2020-06-23T13:27:41.897Z</time>
      </trkpt>
      <trkpt lat="46.02552" lon="3.64922">
        <ele>555.40979003906</ele>
        <time>2020-06-23T13:27:48.719Z</time>
      </trkpt>
      <trkpt lat="46.02561" lon="3.64929">
        <ele>555.9482421875</ele>
        <time>2020-06-23T13:27:55.542Z</time>
      </trkpt>
      <trkpt lat="46.02562" lon="3.64929">
        <ele>555.96606445312</ele>
        <time>2020-06-23T13:28:02.365Z</time>
      </trkpt>
      <trkpt lat="46.0259" lon="3.64949">
        <ele>557.3505859375</ele>
        <time>2020-06-23T13:28:09.194Z</time>
      </trkpt>
      <trkpt lat="46.0259" lon="3.64949">
        <ele>557.35101318359</ele>
        <time>2020-06-23T13:28:16.023Z</time>
      </trkpt>
      <trkpt lat="46.02628" lon="3.64978">
        <ele>558.80517578125</ele>
        <time>2020-06-23T13:28:22.858Z</time>
      </trkpt>
      <trkpt lat="46.02673" lon="3.65038">
        <ele>561.18695068359</ele>
        <time>2020-06-23T13:28:29.703Z</time>
      </trkpt>
      <trkpt lat="46.02673" lon="3.65038">
        <ele>561.18786621094</ele>
        <time>2020-06-23T13:28:36.548Z</time>
      </trkpt>
      <trkpt lat="46.02731" lon="3.65157">
        <ele>565.15051269531</ele>
        <time>2020-06-23T13:28:43.409Z</time>
      </trkpt>
      <trkpt lat="46.02744" lon="3.65216">
        <ele>567.73785400391</ele>
        <time>2020-06-23T13:28:50.277Z</time>
      </trkpt>
      <trkpt lat="46.02737" lon="3.65265">
        <ele>569.28253173828</ele>
        <time>2020-06-23T13:28:57.151Z</time>
      </trkpt>
      <trkpt lat="46.02715" lon="3.6531">
        <ele>571.75823974609</ele>
        <time>2020-06-23T13:29:04.031Z</time>
      </trkpt>
      <trkpt lat="46.02716" lon="3.65344">
        <ele>573.26647949219</ele>
        <time>2020-06-23T13:29:10.915Z</time>
      </trkpt>
      <trkpt lat="46.02735" lon="3.65363">
        <ele>574.57501220703</ele>
        <time>2020-06-23T13:29:17.803Z</time>
      </trkpt>
      <trkpt lat="46.02778" lon="3.6536">
        <ele>577.38336181641</ele>
        <time>2020-06-23T13:29:24.697Z</time>
      </trkpt>
      <trkpt lat="46.02826" lon="3.65378">
        <ele>583.43432617188</ele>
        <time>2020-06-23T13:29:31.599Z</time>
      </trkpt>
      <trkpt lat="46.02836" lon="3.65372">
        <ele>584.16802978516</ele>
        <time>2020-06-23T13:29:38.503Z</time>
      </trkpt>
      <trkpt lat="46.02853" lon="3.65322">
        <ele>582.28863525391</ele>
        <time>2020-06-23T13:29:45.413Z</time>
      </trkpt>
      <trkpt lat="46.02872" lon="3.65297">
        <ele>582.23974609375</ele>
        <time>2020-06-23T13:29:52.328Z</time>
      </trkpt>
      <trkpt lat="46.02965" lon="3.65277">
        <ele>596.19464111328</ele>
        <time>2020-06-23T13:29:59.257Z</time>
      </trkpt>
      <trkpt lat="46.02973" lon="3.65266">
        <ele>597.50036621094</ele>
        <time>2020-06-23T13:30:06.188Z</time>
      </trkpt>
      <trkpt lat="46.02979" lon="3.65242">
        <ele>598.95172119141</ele>
        <time>2020-06-23T13:30:13.122Z</time>
      </trkpt>
      <trkpt lat="46.02966" lon="3.65203">
        <ele>595.87841796875</ele>
        <time>2020-06-23T13:30:20.061Z</time>
      </trkpt>
      <trkpt lat="46.02966" lon="3.65171">
        <ele>594.85772705078</ele>
        <time>2020-06-23T13:30:27.004Z</time>
      </trkpt>
      <trkpt lat="46.02975" lon="3.6515">
        <ele>594.04675292969</ele>
        <time>2020-06-23T13:30:33.949Z</time>
      </trkpt>
      <trkpt lat="46.03028" lon="3.65092">
        <ele>607.13043212891</ele>
        <time>2020-06-23T13:30:40.905Z</time>
      </trkpt>
      <trkpt lat="46.03072" lon="3.64992">
        <ele>607.98974609375</ele>
        <time>2020-06-23T13:30:47.874Z</time>
      </trkpt>
      <trkpt lat="46.03086" lon="3.64952">
        <ele>608.4521484375</ele>
        <time>2020-06-23T13:30:54.848Z</time>
      </trkpt>
      <trkpt lat="46.03119" lon="3.64865">
        <ele>604.35559082031</ele>
        <time>2020-06-23T13:31:01.833Z</time>
      </trkpt>
      <trkpt lat="46.03221" lon="3.64787">
        <ele>597.44885253906</ele>
        <time>2020-06-23T13:31:08.837Z</time>
      </trkpt>
      <trkpt lat="46.03325" lon="3.64656">
        <ele>589.05157470703</ele>
        <time>2020-06-23T13:31:15.863Z</time>
      </trkpt>
      <trkpt lat="46.03391" lon="3.64551">
        <ele>584.88958740234</ele>
        <time>2020-06-23T13:31:22.905Z</time>
      </trkpt>
      <trkpt lat="46.03425" lon="3.64507">
        <ele>579.01977539062</ele>
        <time>2020-06-23T13:31:29.954Z</time>
      </trkpt>
      <trkpt lat="46.03455" lon="3.64482">
        <ele>575.60284423828</ele>
        <time>2020-06-23T13:31:37.008Z</time>
      </trkpt>
      <trkpt lat="46.03486" lon="3.6447">
        <ele>570.85064697266</ele>
        <time>2020-06-23T13:31:44.068Z</time>
      </trkpt>
      <trkpt lat="46.03503" lon="3.64475">
        <ele>567.70971679688</ele>
        <time>2020-06-23T13:31:51.130Z</time>
      </trkpt>
      <trkpt lat="46.03519" lon="3.64498">
        <ele>568.28900146484</ele>
        <time>2020-06-23T13:31:58.196Z</time>
      </trkpt>
      <trkpt lat="46.03518" lon="3.64617">
        <ele>572.90411376953</ele>
        <time>2020-06-23T13:32:05.275Z</time>
      </trkpt>
      <trkpt lat="46.03535" lon="3.64665">
        <ele>568.38800048828</ele>
        <time>2020-06-23T13:32:12.360Z</time>
      </trkpt>
      <trkpt lat="46.0367" lon="3.64746">
        <ele>568.3564453125</ele>
        <time>2020-06-23T13:32:19.469Z</time>
      </trkpt>
      <trkpt lat="46.03777" lon="3.64794">
        <ele>573.85705566406</ele>
        <time>2020-06-23T13:32:26.596Z</time>
      </trkpt>
      <trkpt lat="46.03862" lon="3.64803">
        <ele>576.63806152344</ele>
        <time>2020-06-23T13:32:33.736Z</time>
      </trkpt>
      <trkpt lat="46.03871" lon="3.64802">
        <ele>576.92108154297</ele>
        <time>2020-06-23T13:32:40.878Z</time>
      </trkpt>
      <trkpt lat="46.03871" lon="3.64802">
        <ele>576.92126464844</ele>
        <time>2020-06-23T13:32:48.020Z</time>
      </trkpt>
      <trkpt lat="46.04266" lon="3.64629">
        <ele>594.60815429688</ele>
        <time>2020-06-23T13:32:55.228Z</time>
      </trkpt>
      <trkpt lat="46.0443" lon="3.64611">
        <ele>599.54693603516</ele>
        <time>2020-06-23T13:33:02.462Z</time>
      </trkpt>
      <trkpt lat="46.0443" lon="3.64611">
        <ele>599.546875</ele>
        <time>2020-06-23T13:33:09.696Z</time>
      </trkpt>
      <trkpt lat="46.04464" lon="3.64602">
        <ele>599.15301513672</ele>
        <time>2020-06-23T13:33:16.936Z</time>
      </trkpt>
      <trkpt lat="46.04587" lon="3.64561">
        <ele>591.83459472656</ele>
        <time>2020-06-23T13:33:24.196Z</time>
      </trkpt>
      <trkpt lat="46.04615" lon="3.64565">
        <ele>590.45050048828</ele>
        <time>2020-06-23T13:33:31.460Z</time>
      </trkpt>
      <trkpt lat="46.04628" lon="3.64586">
        <ele>589.72967529297</ele>
        <time>2020-06-23T13:33:38.728Z</time>
      </trkpt>
      <trkpt lat="46.04658" lon="3.64712">
        <ele>591.75311279297</ele>
        <time>2020-06-23T13:33:46.010Z</time>
      </trkpt>
      <trkpt lat="46.04675" lon="3.64732">
        <ele>592.28088378906</ele>
        <time>2020-06-23T13:33:53.296Z</time>
      </trkpt>
      <trkpt lat="46.04685" lon="3.64734">
        <ele>592.24224853516</ele>
        <time>2020-06-23T13:34:00.583Z</time>
      </trkpt>
      <trkpt lat="46.04715" lon="3.64718">
        <ele>590.82720947266</ele>
        <time>2020-06-23T13:34:07.876Z</time>
      </trkpt>
      <trkpt lat="46.04748" lon="3.64633">
        <ele>585.33343505859</ele>
        <time>2020-06-23T13:34:15.179Z</time>
      </trkpt>
      <trkpt lat="46.04756" lon="3.64624">
        <ele>584.65832519531</ele>
        <time>2020-06-23T13:34:22.484Z</time>
      </trkpt>
      <trkpt lat="46.04784" lon="3.64614">
        <ele>583.86022949219</ele>
        <time>2020-06-23T13:34:29.794Z</time>
      </trkpt>
      <trkpt lat="46.04829" lon="3.6463">
        <ele>581.91760253906</ele>
        <time>2020-06-23T13:34:37.111Z</time>
      </trkpt>
      <trkpt lat="46.04852" lon="3.64665">
        <ele>580.86206054688</ele>
        <time>2020-06-23T13:34:44.433Z</time>
      </trkpt>
      <trkpt lat="46.04871" lon="3.64806">
        <ele>579.08532714844</ele>
        <time>2020-06-23T13:34:51.772Z</time>
      </trkpt>
      <trkpt lat="46.04899" lon="3.64826">
        <ele>577.46978759766</ele>
        <time>2020-06-23T13:34:59.115Z</time>
      </trkpt>
      <trkpt lat="46.04976" lon="3.64813">
        <ele>574.59582519531</ele>
        <time>2020-06-23T13:35:06.471Z</time>
      </trkpt>
      <trkpt lat="46.04996" lon="3.64802">
        <ele>575.59991455078</ele>
        <time>2020-06-23T13:35:13.830Z</time>
      </trkpt>
      <trkpt lat="46.05006" lon="3.64773">
        <ele>575.32958984375</ele>
        <time>2020-06-23T13:35:21.193Z</time>
      </trkpt>
      <trkpt lat="46.05014" lon="3.64718">
        <ele>572.61187744141</ele>
        <time>2020-06-23T13:35:28.562Z</time>
      </trkpt>
      <trkpt lat="46.05038" lon="3.64669">
        <ele>570.06860351562</ele>
        <time>2020-06-23T13:35:35.938Z</time>
      </trkpt>
      <trkpt lat="46.05038" lon="3.64669">
        <ele>570.06915283203</ele>
        <time>2020-06-23T13:35:43.314Z</time>
      </trkpt>
      <trkpt lat="46.05101" lon="3.6457">
        <ele>565.28100585938</ele>
        <time>2020-06-23T13:35:50.705Z</time>
      </trkpt>
      <trkpt lat="46.05153" lon="3.64507">
        <ele>559.76373291016</ele>
        <time>2020-06-23T13:35:58.107Z</time>
      </trkpt>
      <trkpt lat="46.05227" lon="3.64455">
        <ele>559.61169433594</ele>
        <time>2020-06-23T13:36:05.522Z</time>
      </trkpt>
      <trkpt lat="46.05294" lon="3.64421">
        <ele>554.38507080078</ele>
        <time>2020-06-23T13:36:12.948Z</time>
      </trkpt>
      <trkpt lat="46.05325" lon="3.64426">
        <ele>552.07720947266</ele>
        <time>2020-06-23T13:36:20.379Z</time>
      </trkpt>
      <trkpt lat="46.05374" lon="3.64458">
        <ele>548.53741455078</ele>
        <time>2020-06-23T13:36:27.819Z</time>
      </trkpt>
      <trkpt lat="46.05382" lon="3.64471">
        <ele>548.73138427734</ele>
        <time>2020-06-23T13:36:35.261Z</time>
      </trkpt>
      <trkpt lat="46.05392" lon="3.64537">
        <ele>551.37231445312</ele>
        <time>2020-06-23T13:36:42.710Z</time>
      </trkpt>
      <trkpt lat="46.05408" lon="3.64563">
        <ele>550.80303955078</ele>
        <time>2020-06-23T13:36:50.163Z</time>
      </trkpt>
      <trkpt lat="46.05559" lon="3.6462">
        <ele>544.83917236328</ele>
        <time>2020-06-23T13:36:57.641Z</time>
      </trkpt>
      <trkpt lat="46.05575" lon="3.64636">
        <ele>545.77893066406</ele>
        <time>2020-06-23T13:37:05.122Z</time>
      </trkpt>
      <trkpt lat="46.05583" lon="3.64657">
        <ele>546.89892578125</ele>
        <time>2020-06-23T13:37:12.606Z</time>
      </trkpt>
      <trkpt lat="46.05583" lon="3.64773">
        <ele>549.32348632812</ele>
        <time>2020-06-23T13:37:20.103Z</time>
      </trkpt>
      <trkpt lat="46.05587" lon="3.64801">
        <ele>549.76019287109</ele>
        <time>2020-06-23T13:37:27.603Z</time>
      </trkpt>
      <trkpt lat="46.056" lon="3.64824">
        <ele>550.32659912109</ele>
        <time>2020-06-23T13:37:35.106Z</time>
      </trkpt>
      <trkpt lat="46.05627" lon="3.64839">
        <ele>550.68701171875</ele>
        <time>2020-06-23T13:37:42.614Z</time>
      </trkpt>
      <trkpt lat="46.05637" lon="3.64838">
        <ele>550.76531982422</ele>
        <time>2020-06-23T13:37:50.124Z</time>
      </trkpt>
      <trkpt lat="46.05677" lon="3.64818">
        <ele>553.05108642578</ele>
        <time>2020-06-23T13:37:57.640Z</time>
      </trkpt>
      <trkpt lat="46.05706" lon="3.6482">
        <ele>555.45532226562</ele>
        <time>2020-06-23T13:38:05.161Z</time>
      </trkpt>
      <trkpt lat="46.05733" lon="3.64835">
        <ele>557.36840820312</ele>
        <time>2020-06-23T13:38:12.687Z</time>
      </trkpt>
      <trkpt lat="46.05785" lon="3.64888">
        <ele>557.99914550781</ele>
        <time>2020-06-23T13:38:20.223Z</time>
      </trkpt>
      <trkpt lat="46.05807" lon="3.649">
        <ele>558.37243652344</ele>
        <time>2020-06-23T13:38:27.763Z</time>
      </trkpt>
      <trkpt lat="46.05834" lon="3.64897">
        <ele>559.33203125</ele>
        <time>2020-06-23T13:38:35.307Z</time>
      </trkpt>
      <trkpt lat="46.05875" lon="3.64875">
        <ele>561.63232421875</ele>
        <time>2020-06-23T13:38:42.858Z</time>
      </trkpt>
      <trkpt lat="46.05895" lon="3.64876">
        <ele>562.67706298828</ele>
        <time>2020-06-23T13:38:50.412Z</time>
      </trkpt>
      <trkpt lat="46.05908" lon="3.64886">
        <ele>563.99005126953</ele>
        <time>2020-06-23T13:38:57.969Z</time>
      </trkpt>
      <trkpt lat="46.05908" lon="3.64886">
        <ele>563.99108886719</ele>
        <time>2020-06-23T13:39:05.526Z</time>
      </trkpt>
      <trkpt lat="46.06085" lon="3.65194">
        <ele>576.89996337891</ele>
        <time>2020-06-23T13:39:13.127Z</time>
      </trkpt>
      <trkpt lat="46.06115" lon="3.65226">
        <ele>575.20074462891</ele>
        <time>2020-06-23T13:39:20.734Z</time>
      </trkpt>
      <trkpt lat="46.06115" lon="3.65226">
        <ele>575.20135498047</ele>
        <time>2020-06-23T13:39:28.341Z</time>
      </trkpt>
      <trkpt lat="46.06401" lon="3.65363">
        <ele>565.4501953125</ele>
        <time>2020-06-23T13:39:35.996Z</time>
      </trkpt>
      <trkpt lat="46.06444" lon="3.65411">
        <ele>562.74700927734</ele>
        <time>2020-06-23T13:39:43.660Z</time>
      </trkpt>
      <trkpt lat="46.06596" lon="3.65627">
        <ele>558.26556396484</ele>
        <time>2020-06-23T13:39:51.358Z</time>
      </trkpt>
      <trkpt lat="46.06647" lon="3.65722">
        <ele>555.93475341797</ele>
        <time>2020-06-23T13:39:59.070Z</time>
      </trkpt>
      <trkpt lat="46.06718" lon="3.65995">
        <ele>548.60119628906</ele>
        <time>2020-06-23T13:40:06.814Z</time>
      </trkpt>
      <trkpt lat="46.06725" lon="3.66026">
        <ele>548.02532958984</ele>
        <time>2020-06-23T13:40:14.562Z</time>
      </trkpt>
      <trkpt lat="46.06755" lon="3.66141">
        <ele>546.73663330078</ele>
        <time>2020-06-23T13:40:22.323Z</time>
      </trkpt>
      <trkpt lat="46.06795" lon="3.66226">
        <ele>544.69256591797</ele>
        <time>2020-06-23T13:40:30.096Z</time>
      </trkpt>
      <trkpt lat="46.06809" lon="3.66257">
        <ele>544.15728759766</ele>
        <time>2020-06-23T13:40:37.873Z</time>
      </trkpt>
      <trkpt lat="46.06809" lon="3.66257">
        <ele>544.15081787109</ele>
        <time>2020-06-23T13:40:45.650Z</time>
      </trkpt>
      <trkpt lat="46.06815" lon="3.6627">
        <ele>543.86047363281</ele>
        <time>2020-06-23T13:40:53.429Z</time>
      </trkpt>
      <trkpt lat="46.06815" lon="3.6627">
        <ele>543.86029052734</ele>
        <time>2020-06-23T13:41:01.208Z</time>
      </trkpt>
      <trkpt lat="46.06832" lon="3.66304">
        <ele>543.17657470703</ele>
        <time>2020-06-23T13:41:08.991Z</time>
      </trkpt>
      <trkpt lat="46.06832" lon="3.66304">
        <ele>543.17626953125</ele>
        <time>2020-06-23T13:41:16.774Z</time>
      </trkpt>
      <trkpt lat="46.06835" lon="3.66308">
        <ele>543.09936523438</ele>
        <time>2020-06-23T13:41:24.558Z</time>
      </trkpt>
      <trkpt lat="46.06835" lon="3.66308">
        <ele>543.09906005859</ele>
        <time>2020-06-23T13:41:32.342Z</time>
      </trkpt>
      <trkpt lat="46.06873" lon="3.66386">
        <ele>542.09936523438</ele>
        <time>2020-06-23T13:41:40.137Z</time>
      </trkpt>
      <trkpt lat="46.06874" lon="3.66386">
        <ele>542.09759521484</ele>
        <time>2020-06-23T13:41:47.932Z</time>
      </trkpt>
      <trkpt lat="46.06874" lon="3.66386">
        <ele>542.09771728516</ele>
        <time>2020-06-23T13:41:55.727Z</time>
      </trkpt>
      <trkpt lat="46.06934" lon="3.66508">
        <ele>540.14508056641</ele>
        <time>2020-06-23T13:42:03.538Z</time>
      </trkpt>
      <trkpt lat="46.06953" lon="3.66541">
        <ele>539.30816650391</ele>
        <time>2020-06-23T13:42:11.354Z</time>
      </trkpt>
      <trkpt lat="46.0696" lon="3.66554">
        <ele>538.97351074219</ele>
        <time>2020-06-23T13:42:19.172Z</time>
      </trkpt>
      <trkpt lat="46.06981" lon="3.66589">
        <ele>538.26342773438</ele>
        <time>2020-06-23T13:42:26.995Z</time>
      </trkpt>
      <trkpt lat="46.06987" lon="3.66602">
        <ele>538.26342773438</ele>
        <time>2020-06-23T13:42:34.820Z</time>
      </trkpt>
      <trkpt lat="46.06999" lon="3.66622">
        <ele>538.31494140625</ele>
        <time>2020-06-23T13:42:42.648Z</time>
      </trkpt>
      <trkpt lat="46.07029" lon="3.6667">
        <ele>538.45635986328</ele>
        <time>2020-06-23T13:42:50.483Z</time>
      </trkpt>
      <trkpt lat="46.07024" lon="3.66676">
        <ele>538.27630615234</ele>
        <time>2020-06-23T13:42:58.319Z</time>
      </trkpt>
      <trkpt lat="46.07028" lon="3.66687">
        <ele>538.22485351562</ele>
        <time>2020-06-23T13:43:06.156Z</time>
      </trkpt>
      <trkpt lat="46.07035" lon="3.66686">
        <ele>538.41772460938</ele>
        <time>2020-06-23T13:43:13.994Z</time>
      </trkpt>
      <trkpt lat="46.07053" lon="3.66687">
        <ele>538.84252929688</ele>
        <time>2020-06-23T13:43:21.835Z</time>
      </trkpt>
      <trkpt lat="46.07075" lon="3.66701">
        <ele>539.18377685547</ele>
        <time>2020-06-23T13:43:29.680Z</time>
      </trkpt>
      <trkpt lat="46.07078" lon="3.66704">
        <ele>539.22229003906</ele>
        <time>2020-06-23T13:43:37.526Z</time>
      </trkpt>
      <trkpt lat="46.07165" lon="3.66769">
        <ele>541.58959960938</ele>
        <time>2020-06-23T13:43:45.387Z</time>
      </trkpt>
      <trkpt lat="46.0717" lon="3.66772">
        <ele>541.97637939453</ele>
        <time>2020-06-23T13:43:53.249Z</time>
      </trkpt>
      <trkpt lat="46.07186" lon="3.66789">
        <ele>543.13427734375</ele>
        <time>2020-06-23T13:44:01.115Z</time>
      </trkpt>
      <trkpt lat="46.07192" lon="3.66806">
        <ele>543.52044677734</ele>
        <time>2020-06-23T13:44:08.983Z</time>
      </trkpt>
      <trkpt lat="46.07204" lon="3.66841">
        <ele>544.23486328125</ele>
        <time>2020-06-23T13:44:16.855Z</time>
      </trkpt>
      <trkpt lat="46.0722" lon="3.66853">
        <ele>545.42950439453</ele>
        <time>2020-06-23T13:44:24.730Z</time>
      </trkpt>
      <trkpt lat="46.07258" lon="3.66837">
        <ele>547.53936767578</ele>
        <time>2020-06-23T13:44:32.611Z</time>
      </trkpt>
      <trkpt lat="46.07307" lon="3.66832">
        <ele>549.85638427734</ele>
        <time>2020-06-23T13:44:40.500Z</time>
      </trkpt>
      <trkpt lat="46.07337" lon="3.6683">
        <ele>550.97357177734</ele>
        <time>2020-06-23T13:44:48.394Z</time>
      </trkpt>
      <trkpt lat="46.07358" lon="3.66956">
        <ele>545.84613037109</ele>
        <time>2020-06-23T13:44:56.302Z</time>
      </trkpt>
      <trkpt lat="46.07381" lon="3.67027">
        <ele>544.39074707031</ele>
        <time>2020-06-23T13:45:04.219Z</time>
      </trkpt>
      <trkpt lat="46.07381" lon="3.67027">
        <ele>544.39013671875</ele>
        <time>2020-06-23T13:45:12.136Z</time>
      </trkpt>
      <trkpt lat="46.07447" lon="3.67154">
        <ele>536.90411376953</ele>
        <time>2020-06-23T13:45:20.071Z</time>
      </trkpt>
      <trkpt lat="46.07484" lon="3.6727">
        <ele>530.44299316406</ele>
        <time>2020-06-23T13:45:28.020Z</time>
      </trkpt>
      <trkpt lat="46.07484" lon="3.6727">
        <ele>530.44244384766</ele>
        <time>2020-06-23T13:45:35.969Z</time>
      </trkpt>
      <trkpt lat="46.07484" lon="3.67368">
        <ele>524.45629882812</ele>
        <time>2020-06-23T13:45:43.929Z</time>
      </trkpt>
      <trkpt lat="46.07504" lon="3.6741">
        <ele>520.22131347656</ele>
        <time>2020-06-23T13:45:51.895Z</time>
      </trkpt>
      <trkpt lat="46.07524" lon="3.67424">
        <ele>517.99432373047</ele>
        <time>2020-06-23T13:45:59.864Z</time>
      </trkpt>
      <trkpt lat="46.07571" lon="3.67427">
        <ele>515.35968017578</ele>
        <time>2020-06-23T13:46:07.841Z</time>
      </trkpt>
      <trkpt lat="46.07602" lon="3.6741">
        <ele>515.05078125</ele>
        <time>2020-06-23T13:46:15.823Z</time>
      </trkpt>
      <trkpt lat="46.07644" lon="3.67339">
        <ele>518.80029296875</ele>
        <time>2020-06-23T13:46:23.815Z</time>
      </trkpt>
      <trkpt lat="46.07663" lon="3.67333">
        <ele>520.80841064453</ele>
        <time>2020-06-23T13:46:31.810Z</time>
      </trkpt>
      <trkpt lat="46.07677" lon="3.67343">
        <ele>519.34094238281</ele>
        <time>2020-06-23T13:46:39.808Z</time>
      </trkpt>
      <trkpt lat="46.07732" lon="3.6742">
        <ele>505.92517089844</ele>
        <time>2020-06-23T13:46:47.818Z</time>
      </trkpt>
      <trkpt lat="46.07748" lon="3.67426">
        <ele>503.91708374023</ele>
        <time>2020-06-23T13:46:55.831Z</time>
      </trkpt>
      <trkpt lat="46.07792" lon="3.67413">
        <ele>504.27749633789</ele>
        <time>2020-06-23T13:47:03.851Z</time>
      </trkpt>
      <trkpt lat="46.07832" lon="3.67439">
        <ele>496.86441040039</ele>
        <time>2020-06-23T13:47:11.878Z</time>
      </trkpt>
      <trkpt lat="46.07852" lon="3.67455">
        <ele>493.89086914062</ele>
        <time>2020-06-23T13:47:19.909Z</time>
      </trkpt>
      <trkpt lat="46.07894" lon="3.67533">
        <ele>484.66748046875</ele>
        <time>2020-06-23T13:47:27.951Z</time>
      </trkpt>
      <trkpt lat="46.07911" lon="3.67552">
        <ele>484.22982788086</ele>
        <time>2020-06-23T13:47:35.996Z</time>
      </trkpt>
      <trkpt lat="46.08003" lon="3.6758">
        <ele>480.28747558594</ele>
        <time>2020-06-23T13:47:44.056Z</time>
      </trkpt>
      <trkpt lat="46.08159" lon="3.67598">
        <ele>470.18417358398</ele>
        <time>2020-06-23T13:47:52.141Z</time>
      </trkpt>
      <trkpt lat="46.08159" lon="3.67598">
        <ele>470.18417358398</ele>
        <time>2020-06-23T13:48:00.226Z</time>
      </trkpt>
      <trkpt lat="46.08209" lon="3.67586">
        <ele>470.60897827148</ele>
        <time>2020-06-23T13:48:08.319Z</time>
      </trkpt>
      <trkpt lat="46.08282" lon="3.67569">
        <ele>474.86901855469</ele>
        <time>2020-06-23T13:48:16.424Z</time>
      </trkpt>
      <trkpt lat="46.08386" lon="3.67598">
        <ele>471.89608764648</ele>
        <time>2020-06-23T13:48:24.546Z</time>
      </trkpt>
      <trkpt lat="46.08456" lon="3.67634">
        <ele>471.36404418945</ele>
        <time>2020-06-23T13:48:32.680Z</time>
      </trkpt>
      <trkpt lat="46.08513" lon="3.67641">
        <ele>475.04064941406</ele>
        <time>2020-06-23T13:48:40.823Z</time>
      </trkpt>
      <trkpt lat="46.08529" lon="3.67649">
        <ele>475.3981628418</ele>
        <time>2020-06-23T13:48:48.969Z</time>
      </trkpt>
      <trkpt lat="46.08565" lon="3.67704">
        <ele>473.01446533203</ele>
        <time>2020-06-23T13:48:57.123Z</time>
      </trkpt>
      <trkpt lat="46.08582" lon="3.67825">
        <ele>471.64526367188</ele>
        <time>2020-06-23T13:49:05.291Z</time>
      </trkpt>
      <trkpt lat="46.08582" lon="3.67825">
        <ele>471.64364624023</ele>
        <time>2020-06-23T13:49:13.459Z</time>
      </trkpt>
      <trkpt lat="46.08595" lon="3.67889">
        <ele>469.96743774414</ele>
        <time>2020-06-23T13:49:21.635Z</time>
      </trkpt>
      <trkpt lat="46.08646" lon="3.67982">
        <ele>471.40991210938</ele>
        <time>2020-06-23T13:49:29.824Z</time>
      </trkpt>
      <trkpt lat="46.08701" lon="3.68128">
        <ele>464.82601928711</ele>
        <time>2020-06-23T13:49:38.031Z</time>
      </trkpt>
      <trkpt lat="46.08708" lon="3.6814">
        <ele>463.38430786133</ele>
        <time>2020-06-23T13:49:46.240Z</time>
      </trkpt>
      <trkpt lat="46.0872" lon="3.68142">
        <ele>462.61157226562</ele>
        <time>2020-06-23T13:49:54.451Z</time>
      </trkpt>
      <trkpt lat="46.08739" lon="3.6815">
        <ele>461.90310668945</ele>
        <time>2020-06-23T13:50:02.665Z</time>
      </trkpt>
      <trkpt lat="46.08779" lon="3.68189">
        <ele>460.28262329102</ele>
        <time>2020-06-23T13:50:10.887Z</time>
      </trkpt>
      <trkpt lat="46.08792" lon="3.68191">
        <ele>461.08071899414</ele>
        <time>2020-06-23T13:50:19.111Z</time>
      </trkpt>
      <trkpt lat="46.08908" lon="3.68083">
        <ele>458.06982421875</ele>
        <time>2020-06-23T13:50:27.357Z</time>
      </trkpt>
      <trkpt lat="46.08935" lon="3.68065">
        <ele>461.50677490234</ele>
        <time>2020-06-23T13:50:35.608Z</time>
      </trkpt>
      <trkpt lat="46.09014" lon="3.68071">
        <ele>467.60284423828</ele>
        <time>2020-06-23T13:50:43.871Z</time>
      </trkpt>
      <trkpt lat="46.09137" lon="3.67994">
        <ele>474.12265014648</ele>
        <time>2020-06-23T13:50:52.156Z</time>
      </trkpt>
      <trkpt lat="46.09144" lon="3.67972">
        <ele>476.98449707031</ele>
        <time>2020-06-23T13:51:00.444Z</time>
      </trkpt>
      <trkpt lat="46.09125" lon="3.67891">
        <ele>470.36602783203</ele>
        <time>2020-06-23T13:51:08.741Z</time>
      </trkpt>
      <trkpt lat="46.09125" lon="3.67867">
        <ele>468.10046386719</ele>
        <time>2020-06-23T13:51:17.041Z</time>
      </trkpt>
      <trkpt lat="46.0914" lon="3.67834">
        <ele>466.3942565918</ele>
        <time>2020-06-23T13:51:25.345Z</time>
      </trkpt>
      <trkpt lat="46.0915" lon="3.67823">
        <ele>465.095703125</ele>
        <time>2020-06-23T13:51:33.651Z</time>
      </trkpt>
      <trkpt lat="46.09187" lon="3.67809">
        <ele>469.06396484375</ele>
        <time>2020-06-23T13:51:41.963Z</time>
      </trkpt>
      <trkpt lat="46.09216" lon="3.67763">
        <ele>466.95413208008</ele>
        <time>2020-06-23T13:51:50.282Z</time>
      </trkpt>
      <trkpt lat="46.09368" lon="3.67723">
        <ele>474.28436279297</ele>
        <time>2020-06-23T13:51:58.626Z</time>
      </trkpt>
      <trkpt lat="46.09368" lon="3.67723">
        <ele>474.28323364258</ele>
        <time>2020-06-23T13:52:06.970Z</time>
      </trkpt>
      <trkpt lat="46.09397" lon="3.67709">
        <ele>475.43765258789</ele>
        <time>2020-06-23T13:52:15.319Z</time>
      </trkpt>
      <trkpt lat="46.09584" lon="3.67714">
        <ele>479.87268066406</ele>
        <time>2020-06-23T13:52:23.698Z</time>
      </trkpt>
      <trkpt lat="46.09625" lon="3.67742">
        <ele>482.59088134766</ele>
        <time>2020-06-23T13:52:32.084Z</time>
      </trkpt>
      <trkpt lat="46.09634" lon="3.67777">
        <ele>488.25030517578</ele>
        <time>2020-06-23T13:52:40.474Z</time>
      </trkpt>
      <trkpt lat="46.09634" lon="3.67836">
        <ele>491.79025268555</ele>
        <time>2020-06-23T13:52:48.871Z</time>
      </trkpt>
      <trkpt lat="46.09647" lon="3.67871">
        <ele>493.76867675781</ele>
        <time>2020-06-23T13:52:57.272Z</time>
      </trkpt>
      <trkpt lat="46.09677" lon="3.67881">
        <ele>494.88275146484</ele>
        <time>2020-06-23T13:53:05.678Z</time>
      </trkpt>
      <trkpt lat="46.0973" lon="3.67861">
        <ele>495.37582397461</ele>
        <time>2020-06-23T13:53:14.093Z</time>
      </trkpt>
      <trkpt lat="46.0975" lon="3.67867">
        <ele>495.29858398438</ele>
        <time>2020-06-23T13:53:22.511Z</time>
      </trkpt>
      <trkpt lat="46.0978" lon="3.67901">
        <ele>496.63732910156</ele>
        <time>2020-06-23T13:53:30.935Z</time>
      </trkpt>
      <trkpt lat="46.098" lon="3.67951">
        <ele>499.28247070312</ele>
        <time>2020-06-23T13:53:39.366Z</time>
      </trkpt>
      <trkpt lat="46.0982" lon="3.67981">
        <ele>499.96075439453</ele>
        <time>2020-06-23T13:53:47.802Z</time>
      </trkpt>
      <trkpt lat="46.0982" lon="3.67981">
        <ele>499.96176147461</ele>
        <time>2020-06-23T13:53:56.238Z</time>
      </trkpt>
      <trkpt lat="46.09849" lon="3.67983">
        <ele>496.64065551758</ele>
        <time>2020-06-23T13:54:04.678Z</time>
      </trkpt>
      <trkpt lat="46.0986" lon="3.67992">
        <ele>495.97131347656</ele>
        <time>2020-06-23T13:54:13.120Z</time>
      </trkpt>
      <trkpt lat="46.09872" lon="3.68047">
        <ele>501.56103515625</ele>
        <time>2020-06-23T13:54:21.569Z</time>
      </trkpt>
      <trkpt lat="46.09882" lon="3.68065">
        <ele>503.4919128418</ele>
        <time>2020-06-23T13:54:30.020Z</time>
      </trkpt>
      <trkpt lat="46.09948" lon="3.68105">
        <ele>510.50314331055</ele>
        <time>2020-06-23T13:54:38.483Z</time>
      </trkpt>
      <trkpt lat="46.09965" lon="3.68104">
        <ele>510.82495117188</ele>
        <time>2020-06-23T13:54:46.948Z</time>
      </trkpt>
      <trkpt lat="46.09976" lon="3.68095">
        <ele>509.73651123047</ele>
        <time>2020-06-23T13:54:55.415Z</time>
      </trkpt>
      <trkpt lat="46.10007" lon="3.68041">
        <ele>505.04428100586</ele>
        <time>2020-06-23T13:55:03.890Z</time>
      </trkpt>
      <trkpt lat="46.1007" lon="3.68003">
        <ele>508.39404296875</ele>
        <time>2020-06-23T13:55:12.376Z</time>
      </trkpt>
      <trkpt lat="46.1009" lon="3.68">
        <ele>509.32086181641</ele>
        <time>2020-06-23T13:55:20.865Z</time>
      </trkpt>
      <trkpt lat="46.10143" lon="3.68015">
        <ele>514.97497558594</ele>
        <time>2020-06-23T13:55:29.363Z</time>
      </trkpt>
      <trkpt lat="46.10195" lon="3.6805">
        <ele>518.86328125</ele>
        <time>2020-06-23T13:55:37.870Z</time>
      </trkpt>
      <trkpt lat="46.10258" lon="3.68061">
        <ele>522.62969970703</ele>
        <time>2020-06-23T13:55:46.387Z</time>
      </trkpt>
      <trkpt lat="46.10297" lon="3.68087">
        <ele>528.12670898438</ele>
        <time>2020-06-23T13:55:54.911Z</time>
      </trkpt>
      <trkpt lat="46.10312" lon="3.68087">
        <ele>528.28552246094</ele>
        <time>2020-06-23T13:56:03.438Z</time>
      </trkpt>
      <trkpt lat="46.10367" lon="3.6805">
        <ele>525.18725585938</ele>
        <time>2020-06-23T13:56:11.974Z</time>
      </trkpt>
      <trkpt lat="46.10556" lon="3.6801">
        <ele>514.77996826172</ele>
        <time>2020-06-23T13:56:20.541Z</time>
      </trkpt>
      <trkpt lat="46.10613" lon="3.68023">
        <ele>519.69866943359</ele>
        <time>2020-06-23T13:56:29.117Z</time>
      </trkpt>
      <trkpt lat="46.10653" lon="3.68012">
        <ele>514.19244384766</ele>
        <time>2020-06-23T13:56:37.700Z</time>
      </trkpt>
      <trkpt lat="46.10799" lon="3.68013">
        <ele>512.68249511719</ele>
        <time>2020-06-23T13:56:46.306Z</time>
      </trkpt>
      <trkpt lat="46.10826" lon="3.68027">
        <ele>514.89709472656</ele>
        <time>2020-06-23T13:56:54.917Z</time>
      </trkpt>
      <trkpt lat="46.10891" lon="3.68081">
        <ele>524.57720947266</ele>
        <time>2020-06-23T13:57:03.540Z</time>
      </trkpt>
      <trkpt lat="46.10978" lon="3.6811">
        <ele>515.06604003906</ele>
        <time>2020-06-23T13:57:12.177Z</time>
      </trkpt>
      <trkpt lat="46.10989" lon="3.68125">
        <ele>515.55523681641</ele>
        <time>2020-06-23T13:57:20.816Z</time>
      </trkpt>
      <trkpt lat="46.11012" lon="3.68206">
        <ele>526.28527832031</ele>
        <time>2020-06-23T13:57:29.465Z</time>
      </trkpt>
      <trkpt lat="46.1104" lon="3.68228">
        <ele>523.70874023438</ele>
        <time>2020-06-23T13:57:38.119Z</time>
      </trkpt>
      <trkpt lat="46.1104" lon="3.68228">
        <ele>523.71075439453</ele>
        <time>2020-06-23T13:57:46.773Z</time>
      </trkpt>
      <trkpt lat="46.11071" lon="3.68244">
        <ele>520.66864013672</ele>
        <time>2020-06-23T13:57:55.432Z</time>
      </trkpt>
      <trkpt lat="46.11334" lon="3.68294">
        <ele>515.14282226562</ele>
        <time>2020-06-23T13:58:04.134Z</time>
      </trkpt>
      <trkpt lat="46.11335" lon="3.68294">
        <ele>515.13928222656</ele>
        <time>2020-06-23T13:58:12.836Z</time>
      </trkpt>
      <trkpt lat="46.11335" lon="3.68294">
        <ele>515.13928222656</ele>
        <time>2020-06-23T13:58:21.538Z</time>
      </trkpt>
      <trkpt lat="46.11343" lon="3.68295">
        <ele>515.08288574219</ele>
        <time>2020-06-23T13:58:30.241Z</time>
      </trkpt>
      <trkpt lat="46.11302" lon="3.68135">
        <ele>505.74835205078</ele>
        <time>2020-06-23T13:58:38.963Z</time>
      </trkpt>
      <trkpt lat="46.11333" lon="3.68039">
        <ele>501.97695922852</ele>
        <time>2020-06-23T13:58:47.697Z</time>
      </trkpt>
      <trkpt lat="46.11385" lon="3.67943">
        <ele>494.19763183594</ele>
        <time>2020-06-23T13:58:56.445Z</time>
      </trkpt>
      <trkpt lat="46.11494" lon="3.67775">
        <ele>490.40155029297</ele>
        <time>2020-06-23T13:59:05.218Z</time>
      </trkpt>
      <trkpt lat="46.11526" lon="3.67704">
        <ele>488.75216674805</ele>
        <time>2020-06-23T13:59:14.001Z</time>
      </trkpt>
      <trkpt lat="46.11526" lon="3.67704">
        <ele>488.751953125</ele>
        <time>2020-06-23T13:59:22.784Z</time>
      </trkpt>
      <trkpt lat="46.1157" lon="3.67536">
        <ele>480.72802734375</ele>
        <time>2020-06-23T13:59:31.587Z</time>
      </trkpt>
      <trkpt lat="46.11617" lon="3.67428">
        <ele>477.51287841797</ele>
        <time>2020-06-23T13:59:40.404Z</time>
      </trkpt>
      <trkpt lat="46.11627" lon="3.67359">
        <ele>476.77624511719</ele>
        <time>2020-06-23T13:59:49.229Z</time>
      </trkpt>
      <trkpt lat="46.11648" lon="3.67291">
        <ele>478.55590820312</ele>
        <time>2020-06-23T13:59:58.062Z</time>
      </trkpt>
      <trkpt lat="46.11653" lon="3.67244">
        <ele>476.37466430664</ele>
        <time>2020-06-23T14:00:06.900Z</time>
      </trkpt>
      <trkpt lat="46.11635" lon="3.6713">
        <ele>466.25695800781</ele>
        <time>2020-06-23T14:00:15.751Z</time>
      </trkpt>
      <trkpt lat="46.11646" lon="3.67061">
        <ele>458.55459594727</ele>
        <time>2020-06-23T14:00:24.610Z</time>
      </trkpt>
      <trkpt lat="46.11643" lon="3.67025">
        <ele>454.68008422852</ele>
        <time>2020-06-23T14:00:33.473Z</time>
      </trkpt>
      <trkpt lat="46.11578" lon="3.66882">
        <ele>438.96301269531</ele>
        <time>2020-06-23T14:00:42.355Z</time>
      </trkpt>
      <trkpt lat="46.11533" lon="3.66829">
        <ele>433.49154663086</ele>
        <time>2020-06-23T14:00:51.247Z</time>
      </trkpt>
      <trkpt lat="46.1145" lon="3.66787">
        <ele>432.98886108398</ele>
        <time>2020-06-23T14:01:00.153Z</time>
      </trkpt>
      <trkpt lat="46.1145" lon="3.66787">
        <ele>432.9875793457</ele>
        <time>2020-06-23T14:01:09.059Z</time>
      </trkpt>
      <trkpt lat="46.11364" lon="3.66735">
        <ele>430.7776184082</ele>
        <time>2020-06-23T14:01:17.979Z</time>
      </trkpt>
      <trkpt lat="46.11275" lon="3.66628">
        <ele>409.67831420898</ele>
        <time>2020-06-23T14:01:26.918Z</time>
      </trkpt>
      <trkpt lat="46.11252" lon="3.66615">
        <ele>410.09024047852</ele>
        <time>2020-06-23T14:01:35.861Z</time>
      </trkpt>
      <trkpt lat="46.11227" lon="3.66605">
        <ele>411.59976196289</ele>
        <time>2020-06-23T14:01:44.808Z</time>
      </trkpt>
      <trkpt lat="46.11203" lon="3.66611">
        <ele>411.12414550781</ele>
        <time>2020-06-23T14:01:53.759Z</time>
      </trkpt>
      <trkpt lat="46.11177" lon="3.66656">
        <ele>417.05017089844</ele>
        <time>2020-06-23T14:02:02.717Z</time>
      </trkpt>
      <trkpt lat="46.11169" lon="3.66647">
        <ele>414.681640625</ele>
        <time>2020-06-23T14:02:11.676Z</time>
      </trkpt>
      <trkpt lat="46.11171" lon="3.66632">
        <ele>413.47323608398</ele>
        <time>2020-06-23T14:02:20.637Z</time>
      </trkpt>
      <trkpt lat="46.11192" lon="3.66593">
        <ele>406.60830688477</ele>
        <time>2020-06-23T14:02:29.603Z</time>
      </trkpt>
      <trkpt lat="46.11217" lon="3.66578">
        <ele>403.69833374023</ele>
        <time>2020-06-23T14:02:38.574Z</time>
      </trkpt>
      <trkpt lat="46.11249" lon="3.6658">
        <ele>398.38110351562</ele>
        <time>2020-06-23T14:02:47.550Z</time>
      </trkpt>
      <trkpt lat="46.11293" lon="3.66604">
        <ele>395.67309570312</ele>
        <time>2020-06-23T14:02:56.534Z</time>
      </trkpt>
      <trkpt lat="46.11293" lon="3.66604">
        <ele>395.67108154297</ele>
        <time>2020-06-23T14:03:05.518Z</time>
      </trkpt>
      <trkpt lat="46.11356" lon="3.66644">
        <ele>401.59121704102</ele>
        <time>2020-06-23T14:03:14.512Z</time>
      </trkpt>
      <trkpt lat="46.11556" lon="3.66675">
        <ele>379.72067260742</ele>
        <time>2020-06-23T14:03:23.539Z</time>
      </trkpt>
      <trkpt lat="46.11671" lon="3.66717">
        <ele>375.14855957031</ele>
        <time>2020-06-23T14:03:32.585Z</time>
      </trkpt>
      <trkpt lat="46.117" lon="3.66722">
        <ele>372.98187255859</ele>
        <time>2020-06-23T14:03:41.635Z</time>
      </trkpt>
      <trkpt lat="46.11705" lon="3.66715">
        <ele>371.96496582031</ele>
        <time>2020-06-23T14:03:50.687Z</time>
      </trkpt>
      <trkpt lat="46.11704" lon="3.66697">
        <ele>370.51037597656</ele>
        <time>2020-06-23T14:03:59.741Z</time>
      </trkpt>
      <trkpt lat="46.11656" lon="3.66677">
        <ele>372.04611206055</ele>
        <time>2020-06-23T14:04:08.803Z</time>
      </trkpt>
      <trkpt lat="46.11646" lon="3.66658">
        <ele>370.42358398438</ele>
        <time>2020-06-23T14:04:17.867Z</time>
      </trkpt>
      <trkpt lat="46.11663" lon="3.66603">
        <ele>364.02334594727</ele>
        <time>2020-06-23T14:04:26.938Z</time>
      </trkpt>
      <trkpt lat="46.11683" lon="3.66541">
        <ele>363.78839111328</ele>
        <time>2020-06-23T14:04:36.017Z</time>
      </trkpt>
      <trkpt lat="46.11688" lon="3.66526">
        <ele>363.54370117188</ele>
        <time>2020-06-23T14:04:45.097Z</time>
      </trkpt>
      <trkpt lat="46.11766" lon="3.66289">
        <ele>376.82901000977</ele>
        <time>2020-06-23T14:04:54.207Z</time>
      </trkpt>
      <trkpt lat="46.11766" lon="3.66289">
        <ele>376.83041381836</ele>
        <time>2020-06-23T14:05:03.317Z</time>
      </trkpt>
      <trkpt lat="46.11819" lon="3.66123">
        <ele>384.78598022461</ele>
        <time>2020-06-23T14:05:12.447Z</time>
      </trkpt>
      <trkpt lat="46.11833" lon="3.66098">
        <ele>384.77734375</ele>
        <time>2020-06-23T14:05:21.581Z</time>
      </trkpt>
      <trkpt lat="46.11851" lon="3.66077">
        <ele>388.65194702148</ele>
        <time>2020-06-23T14:05:30.718Z</time>
      </trkpt>
      <trkpt lat="46.11916" lon="3.66028">
        <ele>380.5979309082</ele>
        <time>2020-06-23T14:05:39.867Z</time>
      </trkpt>
      <trkpt lat="46.11989" lon="3.66007">
        <ele>382.32458496094</ele>
        <time>2020-06-23T14:05:49.028Z</time>
      </trkpt>
      <trkpt lat="46.12019" lon="3.65985">
        <ele>386.54675292969</ele>
        <time>2020-06-23T14:05:58.194Z</time>
      </trkpt>
      <trkpt lat="46.1206" lon="3.65928">
        <ele>387.57803344727</ele>
        <time>2020-06-23T14:06:07.369Z</time>
      </trkpt>
      <trkpt lat="46.12116" lon="3.65788">
        <ele>388.80407714844</ele>
        <time>2020-06-23T14:06:16.562Z</time>
      </trkpt>
      <trkpt lat="46.12116" lon="3.65788">
        <ele>388.80447387695</ele>
        <time>2020-06-23T14:06:25.755Z</time>
      </trkpt>
      <trkpt lat="46.12099" lon="3.65663">
        <ele>385.68563842773</ele>
        <time>2020-06-23T14:06:34.963Z</time>
      </trkpt>
      <trkpt lat="46.12114" lon="3.65526">
        <ele>397.67330932617</ele>
        <time>2020-06-23T14:06:44.186Z</time>
      </trkpt>
      <trkpt lat="46.1212" lon="3.65404">
        <ele>400.32086181641</ele>
        <time>2020-06-23T14:06:53.423Z</time>
      </trkpt>
      <trkpt lat="46.12129" lon="3.65362">
        <ele>401.90417480469</ele>
        <time>2020-06-23T14:07:02.665Z</time>
      </trkpt>
      <trkpt lat="46.1218" lon="3.65292">
        <ele>406.44641113281</ele>
        <time>2020-06-23T14:07:11.918Z</time>
      </trkpt>
      <trkpt lat="46.1222" lon="3.65266">
        <ele>410.42614746094</ele>
        <time>2020-06-23T14:07:21.178Z</time>
      </trkpt>
      <trkpt lat="46.12288" lon="3.65246">
        <ele>416.04370117188</ele>
        <time>2020-06-23T14:07:30.449Z</time>
      </trkpt>
      <trkpt lat="46.12322" lon="3.65215">
        <ele>418.39859008789</ele>
        <time>2020-06-23T14:07:39.726Z</time>
      </trkpt>
      <trkpt lat="46.12332" lon="3.6518">
        <ele>419.56872558594</ele>
        <time>2020-06-23T14:07:49.008Z</time>
      </trkpt>
      <trkpt lat="46.12356" lon="3.64902">
        <ele>434.38333129883</ele>
        <time>2020-06-23T14:07:58.321Z</time>
      </trkpt>
      <trkpt lat="46.12373" lon="3.64851">
        <ele>437.43377685547</ele>
        <time>2020-06-23T14:08:07.640Z</time>
      </trkpt>
      <trkpt lat="46.12434" lon="3.64798">
        <ele>443.72994995117</ele>
        <time>2020-06-23T14:08:16.971Z</time>
      </trkpt>
      <trkpt lat="46.12499" lon="3.64668">
        <ele>453.42221069336</ele>
        <time>2020-06-23T14:08:26.319Z</time>
      </trkpt>
      <trkpt lat="46.12533" lon="3.64616">
        <ele>455.98553466797</ele>
        <time>2020-06-23T14:08:35.675Z</time>
      </trkpt>
      <trkpt lat="46.12579" lon="3.64574">
        <ele>457.94839477539</ele>
        <time>2020-06-23T14:08:45.040Z</time>
      </trkpt>
      <trkpt lat="46.12699" lon="3.64521">
        <ele>464.54229736328</ele>
        <time>2020-06-23T14:08:54.425Z</time>
      </trkpt>
      <trkpt lat="46.12723" lon="3.64498">
        <ele>467.13641357422</ele>
        <time>2020-06-23T14:09:03.815Z</time>
      </trkpt>
      <trkpt lat="46.1273" lon="3.64464">
        <ele>470.42666625977</ele>
        <time>2020-06-23T14:09:13.209Z</time>
      </trkpt>
      <trkpt lat="46.12726" lon="3.64409">
        <ele>473.36282348633</ele>
        <time>2020-06-23T14:09:22.609Z</time>
      </trkpt>
      <trkpt lat="46.12729" lon="3.64387">
        <ele>474.17730712891</ele>
        <time>2020-06-23T14:09:32.011Z</time>
      </trkpt>
      <trkpt lat="46.12813" lon="3.64269">
        <ele>482.09295654297</ele>
        <time>2020-06-23T14:09:41.432Z</time>
      </trkpt>
      <trkpt lat="46.1286" lon="3.64176">
        <ele>484.25524902344</ele>
        <time>2020-06-23T14:09:50.866Z</time>
      </trkpt>
      <trkpt lat="46.12863" lon="3.64116">
        <ele>484.78335571289</ele>
        <time>2020-06-23T14:10:00.306Z</time>
      </trkpt>
      <trkpt lat="46.12831" lon="3.63961">
        <ele>486.13119506836</ele>
        <time>2020-06-23T14:10:09.765Z</time>
      </trkpt>
      <trkpt lat="46.12831" lon="3.63961">
        <ele>486.13150024414</ele>
        <time>2020-06-23T14:10:19.224Z</time>
      </trkpt>
      <trkpt lat="46.12801" lon="3.63813">
        <ele>484.34814453125</ele>
        <time>2020-06-23T14:10:28.700Z</time>
      </trkpt>
      <trkpt lat="46.12806" lon="3.63715">
        <ele>483.35317993164</ele>
        <time>2020-06-23T14:10:38.187Z</time>
      </trkpt>
      <trkpt lat="46.12831" lon="3.63509">
        <ele>476.28860473633</ele>
        <time>2020-06-23T14:10:47.697Z</time>
      </trkpt>
      <trkpt lat="46.12865" lon="3.63215">
        <ele>477.67813110352</ele>
        <time>2020-06-23T14:10:57.240Z</time>
      </trkpt>
      <trkpt lat="46.12874" lon="3.63193">
        <ele>477.44644165039</ele>
        <time>2020-06-23T14:11:06.786Z</time>
      </trkpt>
      <trkpt lat="46.12992" lon="3.63003">
        <ele>471.92910766602</ele>
        <time>2020-06-23T14:11:16.360Z</time>
      </trkpt>
      <trkpt lat="46.13028" lon="3.62913">
        <ele>468.93490600586</ele>
        <time>2020-06-23T14:11:25.946Z</time>
      </trkpt>
      <trkpt lat="46.13053" lon="3.62825">
        <ele>473.71981811523</ele>
        <time>2020-06-23T14:11:35.542Z</time>
      </trkpt>
      <trkpt lat="46.13077" lon="3.62604">
        <ele>478.96536254883</ele>
        <time>2020-06-23T14:11:45.163Z</time>
      </trkpt>
      <trkpt lat="46.13142" lon="3.62287">
        <ele>471.41738891602</ele>
        <time>2020-06-23T14:11:54.821Z</time>
      </trkpt>
      <trkpt lat="46.13144" lon="3.62276">
        <ele>471.17593383789</ele>
        <time>2020-06-23T14:12:04.480Z</time>
      </trkpt>
      <trkpt lat="46.13208" lon="3.61962">
        <ele>474.41128540039</ele>
        <time>2020-06-23T14:12:14.176Z</time>
      </trkpt>
      <trkpt lat="46.13215" lon="3.61913">
        <ele>475.63943481445</ele>
        <time>2020-06-23T14:12:23.877Z</time>
      </trkpt>
      <trkpt lat="46.13214" lon="3.61819">
        <ele>478.43154907227</ele>
        <time>2020-06-23T14:12:33.589Z</time>
      </trkpt>
      <trkpt lat="46.13214" lon="3.61819">
        <ele>478.43215942383</ele>
        <time>2020-06-23T14:12:43.301Z</time>
      </trkpt>
      <trkpt lat="46.13213" lon="3.61644">
        <ele>477.67263793945</ele>
        <time>2020-06-23T14:12:53.032Z</time>
      </trkpt>
      <trkpt lat="46.13241" lon="3.61397">
        <ele>461.29330444336</ele>
        <time>2020-06-23T14:13:02.791Z</time>
      </trkpt>
      <trkpt lat="46.13268" lon="3.6134">
        <ele>457.88348388672</ele>
        <time>2020-06-23T14:13:12.558Z</time>
      </trkpt>
      <trkpt lat="46.1332" lon="3.61259">
        <ele>456.76919555664</ele>
        <time>2020-06-23T14:13:22.337Z</time>
      </trkpt>
      <trkpt lat="46.13332" lon="3.61215">
        <ele>456.87219238281</ele>
        <time>2020-06-23T14:13:32.121Z</time>
      </trkpt>
      <trkpt lat="46.13331" lon="3.61153">
        <ele>460.56045532227</ele>
        <time>2020-06-23T14:13:41.912Z</time>
      </trkpt>
      <trkpt lat="46.13299" lon="3.61009">
        <ele>469.72595214844</ele>
        <time>2020-06-23T14:13:51.720Z</time>
      </trkpt>
      <trkpt lat="46.13301" lon="3.60945">
        <ele>473.12426757812</ele>
        <time>2020-06-23T14:14:01.535Z</time>
      </trkpt>
      <trkpt lat="46.13314" lon="3.60881">
        <ele>475.87780761719</ele>
        <time>2020-06-23T14:14:11.358Z</time>
      </trkpt>
      <trkpt lat="46.13333" lon="3.60822">
        <ele>477.24893188477</ele>
        <time>2020-06-23T14:14:21.188Z</time>
      </trkpt>
      <trkpt lat="46.13676" lon="3.60222">
        <ele>462.37396240234</ele>
        <time>2020-06-23T14:14:31.104Z</time>
      </trkpt>
      <trkpt lat="46.13676" lon="3.60222">
        <ele>462.37384033203</ele>
        <time>2020-06-23T14:14:41.020Z</time>
      </trkpt>
      <trkpt lat="46.13676" lon="3.60222">
        <ele>462.37396240234</ele>
        <time>2020-06-23T14:14:50.936Z</time>
      </trkpt>
      <trkpt lat="46.13618" lon="3.60225">
        <ele>462.60906982422</ele>
        <time>2020-06-23T14:15:00.862Z</time>
      </trkpt>
      <trkpt lat="46.1351" lon="3.60204">
        <ele>462.54446411133</ele>
        <time>2020-06-23T14:15:10.805Z</time>
      </trkpt>
      <trkpt lat="46.13447" lon="3.60218">
        <ele>465.04531860352</ele>
        <time>2020-06-23T14:15:20.758Z</time>
      </trkpt>
      <trkpt lat="46.13376" lon="3.60212">
        <ele>465.86563110352</ele>
        <time>2020-06-23T14:15:30.723Z</time>
      </trkpt>
      <trkpt lat="46.13253" lon="3.60109">
        <ele>463.74887084961</ele>
        <time>2020-06-23T14:15:40.711Z</time>
      </trkpt>
      <trkpt lat="46.1317" lon="3.60001">
        <ele>457.78649902344</ele>
        <time>2020-06-23T14:15:50.716Z</time>
      </trkpt>
      <trkpt lat="46.13072" lon="3.59947">
        <ele>457.41763305664</ele>
        <time>2020-06-23T14:16:00.738Z</time>
      </trkpt>
      <trkpt lat="46.13003" lon="3.59925">
        <ele>454.66149902344</ele>
        <time>2020-06-23T14:16:10.772Z</time>
      </trkpt>
      <trkpt lat="46.12909" lon="3.59861">
        <ele>452.23062133789</ele>
        <time>2020-06-23T14:16:20.822Z</time>
      </trkpt>
      <trkpt lat="46.12861" lon="3.59803">
        <ele>450.68173217773</ele>
        <time>2020-06-23T14:16:30.882Z</time>
      </trkpt>
      <trkpt lat="46.12818" lon="3.59714">
        <ele>449.34350585938</ele>
        <time>2020-06-23T14:16:40.954Z</time>
      </trkpt>
      <trkpt lat="46.12818" lon="3.59714">
        <ele>449.34390258789</ele>
        <time>2020-06-23T14:16:51.026Z</time>
      </trkpt>
      <trkpt lat="46.12772" lon="3.59633">
        <ele>448.64898681641</ele>
        <time>2020-06-23T14:17:01.110Z</time>
      </trkpt>
      <trkpt lat="46.1274" lon="3.59595">
        <ele>448.63629150391</ele>
        <time>2020-06-23T14:17:11.201Z</time>
      </trkpt>
      <trkpt lat="46.1261" lon="3.59532">
        <ele>440.02450561523</ele>
        <time>2020-06-23T14:17:21.314Z</time>
      </trkpt>
      <trkpt lat="46.12475" lon="3.59503">
        <ele>431.82437133789</ele>
        <time>2020-06-23T14:17:31.448Z</time>
      </trkpt>
      <trkpt lat="46.12387" lon="3.59522">
        <ele>426.1682434082</ele>
        <time>2020-06-23T14:17:41.597Z</time>
      </trkpt>
      <trkpt lat="46.12352" lon="3.59535">
        <ele>422.51245117188</ele>
        <time>2020-06-23T14:17:51.751Z</time>
      </trkpt>
      <trkpt lat="46.12345" lon="3.59547">
        <ele>421.17370605469</ele>
        <time>2020-06-23T14:18:01.907Z</time>
      </trkpt>
      <trkpt lat="46.12336" lon="3.59635">
        <ele>417.06265258789</ele>
        <time>2020-06-23T14:18:12.073Z</time>
      </trkpt>
      <trkpt lat="46.12305" lon="3.59633">
        <ele>415.00054931641</ele>
        <time>2020-06-23T14:18:22.244Z</time>
      </trkpt>
      <trkpt lat="46.12267" lon="3.59613">
        <ele>413.6103515625</ele>
        <time>2020-06-23T14:18:32.422Z</time>
      </trkpt>
      <trkpt lat="46.12224" lon="3.59557">
        <ele>411.95858764648</ele>
        <time>2020-06-23T14:18:42.609Z</time>
      </trkpt>
      <trkpt lat="46.12178" lon="3.59469">
        <ele>410.80905151367</ele>
        <time>2020-06-23T14:18:52.808Z</time>
      </trkpt>
      <trkpt lat="46.12107" lon="3.5925">
        <ele>415.44415283203</ele>
        <time>2020-06-23T14:19:03.034Z</time>
      </trkpt>
      <trkpt lat="46.12092" lon="3.59222">
        <ele>418.224609375</ele>
        <time>2020-06-23T14:19:13.264Z</time>
      </trkpt>
      <trkpt lat="46.12069" lon="3.592">
        <ele>421.41696166992</ele>
        <time>2020-06-23T14:19:23.498Z</time>
      </trkpt>
      <trkpt lat="46.11982" lon="3.59154">
        <ele>426.75091552734</ele>
        <time>2020-06-23T14:19:33.747Z</time>
      </trkpt>
      <trkpt lat="46.1196" lon="3.59136">
        <ele>428.66439819336</ele>
        <time>2020-06-23T14:19:44.000Z</time>
      </trkpt>
      <trkpt lat="46.11836" lon="3.58999">
        <ele>438.11798095703</ele>
        <time>2020-06-23T14:19:54.278Z</time>
      </trkpt>
      <trkpt lat="46.11776" lon="3.58915">
        <ele>442.34210205078</ele>
        <time>2020-06-23T14:20:04.570Z</time>
      </trkpt>
      <trkpt lat="46.11723" lon="3.58876">
        <ele>442.80825805664</ele>
        <time>2020-06-23T14:20:14.871Z</time>
      </trkpt>
      <trkpt lat="46.11659" lon="3.58845">
        <ele>445.24935913086</ele>
        <time>2020-06-23T14:20:25.183Z</time>
      </trkpt>
      <trkpt lat="46.11557" lon="3.58767">
        <ele>457.17864990234</ele>
        <time>2020-06-23T14:20:35.513Z</time>
      </trkpt>
      <trkpt lat="46.11499" lon="3.58677">
        <ele>461.93780517578</ele>
        <time>2020-06-23T14:20:45.857Z</time>
      </trkpt>
      <trkpt lat="46.11463" lon="3.58654">
        <ele>465.64178466797</ele>
        <time>2020-06-23T14:20:56.207Z</time>
      </trkpt>
      <trkpt lat="46.11425" lon="3.58645">
        <ele>467.95620727539</ele>
        <time>2020-06-23T14:21:06.564Z</time>
      </trkpt>
      <trkpt lat="46.11363" lon="3.58599">
        <ele>473.17861938477</ele>
        <time>2020-06-23T14:21:16.932Z</time>
      </trkpt>
      <trkpt lat="46.11322" lon="3.58548">
        <ele>475.76690673828</ele>
        <time>2020-06-23T14:21:27.308Z</time>
      </trkpt>
      <trkpt lat="46.11314" lon="3.58526">
        <ele>475.88275146484</ele>
        <time>2020-06-23T14:21:37.687Z</time>
      </trkpt>
      <trkpt lat="46.11306" lon="3.58448">
        <ele>475.54132080078</ele>
        <time>2020-06-23T14:21:48.075Z</time>
      </trkpt>
      <trkpt lat="46.11199" lon="3.58258">
        <ele>482.11614990234</ele>
        <time>2020-06-23T14:21:58.490Z</time>
      </trkpt>
      <trkpt lat="46.11168" lon="3.58175">
        <ele>483.12017822266</ele>
        <time>2020-06-23T14:22:08.916Z</time>
      </trkpt>
      <trkpt lat="46.11151" lon="3.58173">
        <ele>483.14593505859</ele>
        <time>2020-06-23T14:22:19.344Z</time>
      </trkpt>
      <trkpt lat="46.11136" lon="3.58132">
        <ele>483.63510131836</ele>
        <time>2020-06-23T14:22:29.778Z</time>
      </trkpt>
      <trkpt lat="46.11116" lon="3.58097">
        <ele>484.0940246582</ele>
        <time>2020-06-23T14:22:40.217Z</time>
      </trkpt>
      <trkpt lat="46.10992" lon="3.57932">
        <ele>482.09289550781</ele>
        <time>2020-06-23T14:22:50.683Z</time>
      </trkpt>
      <trkpt lat="46.10966" lon="3.57871">
        <ele>479.4548034668</ele>
        <time>2020-06-23T14:23:01.157Z</time>
      </trkpt>
      <trkpt lat="46.10966" lon="3.57871">
        <ele>479.45501708984</ele>
        <time>2020-06-23T14:23:11.631Z</time>
      </trkpt>
      <trkpt lat="46.10961" lon="3.57846">
        <ele>478.73370361328</ele>
        <time>2020-06-23T14:23:22.107Z</time>
      </trkpt>
      <trkpt lat="46.1096" lon="3.57783">
        <ele>477.77288818359</ele>
        <time>2020-06-23T14:23:32.591Z</time>
      </trkpt>
      <trkpt lat="46.10961" lon="3.57768">
        <ele>477.38671875</ele>
        <time>2020-06-23T14:23:43.076Z</time>
      </trkpt>
      <trkpt lat="46.11077" lon="3.57426">
        <ele>474.2063293457</ele>
        <time>2020-06-23T14:23:53.604Z</time>
      </trkpt>
      <trkpt lat="46.11095" lon="3.57339">
        <ele>473.85217285156</ele>
        <time>2020-06-23T14:24:04.142Z</time>
      </trkpt>
      <trkpt lat="46.11097" lon="3.57295">
        <ele>473.79678344727</ele>
        <time>2020-06-23T14:24:14.685Z</time>
      </trkpt>
      <trkpt lat="46.11049" lon="3.56837">
        <ele>468.93399047852</ele>
        <time>2020-06-23T14:24:25.279Z</time>
      </trkpt>
      <trkpt lat="46.1106" lon="3.5669">
        <ele>472.83111572266</ele>
        <time>2020-06-23T14:24:35.890Z</time>
      </trkpt>
      <trkpt lat="46.11039" lon="3.56438">
        <ele>473.94387817383</ele>
        <time>2020-06-23T14:24:46.529Z</time>
      </trkpt>
      <trkpt lat="46.11034" lon="3.56436">
        <ele>473.75079345703</ele>
        <time>2020-06-23T14:24:57.169Z</time>
      </trkpt>
      <trkpt lat="46.10992" lon="3.56301">
        <ele>467.84140014648</ele>
        <time>2020-06-23T14:25:07.825Z</time>
      </trkpt>
      <trkpt lat="46.10977" lon="3.56249">
        <ele>464.87106323242</ele>
        <time>2020-06-23T14:25:18.487Z</time>
      </trkpt>
      <trkpt lat="46.10987" lon="3.56138">
        <ele>461.26428222656</ele>
        <time>2020-06-23T14:25:29.162Z</time>
      </trkpt>
      <trkpt lat="46.10984" lon="3.56098">
        <ele>460.71038818359</ele>
        <time>2020-06-23T14:25:39.841Z</time>
      </trkpt>
      <trkpt lat="46.10971" lon="3.5607">
        <ele>460.96859741211</ele>
        <time>2020-06-23T14:25:50.524Z</time>
      </trkpt>
      <trkpt lat="46.10865" lon="3.56033">
        <ele>455.20599365234</ele>
        <time>2020-06-23T14:26:01.225Z</time>
      </trkpt>
      <trkpt lat="46.10845" lon="3.56021">
        <ele>455.56622314453</ele>
        <time>2020-06-23T14:26:11.929Z</time>
      </trkpt>
      <trkpt lat="46.10818" lon="3.55985">
        <ele>459.12008666992</ele>
        <time>2020-06-23T14:26:22.639Z</time>
      </trkpt>
      <trkpt lat="46.10811" lon="3.5595">
        <ele>463.1877746582</ele>
        <time>2020-06-23T14:26:33.353Z</time>
      </trkpt>
      <trkpt lat="46.10812" lon="3.55876">
        <ele>466.44876098633</ele>
        <time>2020-06-23T14:26:44.075Z</time>
      </trkpt>
      <trkpt lat="46.10786" lon="3.55856">
        <ele>465.42254638672</ele>
        <time>2020-06-23T14:26:54.802Z</time>
      </trkpt>
      <trkpt lat="46.10786" lon="3.55823">
        <ele>464.72283935547</ele>
        <time>2020-06-23T14:27:05.533Z</time>
      </trkpt>
      <trkpt lat="46.10783" lon="3.55769">
        <ele>465.01892089844</ele>
        <time>2020-06-23T14:27:16.270Z</time>
      </trkpt>
      <trkpt lat="46.10781" lon="3.55624">
        <ele>459.07150268555</ele>
        <time>2020-06-23T14:27:27.023Z</time>
      </trkpt>
      <trkpt lat="46.10796" lon="3.55583">
        <ele>458.76361083984</ele>
        <time>2020-06-23T14:27:37.781Z</time>
      </trkpt>
      <trkpt lat="46.10804" lon="3.55531">
        <ele>453.51165771484</ele>
        <time>2020-06-23T14:27:48.545Z</time>
      </trkpt>
      <trkpt lat="46.10815" lon="3.55444">
        <ele>449.244140625</ele>
        <time>2020-06-23T14:27:59.319Z</time>
      </trkpt>
      <trkpt lat="46.10817" lon="3.55354">
        <ele>443.94223022461</ele>
        <time>2020-06-23T14:28:10.103Z</time>
      </trkpt>
      <trkpt lat="46.1078" lon="3.55196">
        <ele>431.16693115234</ele>
        <time>2020-06-23T14:28:20.905Z</time>
      </trkpt>
      <trkpt lat="46.10726" lon="3.55071">
        <ele>422.39886474609</ele>
        <time>2020-06-23T14:28:31.724Z</time>
      </trkpt>
      <trkpt lat="46.10652" lon="3.54961">
        <ele>404.97091674805</ele>
        <time>2020-06-23T14:28:42.560Z</time>
      </trkpt>
      <trkpt lat="46.10636" lon="3.54914">
        <ele>399.13754272461</ele>
        <time>2020-06-23T14:28:53.402Z</time>
      </trkpt>
      <trkpt lat="46.10569" lon="3.5486">
        <ele>392.94589233398</ele>
        <time>2020-06-23T14:29:04.256Z</time>
      </trkpt>
      <trkpt lat="46.10569" lon="3.5486">
        <ele>392.94607543945</ele>
        <time>2020-06-23T14:29:15.110Z</time>
      </trkpt>
      <trkpt lat="46.10552" lon="3.54849">
        <ele>392.00506591797</ele>
        <time>2020-06-23T14:29:25.967Z</time>
      </trkpt>
      <trkpt lat="46.10453" lon="3.5484">
        <ele>390.20477294922</ele>
        <time>2020-06-23T14:29:36.840Z</time>
      </trkpt>
      <trkpt lat="46.10399" lon="3.54798">
        <ele>391.90393066406</ele>
        <time>2020-06-23T14:29:47.723Z</time>
      </trkpt>
      <trkpt lat="46.10384" lon="3.54763">
        <ele>393.39529418945</ele>
        <time>2020-06-23T14:29:58.610Z</time>
      </trkpt>
      <trkpt lat="46.10371" lon="3.54667">
        <ele>396.89590454102</ele>
        <time>2020-06-23T14:30:09.508Z</time>
      </trkpt>
      <trkpt lat="46.10351" lon="3.54602">
        <ele>399.37805175781</ele>
        <time>2020-06-23T14:30:20.414Z</time>
      </trkpt>
      <trkpt lat="46.10325" lon="3.54571">
        <ele>400.51544189453</ele>
        <time>2020-06-23T14:30:31.326Z</time>
      </trkpt>
      <trkpt lat="46.1029" lon="3.54554">
        <ele>397.88577270508</ele>
        <time>2020-06-23T14:30:42.243Z</time>
      </trkpt>
      <trkpt lat="46.10166" lon="3.54401">
        <ele>398.98181152344</ele>
        <time>2020-06-23T14:30:53.187Z</time>
      </trkpt>
      <trkpt lat="46.10166" lon="3.54401">
        <ele>398.98342895508</ele>
        <time>2020-06-23T14:31:04.131Z</time>
      </trkpt>
      <trkpt lat="46.1012" lon="3.54404">
        <ele>394.52130126953</ele>
        <time>2020-06-23T14:31:15.082Z</time>
      </trkpt>
      <trkpt lat="46.1009" lon="3.5439">
        <ele>397.72653198242</ele>
        <time>2020-06-23T14:31:26.038Z</time>
      </trkpt>
      <trkpt lat="46.09928" lon="3.54211">
        <ele>405.63681030273</ele>
        <time>2020-06-23T14:31:37.027Z</time>
      </trkpt>
      <trkpt lat="46.09911" lon="3.54201">
        <ele>403.88616943359</ele>
        <time>2020-06-23T14:31:48.019Z</time>
      </trkpt>
      <trkpt lat="46.09886" lon="3.54193">
        <ele>402.00143432617</ele>
        <time>2020-06-23T14:31:59.015Z</time>
      </trkpt>
      <trkpt lat="46.09811" lon="3.54206">
        <ele>405.24530029297</ele>
        <time>2020-06-23T14:32:10.023Z</time>
      </trkpt>
      <trkpt lat="46.09741" lon="3.54243">
        <ele>409.86996459961</ele>
        <time>2020-06-23T14:32:21.043Z</time>
      </trkpt>
      <trkpt lat="46.09728" lon="3.54239">
        <ele>412.45874023438</ele>
        <time>2020-06-23T14:32:32.065Z</time>
      </trkpt>
      <trkpt lat="46.09666" lon="3.54291">
        <ele>405.33248901367</ele>
        <time>2020-06-23T14:32:43.098Z</time>
      </trkpt>
      <trkpt lat="46.09563" lon="3.54282">
        <ele>398.70855712891</ele>
        <time>2020-06-23T14:32:54.148Z</time>
      </trkpt>
      <trkpt lat="46.09515" lon="3.54317">
        <ele>390.83090209961</ele>
        <time>2020-06-23T14:33:05.206Z</time>
      </trkpt>
      <trkpt lat="46.0934" lon="3.54235">
        <ele>368.36871337891</ele>
        <time>2020-06-23T14:33:16.294Z</time>
      </trkpt>
      <trkpt lat="46.09316" lon="3.54235">
        <ele>366.66955566406</ele>
        <time>2020-06-23T14:33:27.386Z</time>
      </trkpt>
      <trkpt lat="46.09271" lon="3.54252">
        <ele>365.1901550293</ele>
        <time>2020-06-23T14:33:38.485Z</time>
      </trkpt>
      <trkpt lat="46.0924" lon="3.54281">
        <ele>360.94003295898</ele>
        <time>2020-06-23T14:33:49.590Z</time>
      </trkpt>
      <trkpt lat="46.09237" lon="3.54308">
        <ele>359.26663208008</ele>
        <time>2020-06-23T14:34:00.698Z</time>
      </trkpt>
      <trkpt lat="46.09252" lon="3.54355">
        <ele>358.64163208008</ele>
        <time>2020-06-23T14:34:11.812Z</time>
      </trkpt>
      <trkpt lat="46.09245" lon="3.54368">
        <ele>356.78799438477</ele>
        <time>2020-06-23T14:34:22.928Z</time>
      </trkpt>
      <trkpt lat="46.09237" lon="3.54378">
        <ele>357.17495727539</ele>
        <time>2020-06-23T14:34:34.045Z</time>
      </trkpt>
      <trkpt lat="46.09192" lon="3.54321">
        <ele>355.39822387695</ele>
        <time>2020-06-23T14:34:45.172Z</time>
      </trkpt>
      <trkpt lat="46.09171" lon="3.54307">
        <ele>354.92193603516</ele>
        <time>2020-06-23T14:34:56.302Z</time>
      </trkpt>
      <trkpt lat="46.09137" lon="3.54338">
        <ele>352.00338745117</ele>
        <time>2020-06-23T14:35:07.439Z</time>
      </trkpt>
      <trkpt lat="46.09112" lon="3.54335">
        <ele>352.33203125</ele>
        <time>2020-06-23T14:35:18.580Z</time>
      </trkpt>
      <trkpt lat="46.08984" lon="3.54163">
        <ele>346.41656494141</ele>
        <time>2020-06-23T14:35:29.749Z</time>
      </trkpt>
      <trkpt lat="46.08883" lon="3.54049">
        <ele>348.95907592773</ele>
        <time>2020-06-23T14:35:40.939Z</time>
      </trkpt>
      <trkpt lat="46.08875" lon="3.54051">
        <ele>349.95022583008</ele>
        <time>2020-06-23T14:35:52.130Z</time>
      </trkpt>
      <trkpt lat="46.08845" lon="3.53994">
        <ele>348.77883911133</ele>
        <time>2020-06-23T14:36:03.329Z</time>
      </trkpt>
      <trkpt lat="46.08825" lon="3.53928">
        <ele>349.3498840332</ele>
        <time>2020-06-23T14:36:14.536Z</time>
      </trkpt>
      <trkpt lat="46.088" lon="3.53865">
        <ele>350.61077880859</ele>
        <time>2020-06-23T14:36:25.751Z</time>
      </trkpt>
      <trkpt lat="46.08741" lon="3.53789">
        <ele>341.10507202148</ele>
        <time>2020-06-23T14:36:36.978Z</time>
      </trkpt>
      <trkpt lat="46.08713" lon="3.53753">
        <ele>337.97756958008</ele>
        <time>2020-06-23T14:36:48.211Z</time>
      </trkpt>
      <trkpt lat="46.0869" lon="3.53738">
        <ele>337.80899047852</ele>
        <time>2020-06-23T14:36:59.449Z</time>
      </trkpt>
      <trkpt lat="46.08665" lon="3.53739">
        <ele>337.19131469727</ele>
        <time>2020-06-23T14:37:10.691Z</time>
      </trkpt>
      <trkpt lat="46.08528" lon="3.53794">
        <ele>340.58349609375</ele>
        <time>2020-06-23T14:37:21.955Z</time>
      </trkpt>
      <trkpt lat="46.08528" lon="3.53794">
        <ele>340.58309936523</ele>
        <time>2020-06-23T14:37:33.219Z</time>
      </trkpt>
      <trkpt lat="46.08499" lon="3.53807">
        <ele>341.08950805664</ele>
        <time>2020-06-23T14:37:44.488Z</time>
      </trkpt>
      <trkpt lat="46.08499" lon="3.53807">
        <ele>341.08853149414</ele>
        <time>2020-06-23T14:37:55.757Z</time>
      </trkpt>
      <trkpt lat="46.08499" lon="3.53807">
        <ele>341.08920288086</ele>
        <time>2020-06-23T14:38:07.026Z</time>
      </trkpt>
      <trkpt lat="46.08354" lon="3.53871">
        <ele>350.62057495117</ele>
        <time>2020-06-23T14:38:18.319Z</time>
      </trkpt>
      <trkpt lat="46.0831" lon="3.53911">
        <ele>351.68182373047</ele>
        <time>2020-06-23T14:38:29.621Z</time>
      </trkpt>
      <trkpt lat="46.08277" lon="3.53915">
        <ele>353.77517700195</ele>
        <time>2020-06-23T14:38:40.928Z</time>
      </trkpt>
      <trkpt lat="46.08277" lon="3.53915">
        <ele>353.77438354492</ele>
        <time>2020-06-23T14:38:52.235Z</time>
      </trkpt>
      <trkpt lat="46.08221" lon="3.53922">
        <ele>356.59158325195</ele>
        <time>2020-06-23T14:39:03.551Z</time>
      </trkpt>
      <trkpt lat="46.08199" lon="3.53909">
        <ele>356.38076782227</ele>
        <time>2020-06-23T14:39:14.871Z</time>
      </trkpt>
      <trkpt lat="46.0818" lon="3.53883">
        <ele>358.62542724609</ele>
        <time>2020-06-23T14:39:26.195Z</time>
      </trkpt>
      <trkpt lat="46.08163" lon="3.53817">
        <ele>366.6806640625</ele>
        <time>2020-06-23T14:39:37.527Z</time>
      </trkpt>
      <trkpt lat="46.08156" lon="3.5381">
        <ele>366.60345458984</ele>
        <time>2020-06-23T14:39:48.860Z</time>
      </trkpt>
      <trkpt lat="46.08101" lon="3.53836">
        <ele>363.50927734375</ele>
        <time>2020-06-23T14:40:00.203Z</time>
      </trkpt>
      <trkpt lat="46.08045" lon="3.5383">
        <ele>367.28811645508</ele>
        <time>2020-06-23T14:40:11.555Z</time>
      </trkpt>
      <trkpt lat="46.08013" lon="3.53863">
        <ele>365.04306030273</ele>
        <time>2020-06-23T14:40:22.913Z</time>
      </trkpt>
      <trkpt lat="46.07992" lon="3.53867">
        <ele>366.95376586914</ele>
        <time>2020-06-23T14:40:34.274Z</time>
      </trkpt>
      <trkpt lat="46.07895" lon="3.53826">
        <ele>387.76821899414</ele>
        <time>2020-06-23T14:40:45.651Z</time>
      </trkpt>
      <trkpt lat="46.07895" lon="3.53826">
        <ele>387.76708984375</ele>
        <time>2020-06-23T14:40:57.028Z</time>
      </trkpt>
      <trkpt lat="46.07871" lon="3.5381">
        <ele>388.86605834961</ele>
        <time>2020-06-23T14:41:08.410Z</time>
      </trkpt>
      <trkpt lat="46.0777" lon="3.53669">
        <ele>403.14636230469</ele>
        <time>2020-06-23T14:41:19.814Z</time>
      </trkpt>
      <trkpt lat="46.07751" lon="3.5368">
        <ele>398.94995117188</ele>
        <time>2020-06-23T14:41:31.222Z</time>
      </trkpt>
      <trkpt lat="46.07735" lon="3.53691">
        <ele>394.82958984375</ele>
        <time>2020-06-23T14:41:42.632Z</time>
      </trkpt>
      <trkpt lat="46.07713" lon="3.53685">
        <ele>395.59466552734</ele>
        <time>2020-06-23T14:41:54.046Z</time>
      </trkpt>
      <trkpt lat="46.07678" lon="3.53649">
        <ele>401.07409667969</ele>
        <time>2020-06-23T14:42:05.467Z</time>
      </trkpt>
      <trkpt lat="46.07641" lon="3.53567">
        <ele>414.78790283203</ele>
        <time>2020-06-23T14:42:16.899Z</time>
      </trkpt>
      <trkpt lat="46.07625" lon="3.53546">
        <ele>417.59411621094</ele>
        <time>2020-06-23T14:42:28.334Z</time>
      </trkpt>
      <trkpt lat="46.07598" lon="3.53555">
        <ele>413.59075927734</ele>
        <time>2020-06-23T14:42:39.774Z</time>
      </trkpt>
      <trkpt lat="46.07591" lon="3.53572">
        <ele>411.14868164062</ele>
        <time>2020-06-23T14:42:51.216Z</time>
      </trkpt>
      <trkpt lat="46.07587" lon="3.53606">
        <ele>406.70385742188</ele>
        <time>2020-06-23T14:43:02.662Z</time>
      </trkpt>
      <trkpt lat="46.0757" lon="3.53626">
        <ele>405.50848388672</ele>
        <time>2020-06-23T14:43:14.111Z</time>
      </trkpt>
      <trkpt lat="46.0755" lon="3.53619">
        <ele>406.2160949707</ele>
        <time>2020-06-23T14:43:25.563Z</time>
      </trkpt>
      <trkpt lat="46.07498" lon="3.53541">
        <ele>416.28411865234</ele>
        <time>2020-06-23T14:43:37.027Z</time>
      </trkpt>
      <trkpt lat="46.07498" lon="3.53541">
        <ele>416.28421020508</ele>
        <time>2020-06-23T14:43:48.491Z</time>
      </trkpt>
      <trkpt lat="46.07455" lon="3.53499">
        <ele>419.58862304688</ele>
        <time>2020-06-23T14:43:59.964Z</time>
      </trkpt>
      <trkpt lat="46.07438" lon="3.53468">
        <ele>422.02084350586</ele>
        <time>2020-06-23T14:44:11.441Z</time>
      </trkpt>
      <trkpt lat="46.07418" lon="3.53421">
        <ele>425.00341796875</ele>
        <time>2020-06-23T14:44:22.924Z</time>
      </trkpt>
      <trkpt lat="46.07416" lon="3.53392">
        <ele>424.93905639648</ele>
        <time>2020-06-23T14:44:34.411Z</time>
      </trkpt>
      <trkpt lat="46.07463" lon="3.53308">
        <ele>436.04153442383</ele>
        <time>2020-06-23T14:44:45.910Z</time>
      </trkpt>
      <trkpt lat="46.07479" lon="3.53298">
        <ele>437.00491333008</ele>
        <time>2020-06-23T14:44:57.411Z</time>
      </trkpt>
      <trkpt lat="46.0753" lon="3.53297">
        <ele>442.33404541016</ele>
        <time>2020-06-23T14:45:08.920Z</time>
      </trkpt>
      <trkpt lat="46.07541" lon="3.53285">
        <ele>444.05895996094</ele>
        <time>2020-06-23T14:45:20.432Z</time>
      </trkpt>
      <trkpt lat="46.07539" lon="3.53267">
        <ele>444.32928466797</ele>
        <time>2020-06-23T14:45:31.946Z</time>
      </trkpt>
      <trkpt lat="46.07518" lon="3.53217">
        <ele>442.2073059082</ele>
        <time>2020-06-23T14:45:43.466Z</time>
      </trkpt>
      <trkpt lat="46.07514" lon="3.53182">
        <ele>442.46762084961</ele>
        <time>2020-06-23T14:45:54.990Z</time>
      </trkpt>
      <trkpt lat="46.0752" lon="3.53162">
        <ele>444.0895690918</ele>
        <time>2020-06-23T14:46:06.517Z</time>
      </trkpt>
      <trkpt lat="46.07547" lon="3.53131">
        <ele>449.07119750977</ele>
        <time>2020-06-23T14:46:18.049Z</time>
      </trkpt>
      <trkpt lat="46.07536" lon="3.53064">
        <ele>452.69912719727</ele>
        <time>2020-06-23T14:46:29.589Z</time>
      </trkpt>
      <trkpt lat="46.07536" lon="3.53064">
        <ele>452.69982910156</ele>
        <time>2020-06-23T14:46:41.129Z</time>
      </trkpt>
      <trkpt lat="46.07541" lon="3.53046">
        <ele>454.29528808594</ele>
        <time>2020-06-23T14:46:52.671Z</time>
      </trkpt>
      <trkpt lat="46.07566" lon="3.53024">
        <ele>458.15866088867</ele>
        <time>2020-06-23T14:47:04.218Z</time>
      </trkpt>
      <trkpt lat="46.0757" lon="3.53006">
        <ele>459.58895874023</ele>
        <time>2020-06-23T14:47:15.767Z</time>
      </trkpt>
      <trkpt lat="46.07561" lon="3.52991">
        <ele>460.61874389648</ele>
        <time>2020-06-23T14:47:27.318Z</time>
      </trkpt>
      <trkpt lat="46.07536" lon="3.52985">
        <ele>459.10580444336</ele>
        <time>2020-06-23T14:47:38.873Z</time>
      </trkpt>
      <trkpt lat="46.07503" lon="3.52962">
        <ele>458.57803344727</ele>
        <time>2020-06-23T14:47:50.434Z</time>
      </trkpt>
      <trkpt lat="46.07497" lon="3.52937">
        <ele>460.40591430664</ele>
        <time>2020-06-23T14:48:01.998Z</time>
      </trkpt>
      <trkpt lat="46.07498" lon="3.52906">
        <ele>461.46142578125</ele>
        <time>2020-06-23T14:48:13.565Z</time>
      </trkpt>
      <trkpt lat="46.07505" lon="3.52833">
        <ele>464.40051269531</ele>
        <time>2020-06-23T14:48:25.140Z</time>
      </trkpt>
      <trkpt lat="46.07547" lon="3.5278">
        <ele>472.38027954102</ele>
        <time>2020-06-23T14:48:36.724Z</time>
      </trkpt>
      <trkpt lat="46.07551" lon="3.52755">
        <ele>475.10400390625</ele>
        <time>2020-06-23T14:48:48.311Z</time>
      </trkpt>
      <trkpt lat="46.07528" lon="3.52726">
        <ele>474.76931762695</ele>
        <time>2020-06-23T14:48:59.903Z</time>
      </trkpt>
      <trkpt lat="46.07478" lon="3.52589">
        <ele>482.12899780273</ele>
        <time>2020-06-23T14:49:11.512Z</time>
      </trkpt>
      <trkpt lat="46.07459" lon="3.52583">
        <ele>482.48010253906</ele>
        <time>2020-06-23T14:49:23.125Z</time>
      </trkpt>
      <trkpt lat="46.07413" lon="3.52619">
        <ele>480.48706054688</ele>
        <time>2020-06-23T14:49:34.746Z</time>
      </trkpt>
      <trkpt lat="46.07376" lon="3.52633">
        <ele>479.25872802734</ele>
        <time>2020-06-23T14:49:46.373Z</time>
      </trkpt>
      <trkpt lat="46.07316" lon="3.52633">
        <ele>480.73257446289</ele>
        <time>2020-06-23T14:49:58.010Z</time>
      </trkpt>
      <trkpt lat="46.07219" lon="3.5263">
        <ele>479.97338867188</ele>
        <time>2020-06-23T14:50:09.662Z</time>
      </trkpt>
      <trkpt lat="46.07197" lon="3.5262">
        <ele>479.36837768555</ele>
        <time>2020-06-23T14:50:21.318Z</time>
      </trkpt>
      <trkpt lat="46.07167" lon="3.52579">
        <ele>476.1872253418</ele>
        <time>2020-06-23T14:50:32.981Z</time>
      </trkpt>
      <trkpt lat="46.07149" lon="3.52569">
        <ele>475.04156494141</ele>
        <time>2020-06-23T14:50:44.647Z</time>
      </trkpt>
      <trkpt lat="46.07095" lon="3.52568">
        <ele>477.333984375</ele>
        <time>2020-06-23T14:50:56.321Z</time>
      </trkpt>
      <trkpt lat="46.07017" lon="3.52507">
        <ele>476.46170043945</ele>
        <time>2020-06-23T14:51:08.010Z</time>
      </trkpt>
      <trkpt lat="46.0699" lon="3.52477">
        <ele>474.35061645508</ele>
        <time>2020-06-23T14:51:19.704Z</time>
      </trkpt>
      <trkpt lat="46.0693" lon="3.52375">
        <ele>472.90524291992</ele>
        <time>2020-06-23T14:51:31.413Z</time>
      </trkpt>
      <trkpt lat="46.06915" lon="3.52337">
        <ele>472.1572265625</ele>
        <time>2020-06-23T14:51:43.127Z</time>
      </trkpt>
      <trkpt lat="46.06895" lon="3.52251">
        <ele>466.67614746094</ele>
        <time>2020-06-23T14:51:54.851Z</time>
      </trkpt>
      <trkpt lat="46.06857" lon="3.52197">
        <ele>471.94552612305</ele>
        <time>2020-06-23T14:52:06.583Z</time>
      </trkpt>
      <trkpt lat="46.06831" lon="3.52097">
        <ele>471.5602722168</ele>
        <time>2020-06-23T14:52:18.327Z</time>
      </trkpt>
      <trkpt lat="46.06794" lon="3.52017">
        <ele>468.50866699219</ele>
        <time>2020-06-23T14:52:30.082Z</time>
      </trkpt>
      <trkpt lat="46.06771" lon="3.51994">
        <ele>466.68035888672</ele>
        <time>2020-06-23T14:52:41.841Z</time>
      </trkpt>
      <trkpt lat="46.06637" lon="3.51956">
        <ele>468.13397216797</ele>
        <time>2020-06-23T14:52:53.622Z</time>
      </trkpt>
      <trkpt lat="46.06608" lon="3.51968">
        <ele>470.60546875</ele>
        <time>2020-06-23T14:53:05.408Z</time>
      </trkpt>
      <trkpt lat="46.06573" lon="3.52034">
        <ele>480.05020141602</ele>
        <time>2020-06-23T14:53:17.203Z</time>
      </trkpt>
      <trkpt lat="46.06553" lon="3.52036">
        <ele>481.35418701172</ele>
        <time>2020-06-23T14:53:29.001Z</time>
      </trkpt>
      <trkpt lat="46.06544" lon="3.52027">
        <ele>482.33248901367</ele>
        <time>2020-06-23T14:53:40.801Z</time>
      </trkpt>
      <trkpt lat="46.06536" lon="3.51999">
        <ele>480.42593383789</ele>
        <time>2020-06-23T14:53:52.605Z</time>
      </trkpt>
      <trkpt lat="46.06534" lon="3.51894">
        <ele>465.41360473633</ele>
        <time>2020-06-23T14:54:04.420Z</time>
      </trkpt>
      <trkpt lat="46.06523" lon="3.5187">
        <ele>464.76998901367</ele>
        <time>2020-06-23T14:54:16.238Z</time>
      </trkpt>
      <trkpt lat="46.06409" lon="3.51792">
        <ele>472.86541748047</ele>
        <time>2020-06-23T14:54:28.077Z</time>
      </trkpt>
      <trkpt lat="46.06384" lon="3.51784">
        <ele>474.93460083008</ele>
        <time>2020-06-23T14:54:39.920Z</time>
      </trkpt>
      <trkpt lat="46.06367" lon="3.51794">
        <ele>478.71908569336</ele>
        <time>2020-06-23T14:54:51.766Z</time>
      </trkpt>
      <trkpt lat="46.06341" lon="3.51843">
        <ele>483.32867431641</ele>
        <time>2020-06-23T14:55:03.619Z</time>
      </trkpt>
      <trkpt lat="46.06316" lon="3.51851">
        <ele>482.48394775391</ele>
        <time>2020-06-23T14:55:15.476Z</time>
      </trkpt>
      <trkpt lat="46.06316" lon="3.51851">
        <ele>482.48434448242</ele>
        <time>2020-06-23T14:55:27.333Z</time>
      </trkpt>
      <trkpt lat="46.0631" lon="3.51851">
        <ele>482.1591796875</ele>
        <time>2020-06-23T14:55:39.191Z</time>
      </trkpt>
      <trkpt lat="46.06261" lon="3.51847">
        <ele>480.49203491211</ele>
        <time>2020-06-23T14:55:51.057Z</time>
      </trkpt>
      <trkpt lat="46.06261" lon="3.51847">
        <ele>480.49234008789</ele>
        <time>2020-06-23T14:56:02.923Z</time>
      </trkpt>
      <trkpt lat="46.06234" lon="3.51821">
        <ele>481.38024902344</ele>
        <time>2020-06-23T14:56:14.794Z</time>
      </trkpt>
      <trkpt lat="46.06203" lon="3.51772">
        <ele>482.40484619141</ele>
        <time>2020-06-23T14:56:26.672Z</time>
      </trkpt>
      <trkpt lat="46.06191" lon="3.5173">
        <ele>483.39413452148</ele>
        <time>2020-06-23T14:56:38.555Z</time>
      </trkpt>
      <trkpt lat="46.06176" lon="3.51623">
        <ele>490.15939331055</ele>
        <time>2020-06-23T14:56:50.450Z</time>
      </trkpt>
      <trkpt lat="46.06135" lon="3.51574">
        <ele>491.4338684082</ele>
        <time>2020-06-23T14:57:02.354Z</time>
      </trkpt>
      <trkpt lat="46.06129" lon="3.51557">
        <ele>492.97857666016</ele>
        <time>2020-06-23T14:57:14.260Z</time>
      </trkpt>
      <trkpt lat="46.06126" lon="3.51551">
        <ele>493.57070922852</ele>
        <time>2020-06-23T14:57:26.167Z</time>
      </trkpt>
      <trkpt lat="46.06114" lon="3.51519">
        <ele>496.42837524414</ele>
        <time>2020-06-23T14:57:38.078Z</time>
      </trkpt>
      <trkpt lat="46.06105" lon="3.5151">
        <ele>496.60726928711</ele>
        <time>2020-06-23T14:57:49.991Z</time>
      </trkpt>
      <trkpt lat="46.06054" lon="3.51505">
        <ele>494.74130249023</ele>
        <time>2020-06-23T14:58:01.912Z</time>
      </trkpt>
      <trkpt lat="46.06043" lon="3.51465">
        <ele>497.12271118164</ele>
        <time>2020-06-23T14:58:13.838Z</time>
      </trkpt>
      <trkpt lat="46.05939" lon="3.51517">
        <ele>496.84671020508</ele>
        <time>2020-06-23T14:58:25.781Z</time>
      </trkpt>
      <trkpt lat="46.05908" lon="3.51533">
        <ele>496.15951538086</ele>
        <time>2020-06-23T14:58:37.730Z</time>
      </trkpt>
      <trkpt lat="46.05866" lon="3.51505">
        <ele>497.7975769043</ele>
        <time>2020-06-23T14:58:49.686Z</time>
      </trkpt>
      <trkpt lat="46.05865" lon="3.51479">
        <ele>498.81964111328</ele>
        <time>2020-06-23T14:59:01.645Z</time>
      </trkpt>
      <trkpt lat="46.05875" lon="3.51423">
        <ele>501.37701416016</ele>
        <time>2020-06-23T14:59:13.610Z</time>
      </trkpt>
      <trkpt lat="46.0588" lon="3.51392">
        <ele>501.53149414062</ele>
        <time>2020-06-23T14:59:25.579Z</time>
      </trkpt>
      <trkpt lat="46.05879" lon="3.51333">
        <ele>501.07717895508</ele>
        <time>2020-06-23T14:59:37.554Z</time>
      </trkpt>
      <trkpt lat="46.0588" lon="3.513">
        <ele>500.3173828125</ele>
        <time>2020-06-23T14:59:49.533Z</time>
      </trkpt>
      <trkpt lat="46.05878" lon="3.51206">
        <ele>496.54547119141</ele>
        <time>2020-06-23T15:00:01.522Z</time>
      </trkpt>
      <trkpt lat="46.05853" lon="3.5099">
        <ele>478.93054199219</ele>
        <time>2020-06-23T15:00:13.536Z</time>
      </trkpt>
      <trkpt lat="46.05819" lon="3.50977">
        <ele>476.92245483398</ele>
        <time>2020-06-23T15:00:25.556Z</time>
      </trkpt>
      <trkpt lat="46.05786" lon="3.50986">
        <ele>476.34317016602</ele>
        <time>2020-06-23T15:00:37.581Z</time>
      </trkpt>
      <trkpt lat="46.05771" lon="3.51013">
        <ele>477.41159057617</ele>
        <time>2020-06-23T15:00:49.610Z</time>
      </trkpt>
      <trkpt lat="46.05728" lon="3.51048">
        <ele>477.9264831543</ele>
        <time>2020-06-23T15:01:01.647Z</time>
      </trkpt>
      <trkpt lat="46.05708" lon="3.51046">
        <ele>480.79806518555</ele>
        <time>2020-06-23T15:01:13.687Z</time>
      </trkpt>
      <trkpt lat="46.05584" lon="3.50936">
        <ele>485.96591186523</ele>
        <time>2020-06-23T15:01:25.750Z</time>
      </trkpt>
      <trkpt lat="46.05572" lon="3.50911">
        <ele>484.9382019043</ele>
        <time>2020-06-23T15:01:37.817Z</time>
      </trkpt>
      <trkpt lat="46.05403" lon="3.5097">
        <ele>476.93112182617</ele>
        <time>2020-06-23T15:01:49.911Z</time>
      </trkpt>
      <trkpt lat="46.05354" lon="3.50962">
        <ele>471.78323364258</ele>
        <time>2020-06-23T15:02:02.013Z</time>
      </trkpt>
      <trkpt lat="46.05255" lon="3.50987">
        <ele>475.47296142578</ele>
        <time>2020-06-23T15:02:14.131Z</time>
      </trkpt>
      <trkpt lat="46.05186" lon="3.50905">
        <ele>473.19006347656</ele>
        <time>2020-06-23T15:02:26.264Z</time>
      </trkpt>
      <trkpt lat="46.05135" lon="3.50874">
        <ele>476.74496459961</ele>
        <time>2020-06-23T15:02:38.406Z</time>
      </trkpt>
      <trkpt lat="46.05043" lon="3.50832">
        <ele>477.01605224609</ele>
        <time>2020-06-23T15:02:50.563Z</time>
      </trkpt>
      <trkpt lat="46.05043" lon="3.50832">
        <ele>477.01657104492</ele>
        <time>2020-06-23T15:03:02.720Z</time>
      </trkpt>
      <trkpt lat="46.05017" lon="3.50823">
        <ele>476.38864135742</ele>
        <time>2020-06-23T15:03:14.881Z</time>
      </trkpt>
      <trkpt lat="46.04878" lon="3.50717">
        <ele>462.00109863281</ele>
        <time>2020-06-23T15:03:27.068Z</time>
      </trkpt>
      <trkpt lat="46.04832" lon="3.50694">
        <ele>455.88668823242</ele>
        <time>2020-06-23T15:03:39.262Z</time>
      </trkpt>
      <trkpt lat="46.04784" lon="3.50701">
        <ele>453.2756652832</ele>
        <time>2020-06-23T15:03:51.464Z</time>
      </trkpt>
      <trkpt lat="46.04767" lon="3.50618">
        <ele>446.38809204102</ele>
        <time>2020-06-23T15:04:03.676Z</time>
      </trkpt>
      <trkpt lat="46.04767" lon="3.50618">
        <ele>446.38909912109</ele>
        <time>2020-06-23T15:04:15.888Z</time>
      </trkpt>
      <trkpt lat="46.04745" lon="3.50585">
        <ele>442.88677978516</ele>
        <time>2020-06-23T15:04:28.105Z</time>
      </trkpt>
      <trkpt lat="46.04686" lon="3.5037">
        <ele>431.04928588867</ele>
        <time>2020-06-23T15:04:40.348Z</time>
      </trkpt>
      <trkpt lat="46.04653" lon="3.50323">
        <ele>426.40667724609</ele>
        <time>2020-06-23T15:04:52.598Z</time>
      </trkpt>
      <trkpt lat="46.04622" lon="3.50259">
        <ele>418.01397705078</ele>
        <time>2020-06-23T15:05:04.857Z</time>
      </trkpt>
      <trkpt lat="46.04546" lon="3.50077">
        <ele>398.12103271484</ele>
        <time>2020-06-23T15:05:17.139Z</time>
      </trkpt>
      <trkpt lat="46.04417" lon="3.49863">
        <ele>368.93511962891</ele>
        <time>2020-06-23T15:05:29.453Z</time>
      </trkpt>
      <trkpt lat="46.04408" lon="3.49936">
        <ele>374.05261230469</ele>
        <time>2020-06-23T15:05:41.775Z</time>
      </trkpt>
      <trkpt lat="46.04361" lon="3.49942">
        <ele>367.28524780273</ele>
        <time>2020-06-23T15:05:54.105Z</time>
      </trkpt>
      <trkpt lat="46.04334" lon="3.49985">
        <ele>367.51837158203</ele>
        <time>2020-06-23T15:06:06.441Z</time>
      </trkpt>
      <trkpt lat="46.04251" lon="3.49967">
        <ele>360.47274780273</ele>
        <time>2020-06-23T15:06:18.791Z</time>
      </trkpt>
      <trkpt lat="46.04236" lon="3.49938">
        <ele>356.00680541992</ele>
        <time>2020-06-23T15:06:31.145Z</time>
      </trkpt>
      <trkpt lat="46.04226" lon="3.49887">
        <ele>347.74273681641</ele>
        <time>2020-06-23T15:06:43.504Z</time>
      </trkpt>
      <trkpt lat="46.04199" lon="3.49861">
        <ele>344.03213500977</ele>
        <time>2020-06-23T15:06:55.869Z</time>
      </trkpt>
      <trkpt lat="46.04153" lon="3.49853">
        <ele>343.40127563477</ele>
        <time>2020-06-23T15:07:08.241Z</time>
      </trkpt>
      <trkpt lat="46.04074" lon="3.49863">
        <ele>340.11572265625</ele>
        <time>2020-06-23T15:07:20.626Z</time>
      </trkpt>
      <trkpt lat="46.04042" lon="3.49904">
        <ele>341.59918212891</ele>
        <time>2020-06-23T15:07:33.018Z</time>
      </trkpt>
      <trkpt lat="46.04034" lon="3.4995">
        <ele>346.22604370117</ele>
        <time>2020-06-23T15:07:45.415Z</time>
      </trkpt>
      <trkpt lat="46.04017" lon="3.49978">
        <ele>347.77380371094</ele>
        <time>2020-06-23T15:07:57.816Z</time>
      </trkpt>
      <trkpt lat="46.03994" lon="3.49998">
        <ele>346.57666015625</ele>
        <time>2020-06-23T15:08:10.222Z</time>
      </trkpt>
      <trkpt lat="46.03974" lon="3.49969">
        <ele>340.97003173828</ele>
        <time>2020-06-23T15:08:22.632Z</time>
      </trkpt>
      <trkpt lat="46.03974" lon="3.49969">
        <ele>340.96954345703</ele>
        <time>2020-06-23T15:08:35.042Z</time>
      </trkpt>
      <trkpt lat="46.03972" lon="3.49927">
        <ele>336.49353027344</ele>
        <time>2020-06-23T15:08:47.457Z</time>
      </trkpt>
      <trkpt lat="46.0398" lon="3.49888">
        <ele>332.54257202148</ele>
        <time>2020-06-23T15:08:59.876Z</time>
      </trkpt>
      <trkpt lat="46.0397" lon="3.49851">
        <ele>328.34524536133</ele>
        <time>2020-06-23T15:09:12.300Z</time>
      </trkpt>
      <trkpt lat="46.0394" lon="3.49789">
        <ele>325.30923461914</ele>
        <time>2020-06-23T15:09:24.732Z</time>
      </trkpt>
      <trkpt lat="46.0394" lon="3.49789">
        <ele>325.31063842773</ele>
        <time>2020-06-23T15:09:37.164Z</time>
      </trkpt>
      <trkpt lat="46.03926" lon="3.4976">
        <ele>323.76266479492</ele>
        <time>2020-06-23T15:09:49.600Z</time>
      </trkpt>
      <trkpt lat="46.03926" lon="3.4976">
        <ele>323.72869873047</ele>
        <time>2020-06-23T15:10:02.036Z</time>
      </trkpt>
      <trkpt lat="46.03881" lon="3.49667">
        <ele>316.39431762695</ele>
        <time>2020-06-23T15:10:14.485Z</time>
      </trkpt>
      <trkpt lat="46.03854" lon="3.49635">
        <ele>313.11184692383</ele>
        <time>2020-06-23T15:10:26.939Z</time>
      </trkpt>
      <trkpt lat="46.03835" lon="3.49628">
        <ele>312.01129150391</ele>
        <time>2020-06-23T15:10:39.396Z</time>
      </trkpt>
      <trkpt lat="46.03733" lon="3.49671">
        <ele>309.71783447266</ele>
        <time>2020-06-23T15:10:51.870Z</time>
      </trkpt>
      <trkpt lat="46.03717" lon="3.49668">
        <ele>309.52740478516</ele>
        <time>2020-06-23T15:11:04.347Z</time>
      </trkpt>
      <trkpt lat="46.03693" lon="3.49645">
        <ele>309.60464477539</ele>
        <time>2020-06-23T15:11:16.829Z</time>
      </trkpt>
      <trkpt lat="46.03688" lon="3.49631">
        <ele>308.98675537109</ele>
        <time>2020-06-23T15:11:29.312Z</time>
      </trkpt>
      <trkpt lat="46.03693" lon="3.49565">
        <ele>305.49871826172</ele>
        <time>2020-06-23T15:11:41.803Z</time>
      </trkpt>
      <trkpt lat="46.0368" lon="3.49536">
        <ele>305.73040771484</ele>
        <time>2020-06-23T15:11:54.298Z</time>
      </trkpt>
      <trkpt lat="46.03665" lon="3.49535">
        <ele>306.78594970703</ele>
        <time>2020-06-23T15:12:06.795Z</time>
      </trkpt>
      <trkpt lat="46.03555" lon="3.4958">
        <ele>312.86032104492</ele>
        <time>2020-06-23T15:12:19.310Z</time>
      </trkpt>
      <trkpt lat="46.03535" lon="3.49574">
        <ele>313.25936889648</ele>
        <time>2020-06-23T15:12:31.829Z</time>
      </trkpt>
      <trkpt lat="46.03517" lon="3.49552">
        <ele>313.42669677734</ele>
        <time>2020-06-23T15:12:44.351Z</time>
      </trkpt>
      <trkpt lat="46.03517" lon="3.49552">
        <ele>313.42651367188</ele>
        <time>2020-06-23T15:12:56.873Z</time>
      </trkpt>
      <trkpt lat="46.03487" lon="3.49522">
        <ele>313.78692626953</ele>
        <time>2020-06-23T15:13:09.401Z</time>
      </trkpt>
      <trkpt lat="46.03378" lon="3.49537">
        <ele>315.51889038086</ele>
        <time>2020-06-23T15:13:21.947Z</time>
      </trkpt>
      <trkpt lat="46.03332" lon="3.49578">
        <ele>316.67291259766</ele>
        <time>2020-06-23T15:13:34.502Z</time>
      </trkpt>
      <trkpt lat="46.03198" lon="3.4958">
        <ele>308.43084716797</ele>
        <time>2020-06-23T15:13:47.078Z</time>
      </trkpt>
      <trkpt lat="46.03157" lon="3.49594">
        <ele>305.84417724609</ele>
        <time>2020-06-23T15:13:59.661Z</time>
      </trkpt>
      <trkpt lat="46.03131" lon="3.49603">
        <ele>305.07321166992</ele>
        <time>2020-06-23T15:14:12.248Z</time>
      </trkpt>
      <trkpt lat="46.03131" lon="3.49603">
        <ele>305.07330322266</ele>
        <time>2020-06-23T15:14:24.835Z</time>
      </trkpt>
      <trkpt lat="46.03057" lon="3.49628">
        <ele>304.79415893555</ele>
        <time>2020-06-23T15:14:37.434Z</time>
      </trkpt>
      <trkpt lat="46.03037" lon="3.49627">
        <ele>305.99130249023</ele>
        <time>2020-06-23T15:14:50.036Z</time>
      </trkpt>
      <trkpt lat="46.03022" lon="3.49612">
        <ele>306.53192138672</ele>
        <time>2020-06-23T15:15:02.641Z</time>
      </trkpt>
      <trkpt lat="46.03" lon="3.49565">
        <ele>304.15640258789</ele>
        <time>2020-06-23T15:15:15.253Z</time>
      </trkpt>
      <trkpt lat="46.02982" lon="3.4954">
        <ele>302.88204956055</ele>
        <time>2020-06-23T15:15:27.869Z</time>
      </trkpt>
      <trkpt lat="46.02919" lon="3.49491">
        <ele>300.19946289062</ele>
        <time>2020-06-23T15:15:40.496Z</time>
      </trkpt>
      <trkpt lat="46.02774" lon="3.49397">
        <ele>297.40591430664</ele>
        <time>2020-06-23T15:15:53.149Z</time>
      </trkpt>
      <trkpt lat="46.02716" lon="3.49387">
        <ele>298.32501220703</ele>
        <time>2020-06-23T15:16:05.811Z</time>
      </trkpt>
      <trkpt lat="46.02716" lon="3.49387">
        <ele>298.32470703125</ele>
        <time>2020-06-23T15:16:18.473Z</time>
      </trkpt>
      <trkpt lat="46.0269" lon="3.49384">
        <ele>298.90426635742</ele>
        <time>2020-06-23T15:16:31.139Z</time>
      </trkpt>
      <trkpt lat="46.02646" lon="3.49353">
        <ele>297.24371337891</ele>
        <time>2020-06-23T15:16:43.813Z</time>
      </trkpt>
      <trkpt lat="46.02646" lon="3.49353">
        <ele>297.24340820312</ele>
        <time>2020-06-23T15:16:56.487Z</time>
      </trkpt>
      <trkpt lat="46.02613" lon="3.49321">
        <ele>296.34893798828</ele>
        <time>2020-06-23T15:17:09.167Z</time>
      </trkpt>
      <trkpt lat="46.02555" lon="3.49277">
        <ele>295.72308349609</ele>
        <time>2020-06-23T15:17:21.858Z</time>
      </trkpt>
      <trkpt lat="46.02512" lon="3.49273">
        <ele>294.89923095703</ele>
        <time>2020-06-23T15:17:34.556Z</time>
      </trkpt>
      <trkpt lat="46.02451" lon="3.49281">
        <ele>294.87338256836</ele>
        <time>2020-06-23T15:17:47.263Z</time>
      </trkpt>
      <trkpt lat="46.02324" lon="3.49305">
        <ele>298.85278320312</ele>
        <time>2020-06-23T15:17:59.991Z</time>
      </trkpt>
      <trkpt lat="46.02275" lon="3.49323">
        <ele>299.14086914062</ele>
        <time>2020-06-23T15:18:12.727Z</time>
      </trkpt>
      <trkpt lat="46.02275" lon="3.49323">
        <ele>299.14117431641</ele>
        <time>2020-06-23T15:18:25.463Z</time>
      </trkpt>
      <trkpt lat="46.02199" lon="3.49345">
        <ele>296.65319824219</ele>
        <time>2020-06-23T15:18:38.211Z</time>
      </trkpt>
      <trkpt lat="46.0217" lon="3.49344">
        <ele>295.24969482422</ele>
        <time>2020-06-23T15:18:50.964Z</time>
      </trkpt>
      <trkpt lat="46.02162" lon="3.49285">
        <ele>294.15924072266</ele>
        <time>2020-06-23T15:19:03.724Z</time>
      </trkpt>
      <trkpt lat="46.0215" lon="3.49289">
        <ele>293.66677856445</ele>
        <time>2020-06-23T15:19:16.486Z</time>
      </trkpt>
      <trkpt lat="46.02133" lon="3.49294">
        <ele>293.22769165039</ele>
        <time>2020-06-23T15:19:29.251Z</time>
      </trkpt>
      <trkpt lat="46.02133" lon="3.49294">
        <ele>293.22756958008</ele>
        <time>2020-06-23T15:19:42.016Z</time>
      </trkpt>
      <trkpt lat="46.02092" lon="3.49307">
        <ele>292.89300537109</ele>
        <time>2020-06-23T15:19:54.787Z</time>
      </trkpt>
      <trkpt lat="46.02069" lon="3.49314">
        <ele>292.68704223633</ele>
        <time>2020-06-23T15:20:07.562Z</time>
      </trkpt>
      <trkpt lat="46.02056" lon="3.49318">
        <ele>292.61767578125</ele>
        <time>2020-06-23T15:20:20.339Z</time>
      </trkpt>
      <trkpt lat="46.02009" lon="3.49333">
        <ele>293.19577026367</ele>
        <time>2020-06-23T15:20:33.124Z</time>
      </trkpt>
      <trkpt lat="46.01974" lon="3.49343">
        <ele>293.82748413086</ele>
        <time>2020-06-23T15:20:45.915Z</time>
      </trkpt>
      <trkpt lat="46.01932" lon="3.49226">
        <ele>291.51065063477</ele>
        <time>2020-06-23T15:20:58.720Z</time>
      </trkpt>
      <trkpt lat="46.01865" lon="3.49139">
        <ele>290.46795654297</ele>
        <time>2020-06-23T15:21:11.540Z</time>
      </trkpt>
      <trkpt lat="46.01823" lon="3.49099">
        <ele>289.98336791992</ele>
        <time>2020-06-23T15:21:24.368Z</time>
      </trkpt>
      <trkpt lat="46.01765" lon="3.49076">
        <ele>288.4338684082</ele>
        <time>2020-06-23T15:21:37.205Z</time>
      </trkpt>
      <trkpt lat="46.01765" lon="3.49076">
        <ele>288.43356323242</ele>
        <time>2020-06-23T15:21:50.042Z</time>
      </trkpt>
      <trkpt lat="46.01538" lon="3.48946">
        <ele>280.89981079102</ele>
        <time>2020-06-23T15:22:02.919Z</time>
      </trkpt>
      <trkpt lat="46.01531" lon="3.48925">
        <ele>280.39071655273</ele>
        <time>2020-06-23T15:22:15.798Z</time>
      </trkpt>
      <trkpt lat="46.01523" lon="3.48926">
        <ele>280.32635498047</ele>
        <time>2020-06-23T15:22:28.678Z</time>
      </trkpt>
      <trkpt lat="46.01521" lon="3.48926">
        <ele>280.30068969727</ele>
        <time>2020-06-23T15:22:41.559Z</time>
      </trkpt>
      <trkpt lat="46.01485" lon="3.48921">
        <ele>279.68283081055</ele>
        <time>2020-06-23T15:22:54.445Z</time>
      </trkpt>
      <trkpt lat="46.01135" lon="3.48835">
        <ele>284.59051513672</ele>
        <time>2020-06-23T15:23:07.388Z</time>
      </trkpt>
      <trkpt lat="46.00868" lon="3.48753">
        <ele>278.66775512695</ele>
        <time>2020-06-23T15:23:20.375Z</time>
      </trkpt>
      <trkpt lat="46.00859" lon="3.48744">
        <ele>278.46182250977</ele>
        <time>2020-06-23T15:23:33.364Z</time>
      </trkpt>
      <trkpt lat="46.00848" lon="3.48716">
        <ele>277.64108276367</ele>
        <time>2020-06-23T15:23:46.356Z</time>
      </trkpt>
      <trkpt lat="46.00726" lon="3.48696">
        <ele>278.8528137207</ele>
        <time>2020-06-23T15:23:59.368Z</time>
      </trkpt>
      <trkpt lat="46.00652" lon="3.48673">
        <ele>277.99765014648</ele>
        <time>2020-06-23T15:24:12.392Z</time>
      </trkpt>
      <trkpt lat="46.00674" lon="3.48605">
        <ele>277.44415283203</ele>
        <time>2020-06-23T15:24:25.425Z</time>
      </trkpt>
      <trkpt lat="46.00689" lon="3.48561">
        <ele>276.5891418457</ele>
        <time>2020-06-23T15:24:38.463Z</time>
      </trkpt>
      <trkpt lat="46.00765" lon="3.48328">
        <ele>272.91494750977</ele>
        <time>2020-06-23T15:24:51.530Z</time>
      </trkpt>
      <trkpt lat="46.00765" lon="3.48328">
        <ele>272.91525268555</ele>
        <time>2020-06-23T15:25:04.597Z</time>
      </trkpt>
      <trkpt lat="46.00833" lon="3.4806">
        <ele>268.81005859375</ele>
        <time>2020-06-23T15:25:17.696Z</time>
      </trkpt>
      <trkpt lat="46.00911" lon="3.47733">
        <ele>265.23147583008</ele>
        <time>2020-06-23T15:25:30.833Z</time>
      </trkpt>
      <trkpt lat="46.00949" lon="3.47583">
        <ele>266.43908691406</ele>
        <time>2020-06-23T15:25:43.988Z</time>
      </trkpt>
      <trkpt lat="46.00949" lon="3.47583">
        <ele>266.43887329102</ele>
        <time>2020-06-23T15:25:57.143Z</time>
      </trkpt>
      <trkpt lat="46.00999" lon="3.47388">
        <ele>266.17318725586</ele>
        <time>2020-06-23T15:26:10.321Z</time>
      </trkpt>
      <trkpt lat="46.00999" lon="3.47388">
        <ele>266.17309570312</ele>
        <time>2020-06-23T15:26:23.499Z</time>
      </trkpt>
      <trkpt lat="46.01031" lon="3.47195">
        <ele>266.53002929688</ele>
        <time>2020-06-23T15:26:36.699Z</time>
      </trkpt>
      <trkpt lat="46.01035" lon="3.4718">
        <ele>266.67456054688</ele>
        <time>2020-06-23T15:26:49.901Z</time>
      </trkpt>
      <trkpt lat="46.01035" lon="3.4718">
        <ele>266.67468261719</ele>
        <time>2020-06-23T15:27:03.103Z</time>
      </trkpt>
      <trkpt lat="46.01039" lon="3.47111">
        <ele>266.52639770508</ele>
        <time>2020-06-23T15:27:16.313Z</time>
      </trkpt>
      <trkpt lat="46.01029" lon="3.47063">
        <ele>266.47216796875</ele>
        <time>2020-06-23T15:27:29.528Z</time>
      </trkpt>
      <trkpt lat="46.00976" lon="3.46905">
        <ele>264.66751098633</ele>
        <time>2020-06-23T15:27:42.763Z</time>
      </trkpt>
      <trkpt lat="46.00976" lon="3.46905">
        <ele>264.66751098633</ele>
        <time>2020-06-23T15:27:55.998Z</time>
      </trkpt>
      <trkpt lat="46.0097" lon="3.46823">
        <ele>264</ele>
        <time>2020-06-23T15:28:09.242Z</time>
      </trkpt>
      <trkpt lat="46.00786" lon="3.4681">
        <ele>264.23098754883</ele>
        <time>2020-06-23T15:28:22.516Z</time>
      </trkpt>
      <trkpt lat="46.00745" lon="3.46692">
        <ele>265.76385498047</ele>
        <time>2020-06-23T15:28:35.804Z</time>
      </trkpt>
      <trkpt lat="46.00686" lon="3.46603">
        <ele>266</ele>
        <time>2020-06-23T15:28:49.106Z</time>
      </trkpt>
      <trkpt lat="46.00599" lon="3.46545">
        <ele>266</ele>
        <time>2020-06-23T15:29:02.423Z</time>
      </trkpt>
      <trkpt lat="46.00473" lon="3.46496">
        <ele>267.02059936523</ele>
        <time>2020-06-23T15:29:15.761Z</time>
      </trkpt>
      <trkpt lat="46.00399" lon="3.46482">
        <ele>267.40423583984</ele>
        <time>2020-06-23T15:29:29.111Z</time>
      </trkpt>
      <trkpt lat="46.00308" lon="3.4632">
        <ele>265.6608581543</ele>
        <time>2020-06-23T15:29:42.484Z</time>
      </trkpt>
      <trkpt lat="46.00252" lon="3.46242">
        <ele>266.44158935547</ele>
        <time>2020-06-23T15:29:55.870Z</time>
      </trkpt>
      <trkpt lat="46.00175" lon="3.46181">
        <ele>266.57772827148</ele>
        <time>2020-06-23T15:30:09.270Z</time>
      </trkpt>
      <trkpt lat="46.00046" lon="3.46117">
        <ele>266.93756103516</ele>
        <time>2020-06-23T15:30:22.692Z</time>
      </trkpt>
      <trkpt lat="46.00025" lon="3.46079">
        <ele>267.88983154297</ele>
        <time>2020-06-23T15:30:36.119Z</time>
      </trkpt>
      <trkpt lat="45.99892" lon="3.46119">
        <ele>267.53854370117</ele>
        <time>2020-06-23T15:30:49.568Z</time>
      </trkpt>
      <trkpt lat="45.99857" lon="3.46128">
        <ele>268.57104492188</ele>
        <time>2020-06-23T15:31:03.023Z</time>
      </trkpt>
      <trkpt lat="45.99857" lon="3.46128">
        <ele>268.57073974609</ele>
        <time>2020-06-23T15:31:16.478Z</time>
      </trkpt>
      <trkpt lat="45.9972" lon="3.46168">
        <ele>269.40878295898</ele>
        <time>2020-06-23T15:31:29.955Z</time>
      </trkpt>
      <trkpt lat="45.99608" lon="3.46147">
        <ele>271.4333190918</ele>
        <time>2020-06-23T15:31:43.450Z</time>
      </trkpt>
      <trkpt lat="45.99566" lon="3.46122">
        <ele>271.54809570312</ele>
        <time>2020-06-23T15:31:56.952Z</time>
      </trkpt>
      <trkpt lat="45.99558" lon="3.46098">
        <ele>272</ele>
        <time>2020-06-23T15:32:10.457Z</time>
      </trkpt>
      <trkpt lat="45.9956" lon="3.4608">
        <ele>272</ele>
        <time>2020-06-23T15:32:23.964Z</time>
      </trkpt>
      <trkpt lat="45.9959" lon="3.45985">
        <ele>271.62295532227</ele>
        <time>2020-06-23T15:32:37.483Z</time>
      </trkpt>
      <trkpt lat="45.99639" lon="3.4587">
        <ele>271.7897644043</ele>
        <time>2020-06-23T15:32:51.017Z</time>
      </trkpt>
      <trkpt lat="45.99647" lon="3.4583">
        <ele>272.29840087891</ele>
        <time>2020-06-23T15:33:04.556Z</time>
      </trkpt>
      <trkpt lat="45.99654" lon="3.45775">
        <ele>272.96786499023</ele>
        <time>2020-06-23T15:33:18.101Z</time>
      </trkpt>
      <trkpt lat="45.99657" lon="3.45752">
        <ele>272.81652832031</ele>
        <time>2020-06-23T15:33:31.649Z</time>
      </trkpt>
      <trkpt lat="45.99657" lon="3.45752">
        <ele>272.81643676758</ele>
        <time>2020-06-23T15:33:45.197Z</time>
      </trkpt>
      <trkpt lat="45.99667" lon="3.45668">
        <ele>272.75021362305</ele>
        <time>2020-06-23T15:33:58.754Z</time>
      </trkpt>
      <trkpt lat="45.99661" lon="3.45623">
        <ele>273.9602355957</ele>
        <time>2020-06-23T15:34:12.316Z</time>
      </trkpt>
      <trkpt lat="45.99653" lon="3.4554">
        <ele>274.73602294922</ele>
        <time>2020-06-23T15:34:25.887Z</time>
      </trkpt>
      <trkpt lat="45.99666" lon="3.45479">
        <ele>274.27346801758</ele>
        <time>2020-06-23T15:34:39.466Z</time>
      </trkpt>
      <trkpt lat="45.99683" lon="3.45425">
        <ele>275.47723388672</ele>
        <time>2020-06-23T15:34:53.051Z</time>
      </trkpt>
      <trkpt lat="45.99689" lon="3.45378">
        <ele>275.70895385742</ele>
        <time>2020-06-23T15:35:06.642Z</time>
      </trkpt>
      <trkpt lat="45.99689" lon="3.45378">
        <ele>275.7092590332</ele>
        <time>2020-06-23T15:35:20.233Z</time>
      </trkpt>
      <trkpt lat="45.99686" lon="3.45354">
        <ele>275.59307861328</ele>
        <time>2020-06-23T15:35:33.826Z</time>
      </trkpt>
      <trkpt lat="45.9961" lon="3.4517">
        <ele>277.44177246094</ele>
        <time>2020-06-23T15:35:47.443Z</time>
      </trkpt>
      <trkpt lat="45.99574" lon="3.4512">
        <ele>279.25677490234</ele>
        <time>2020-06-23T15:36:01.068Z</time>
      </trkpt>
      <trkpt lat="45.99438" lon="3.45039">
        <ele>286.35848999023</ele>
        <time>2020-06-23T15:36:14.717Z</time>
      </trkpt>
      <trkpt lat="45.99405" lon="3.44976">
        <ele>288.88903808594</ele>
        <time>2020-06-23T15:36:28.375Z</time>
      </trkpt>
      <trkpt lat="45.99261" lon="3.44744">
        <ele>290.30883789062</ele>
        <time>2020-06-23T15:36:42.067Z</time>
      </trkpt>
      <trkpt lat="45.99233" lon="3.44721">
        <ele>290.36022949219</ele>
        <time>2020-06-23T15:36:55.764Z</time>
      </trkpt>
      <trkpt lat="45.99198" lon="3.44724">
        <ele>290.171875</ele>
        <time>2020-06-23T15:37:09.467Z</time>
      </trkpt>
      <trkpt lat="45.99166" lon="3.44747">
        <ele>290.53625488281</ele>
        <time>2020-06-23T15:37:23.176Z</time>
      </trkpt>
      <trkpt lat="45.991" lon="3.44807">
        <ele>291.4889831543</ele>
        <time>2020-06-23T15:37:36.897Z</time>
      </trkpt>
      <trkpt lat="45.9905" lon="3.44806">
        <ele>291.10223388672</ele>
        <time>2020-06-23T15:37:50.626Z</time>
      </trkpt>
      <trkpt lat="45.98991" lon="3.44799">
        <ele>291.81033325195</ele>
        <time>2020-06-23T15:38:04.365Z</time>
      </trkpt>
      <trkpt lat="45.98854" lon="3.44765">
        <ele>291.0260925293</ele>
        <time>2020-06-23T15:38:18.126Z</time>
      </trkpt>
      <trkpt lat="45.98793" lon="3.44779">
        <ele>290.82113647461</ele>
        <time>2020-06-23T15:38:31.897Z</time>
      </trkpt>
      <trkpt lat="45.98701" lon="3.44742">
        <ele>290.28588867188</ele>
        <time>2020-06-23T15:38:45.683Z</time>
      </trkpt>
      <trkpt lat="45.98701" lon="3.44742">
        <ele>290.28579711914</ele>
        <time>2020-06-23T15:38:59.469Z</time>
      </trkpt>
      <trkpt lat="45.98606" lon="3.44774">
        <ele>290.8971862793</ele>
        <time>2020-06-23T15:39:13.271Z</time>
      </trkpt>
      <trkpt lat="45.98474" lon="3.44799">
        <ele>290.65127563477</ele>
        <time>2020-06-23T15:39:27.094Z</time>
      </trkpt>
      <trkpt lat="45.98419" lon="3.44803">
        <ele>292.19012451172</ele>
        <time>2020-06-23T15:39:40.926Z</time>
      </trkpt>
      <trkpt lat="45.98361" lon="3.44789">
        <ele>294.38528442383</ele>
        <time>2020-06-23T15:39:54.767Z</time>
      </trkpt>
      <trkpt lat="45.98361" lon="3.44789">
        <ele>294.38519287109</ele>
        <time>2020-06-23T15:40:08.608Z</time>
      </trkpt>
      <trkpt lat="45.98248" lon="3.44777">
        <ele>296.68963623047</ele>
        <time>2020-06-23T15:40:22.467Z</time>
      </trkpt>
      <trkpt lat="45.98168" lon="3.448">
        <ele>293.78726196289</ele>
        <time>2020-06-23T15:40:36.340Z</time>
      </trkpt>
      <trkpt lat="45.98071" lon="3.44816">
        <ele>293.47738647461</ele>
        <time>2020-06-23T15:40:50.228Z</time>
      </trkpt>
      <trkpt lat="45.98027" lon="3.44823">
        <ele>292.59530639648</ele>
        <time>2020-06-23T15:41:04.123Z</time>
      </trkpt>
      <trkpt lat="45.97981" lon="3.44824">
        <ele>293.05871582031</ele>
        <time>2020-06-23T15:41:18.026Z</time>
      </trkpt>
      <trkpt lat="45.97895" lon="3.44856">
        <ele>293.9538269043</ele>
        <time>2020-06-23T15:41:31.943Z</time>
      </trkpt>
      <trkpt lat="45.97835" lon="3.44859">
        <ele>294.47662353516</ele>
        <time>2020-06-23T15:41:45.869Z</time>
      </trkpt>
      <trkpt lat="45.97768" lon="3.44828">
        <ele>296.02221679688</ele>
        <time>2020-06-23T15:41:59.807Z</time>
      </trkpt>
      <trkpt lat="45.97746" lon="3.44827">
        <ele>295.79061889648</ele>
        <time>2020-06-23T15:42:13.748Z</time>
      </trkpt>
      <trkpt lat="45.97684" lon="3.4483">
        <ele>294.73886108398</ele>
        <time>2020-06-23T15:42:27.699Z</time>
      </trkpt>
      <trkpt lat="45.97594" lon="3.44802">
        <ele>294.55474853516</ele>
        <time>2020-06-23T15:42:41.665Z</time>
      </trkpt>
      <trkpt lat="45.97528" lon="3.44764">
        <ele>294.94818115234</ele>
        <time>2020-06-23T15:42:55.642Z</time>
      </trkpt>
      <trkpt lat="45.97469" lon="3.44708">
        <ele>293.73635864258</ele>
        <time>2020-06-23T15:43:09.631Z</time>
      </trkpt>
      <trkpt lat="45.97379" lon="3.44655">
        <ele>295.6520690918</ele>
        <time>2020-06-23T15:43:23.635Z</time>
      </trkpt>
      <trkpt lat="45.97348" lon="3.44629">
        <ele>296.29568481445</ele>
        <time>2020-06-23T15:43:37.645Z</time>
      </trkpt>
      <trkpt lat="45.97329" lon="3.44596">
        <ele>297</ele>
        <time>2020-06-23T15:43:51.660Z</time>
      </trkpt>
      <trkpt lat="45.97297" lon="3.44547">
        <ele>296.32083129883</ele>
        <time>2020-06-23T15:44:05.682Z</time>
      </trkpt>
      <trkpt lat="45.97167" lon="3.44405">
        <ele>288.85830688477</ele>
        <time>2020-06-23T15:44:19.730Z</time>
      </trkpt>
      <trkpt lat="45.97152" lon="3.44389">
        <ele>288.14984130859</ele>
        <time>2020-06-23T15:44:33.781Z</time>
      </trkpt>
      <trkpt lat="45.97131" lon="3.44375">
        <ele>287.44915771484</ele>
        <time>2020-06-23T15:44:47.836Z</time>
      </trkpt>
      <trkpt lat="45.97126" lon="3.44373">
        <ele>287.34619140625</ele>
        <time>2020-06-23T15:45:01.892Z</time>
      </trkpt>
      <trkpt lat="45.9711" lon="3.44351">
        <ele>287.23031616211</ele>
        <time>2020-06-23T15:45:15.951Z</time>
      </trkpt>
      <trkpt lat="45.97109" lon="3.44348">
        <ele>287.22296142578</ele>
        <time>2020-06-23T15:45:30.011Z</time>
      </trkpt>
      <trkpt lat="45.97083" lon="3.44287">
        <ele>286.64862060547</ele>
        <time>2020-06-23T15:45:44.079Z</time>
      </trkpt>
      <trkpt lat="45.97066" lon="3.44259">
        <ele>286.51766967773</ele>
        <time>2020-06-23T15:45:58.151Z</time>
      </trkpt>
      <trkpt lat="45.97062" lon="3.44247">
        <ele>286.82632446289</ele>
        <time>2020-06-23T15:46:12.224Z</time>
      </trkpt>
      <trkpt lat="45.97053" lon="3.44221">
        <ele>287.32821655273</ele>
        <time>2020-06-23T15:46:26.301Z</time>
      </trkpt>
      <trkpt lat="45.97046" lon="3.44146">
        <ele>287.67514038086</ele>
        <time>2020-06-23T15:46:40.386Z</time>
      </trkpt>
      <trkpt lat="45.97032" lon="3.44013">
        <ele>287.44241333008</ele>
        <time>2020-06-23T15:46:54.486Z</time>
      </trkpt>
      <trkpt lat="45.96873" lon="3.43593">
        <ele>290.37509155273</ele>
        <time>2020-06-23T15:47:08.639Z</time>
      </trkpt>
      <trkpt lat="45.96829" lon="3.43406">
        <ele>288.89093017578</ele>
        <time>2020-06-23T15:47:22.814Z</time>
      </trkpt>
      <trkpt lat="45.96829" lon="3.43406">
        <ele>288.89224243164</ele>
        <time>2020-06-23T15:47:36.989Z</time>
      </trkpt>
      <trkpt lat="45.96788" lon="3.43224">
        <ele>290.37930297852</ele>
        <time>2020-06-23T15:47:51.186Z</time>
      </trkpt>
      <trkpt lat="45.96682" lon="3.42946">
        <ele>289.40075683594</ele>
        <time>2020-06-23T15:48:05.418Z</time>
      </trkpt>
      <trkpt lat="45.9654" lon="3.42684">
        <ele>289.89041137695</ele>
        <time>2020-06-23T15:48:19.687Z</time>
      </trkpt>
      <trkpt lat="45.96337" lon="3.42256">
        <ele>292.24600219727</ele>
        <time>2020-06-23T15:48:34.014Z</time>
      </trkpt>
      <trkpt lat="45.96332" lon="3.42247">
        <ele>291.97506713867</ele>
        <time>2020-06-23T15:48:48.342Z</time>
      </trkpt>
      <trkpt lat="45.96353" lon="3.42168">
        <ele>294.5466003418</ele>
        <time>2020-06-23T15:49:02.680Z</time>
      </trkpt>
      <trkpt lat="45.96362" lon="3.42094">
        <ele>298.21725463867</ele>
        <time>2020-06-23T15:49:17.026Z</time>
      </trkpt>
      <trkpt lat="45.96376" lon="3.42061">
        <ele>300.37048339844</ele>
        <time>2020-06-23T15:49:31.376Z</time>
      </trkpt>
      <trkpt lat="45.96444" lon="3.42028">
        <ele>302.88818359375</ele>
        <time>2020-06-23T15:49:45.738Z</time>
      </trkpt>
      <trkpt lat="45.96465" lon="3.41917">
        <ele>302</ele>
        <time>2020-06-23T15:50:00.113Z</time>
      </trkpt>
      <trkpt lat="45.96532" lon="3.41798">
        <ele>300.31390380859</ele>
        <time>2020-06-23T15:50:14.505Z</time>
      </trkpt>
      <trkpt lat="45.9659" lon="3.41749">
        <ele>299.42135620117</ele>
        <time>2020-06-23T15:50:28.907Z</time>
      </trkpt>
      <trkpt lat="45.96668" lon="3.41631">
        <ele>297.77301025391</ele>
        <time>2020-06-23T15:50:43.328Z</time>
      </trkpt>
      <trkpt lat="45.96698" lon="3.41603">
        <ele>298.36245727539</ele>
        <time>2020-06-23T15:50:57.754Z</time>
      </trkpt>
      <trkpt lat="45.96704" lon="3.41598">
        <ele>298.52969360352</ele>
        <time>2020-06-23T15:51:12.181Z</time>
      </trkpt>
      <trkpt lat="45.96743" lon="3.41563">
        <ele>298.77810668945</ele>
        <time>2020-06-23T15:51:26.616Z</time>
      </trkpt>
      <trkpt lat="45.96768" lon="3.41523">
        <ele>299.34515380859</ele>
        <time>2020-06-23T15:51:41.057Z</time>
      </trkpt>
      <trkpt lat="45.96836" lon="3.4126">
        <ele>299.658203125</ele>
        <time>2020-06-23T15:51:55.529Z</time>
      </trkpt>
      <trkpt lat="45.96844" lon="3.41136">
        <ele>298.58853149414</ele>
        <time>2020-06-23T15:52:10.015Z</time>
      </trkpt>
      <trkpt lat="45.9688" lon="3.40844">
        <ele>295.82055664062</ele>
        <time>2020-06-23T15:52:24.534Z</time>
      </trkpt>
      <trkpt lat="45.96893" lon="3.40789">
        <ele>295.3056640625</ele>
        <time>2020-06-23T15:52:39.060Z</time>
      </trkpt>
      <trkpt lat="45.96929" lon="3.40699">
        <ele>297.24856567383</ele>
        <time>2020-06-23T15:52:53.597Z</time>
      </trkpt>
      <trkpt lat="45.96949" lon="3.40617">
        <ele>296.4440612793</ele>
        <time>2020-06-23T15:53:08.144Z</time>
      </trkpt>
      <trkpt lat="45.96967" lon="3.40459">
        <ele>298.51577758789</ele>
        <time>2020-06-23T15:53:22.709Z</time>
      </trkpt>
      <trkpt lat="45.96975" lon="3.40441">
        <ele>298.77810668945</ele>
        <time>2020-06-23T15:53:37.276Z</time>
      </trkpt>
      <trkpt lat="45.96995" lon="3.40412">
        <ele>298.98959350586</ele>
        <time>2020-06-23T15:53:51.848Z</time>
      </trkpt>
      <trkpt lat="45.97005" lon="3.40392">
        <ele>299.11831665039</ele>
        <time>2020-06-23T15:54:06.422Z</time>
      </trkpt>
      <trkpt lat="45.97041" lon="3.40252">
        <ele>305.89459228516</ele>
        <time>2020-06-23T15:54:21.013Z</time>
      </trkpt>
      <trkpt lat="45.97065" lon="3.40189">
        <ele>303.01153564453</ele>
        <time>2020-06-23T15:54:35.612Z</time>
      </trkpt>
      <trkpt lat="45.97152" lon="3.4006">
        <ele>304.03610229492</ele>
        <time>2020-06-23T15:54:50.231Z</time>
      </trkpt>
      <trkpt lat="45.97176" lon="3.4">
        <ele>302.1940612793</ele>
        <time>2020-06-23T15:55:04.858Z</time>
      </trkpt>
      <trkpt lat="45.97176" lon="3.4">
        <ele>302.19375610352</ele>
        <time>2020-06-23T15:55:19.485Z</time>
      </trkpt>
      <trkpt lat="45.97257" lon="3.39792">
        <ele>303.06466674805</ele>
        <time>2020-06-23T15:55:34.138Z</time>
      </trkpt>
      <trkpt lat="45.97258" lon="3.39704">
        <ele>303.53393554688</ele>
        <time>2020-06-23T15:55:48.801Z</time>
      </trkpt>
      <trkpt lat="45.97325" lon="3.39558">
        <ele>305.68182373047</ele>
        <time>2020-06-23T15:56:03.484Z</time>
      </trkpt>
      <trkpt lat="45.9733" lon="3.39525">
        <ele>306.1452331543</ele>
        <time>2020-06-23T15:56:18.170Z</time>
      </trkpt>
      <trkpt lat="45.97325" lon="3.39516">
        <ele>306.18395996094</ele>
        <time>2020-06-23T15:56:32.858Z</time>
      </trkpt>
      <trkpt lat="45.97223" lon="3.39366">
        <ele>311.5744934082</ele>
        <time>2020-06-23T15:56:47.569Z</time>
      </trkpt>
      <trkpt lat="45.97167" lon="3.39299">
        <ele>315.51205444336</ele>
        <time>2020-06-23T15:57:02.292Z</time>
      </trkpt>
      <trkpt lat="45.97157" lon="3.39299">
        <ele>315.51205444336</ele>
        <time>2020-06-23T15:57:17.016Z</time>
      </trkpt>
      <trkpt lat="45.97066" lon="3.39296">
        <ele>314.775390625</ele>
        <time>2020-06-23T15:57:31.755Z</time>
      </trkpt>
      <trkpt lat="45.96942" lon="3.39233">
        <ele>314.74029541016</ele>
        <time>2020-06-23T15:57:46.515Z</time>
      </trkpt>
      <trkpt lat="45.96758" lon="3.39178">
        <ele>314.2861328125</ele>
        <time>2020-06-23T15:58:01.305Z</time>
      </trkpt>
      <trkpt lat="45.96725" lon="3.39157">
        <ele>313.60391235352</ele>
        <time>2020-06-23T15:58:16.101Z</time>
      </trkpt>
      <trkpt lat="45.96706" lon="3.3914">
        <ele>313.34173583984</ele>
        <time>2020-06-23T15:58:30.900Z</time>
      </trkpt>
      <trkpt lat="45.96706" lon="3.39139">
        <ele>313.3581237793</ele>
        <time>2020-06-23T15:58:45.699Z</time>
      </trkpt>
      <trkpt lat="45.96687" lon="3.3912">
        <ele>313.10803222656</ele>
        <time>2020-06-23T15:59:00.502Z</time>
      </trkpt>
      <trkpt lat="45.96686" lon="3.3912">
        <ele>313.1037902832</ele>
        <time>2020-06-23T15:59:15.305Z</time>
      </trkpt>
      <trkpt lat="45.96645" lon="3.3908">
        <ele>313.02087402344</ele>
        <time>2020-06-23T15:59:30.116Z</time>
      </trkpt>
      <trkpt lat="45.96605" lon="3.39044">
        <ele>313.30227661133</ele>
        <time>2020-06-23T15:59:44.935Z</time>
      </trkpt>
      <trkpt lat="45.96552" lon="3.39013">
        <ele>312.94009399414</ele>
        <time>2020-06-23T15:59:59.763Z</time>
      </trkpt>
      <trkpt lat="45.96483" lon="3.38979">
        <ele>312.49118041992</ele>
        <time>2020-06-23T16:00:14.603Z</time>
      </trkpt>
      <trkpt lat="45.96434" lon="3.38941">
        <ele>311.9826965332</ele>
        <time>2020-06-23T16:00:29.452Z</time>
      </trkpt>
      <trkpt lat="45.9638" lon="3.38893">
        <ele>311.61965942383</ele>
        <time>2020-06-23T16:00:44.311Z</time>
      </trkpt>
      <trkpt lat="45.96373" lon="3.38888">
        <ele>311.47985839844</ele>
        <time>2020-06-23T16:00:59.171Z</time>
      </trkpt>
      <trkpt lat="45.96313" lon="3.38856">
        <ele>309.93524169922</ele>
        <time>2020-06-23T16:01:14.041Z</time>
      </trkpt>
      <trkpt lat="45.96261" lon="3.38823">
        <ele>309.78231811523</ele>
        <time>2020-06-23T16:01:28.920Z</time>
      </trkpt>
      <trkpt lat="45.96246" lon="3.38811">
        <ele>309.86114501953</ele>
        <time>2020-06-23T16:01:43.802Z</time>
      </trkpt>
      <trkpt lat="45.96209" lon="3.38789">
        <ele>309.57177734375</ele>
        <time>2020-06-23T16:01:58.691Z</time>
      </trkpt>
      <trkpt lat="45.96185" lon="3.38779">
        <ele>309.07699584961</ele>
        <time>2020-06-23T16:02:13.583Z</time>
      </trkpt>
      <trkpt lat="45.96154" lon="3.38769">
        <ele>308.30374145508</ele>
        <time>2020-06-23T16:02:28.481Z</time>
      </trkpt>
      <trkpt lat="45.96105" lon="3.38757">
        <ele>307.33480834961</ele>
        <time>2020-06-23T16:02:43.386Z</time>
      </trkpt>
      <trkpt lat="45.96089" lon="3.38749">
        <ele>307.12564086914</ele>
        <time>2020-06-23T16:02:58.294Z</time>
      </trkpt>
      <trkpt lat="45.96075" lon="3.3874">
        <ele>307.00213623047</ele>
        <time>2020-06-23T16:03:13.205Z</time>
      </trkpt>
      <trkpt lat="45.96032" lon="3.38704">
        <ele>306.8362121582</ele>
        <time>2020-06-23T16:03:28.124Z</time>
      </trkpt>
      <trkpt lat="45.95992" lon="3.38675">
        <ele>306.59463500977</ele>
        <time>2020-06-23T16:03:43.050Z</time>
      </trkpt>
      <trkpt lat="45.95978" lon="3.38666">
        <ele>306.46310424805</ele>
        <time>2020-06-23T16:03:57.978Z</time>
      </trkpt>
      <trkpt lat="45.95815" lon="3.38586">
        <ele>301.30725097656</ele>
        <time>2020-06-23T16:04:12.934Z</time>
      </trkpt>
      <trkpt lat="45.95775" lon="3.38566">
        <ele>300.22479248047</ele>
        <time>2020-06-23T16:04:27.897Z</time>
      </trkpt>
      <trkpt lat="45.95751" lon="3.38556">
        <ele>299.63897705078</ele>
        <time>2020-06-23T16:04:42.864Z</time>
      </trkpt>
      <trkpt lat="45.95726" lon="3.38554">
        <ele>299.04019165039</ele>
        <time>2020-06-23T16:04:57.835Z</time>
      </trkpt>
      <trkpt lat="45.9566" lon="3.38559">
        <ele>299</ele>
        <time>2020-06-23T16:05:12.816Z</time>
      </trkpt>
      <trkpt lat="45.95611" lon="3.3856">
        <ele>299</ele>
        <time>2020-06-23T16:05:27.805Z</time>
      </trkpt>
      <trkpt lat="45.95572" lon="3.38567">
        <ele>298.54541015625</ele>
        <time>2020-06-23T16:05:42.800Z</time>
      </trkpt>
      <trkpt lat="45.95541" lon="3.38575">
        <ele>298.48199462891</ele>
        <time>2020-06-23T16:05:57.800Z</time>
      </trkpt>
      <trkpt lat="45.9551" lon="3.3858">
        <ele>298.44271850586</ele>
        <time>2020-06-23T16:06:12.805Z</time>
      </trkpt>
      <trkpt lat="45.95455" lon="3.38583">
        <ele>298.28872680664</ele>
        <time>2020-06-23T16:06:27.819Z</time>
      </trkpt>
      <trkpt lat="45.95439" lon="3.38583">
        <ele>298.6611328125</ele>
        <time>2020-06-23T16:06:42.836Z</time>
      </trkpt>
      <trkpt lat="45.95363" lon="3.38571">
        <ele>298.96939086914</ele>
        <time>2020-06-23T16:06:57.865Z</time>
      </trkpt>
      <trkpt lat="45.95338" lon="3.38574">
        <ele>297.73654174805</ele>
        <time>2020-06-23T16:07:12.898Z</time>
      </trkpt>
      <trkpt lat="45.95329" lon="3.38576">
        <ele>297.30401611328</ele>
        <time>2020-06-23T16:07:27.932Z</time>
      </trkpt>
      <trkpt lat="45.95209" lon="3.38615">
        <ele>294.6142578125</ele>
        <time>2020-06-23T16:07:42.986Z</time>
      </trkpt>
      <trkpt lat="45.95194" lon="3.38622">
        <ele>294.35238647461</ele>
        <time>2020-06-23T16:07:58.043Z</time>
      </trkpt>
      <trkpt lat="45.95135" lon="3.38653">
        <ele>294</ele>
        <time>2020-06-23T16:08:13.110Z</time>
      </trkpt>
      <trkpt lat="45.95097" lon="3.38663">
        <ele>294.30334472656</ele>
        <time>2020-06-23T16:08:28.183Z</time>
      </trkpt>
      <trkpt lat="45.95026" lon="3.38704">
        <ele>295.16329956055</ele>
        <time>2020-06-23T16:08:43.268Z</time>
      </trkpt>
      <trkpt lat="45.94998" lon="3.38724">
        <ele>295.09161376953</ele>
        <time>2020-06-23T16:08:58.358Z</time>
      </trkpt>
      <trkpt lat="45.94963" lon="3.38767">
        <ele>295</ele>
        <time>2020-06-23T16:09:13.456Z</time>
      </trkpt>
      <trkpt lat="45.9493" lon="3.38815">
        <ele>294.75552368164</ele>
        <time>2020-06-23T16:09:28.561Z</time>
      </trkpt>
      <trkpt lat="45.94902" lon="3.38853">
        <ele>293.15551757812</ele>
        <time>2020-06-23T16:09:43.672Z</time>
      </trkpt>
      <trkpt lat="45.94883" lon="3.38873">
        <ele>292.70346069336</ele>
        <time>2020-06-23T16:09:58.787Z</time>
      </trkpt>
      <trkpt lat="45.94868" lon="3.38881">
        <ele>292.60470581055</ele>
        <time>2020-06-23T16:10:13.905Z</time>
      </trkpt>
      <trkpt lat="45.94844" lon="3.38882">
        <ele>292.58871459961</ele>
        <time>2020-06-23T16:10:29.027Z</time>
      </trkpt>
      <trkpt lat="45.9478" lon="3.38873">
        <ele>293.32516479492</ele>
        <time>2020-06-23T16:10:44.159Z</time>
      </trkpt>
      <trkpt lat="45.94765" lon="3.38873">
        <ele>293.51190185547</ele>
        <time>2020-06-23T16:10:59.293Z</time>
      </trkpt>
      <trkpt lat="45.94749" lon="3.38878">
        <ele>293.64682006836</ele>
        <time>2020-06-23T16:11:14.430Z</time>
      </trkpt>
      <trkpt lat="45.94699" lon="3.38911">
        <ele>292.40612792969</ele>
        <time>2020-06-23T16:11:29.575Z</time>
      </trkpt>
      <trkpt lat="45.94695" lon="3.38913">
        <ele>292.30798339844</ele>
        <time>2020-06-23T16:11:44.721Z</time>
      </trkpt>
      <trkpt lat="45.94685" lon="3.38914">
        <ele>292.06381225586</ele>
        <time>2020-06-23T16:11:59.869Z</time>
      </trkpt>
      <trkpt lat="45.94666" lon="3.38902">
        <ele>291.6096496582</ele>
        <time>2020-06-23T16:12:15.020Z</time>
      </trkpt>
      <trkpt lat="45.94645" lon="3.38884">
        <ele>291.11044311523</ele>
        <time>2020-06-23T16:12:30.175Z</time>
      </trkpt>
      <trkpt lat="45.94601" lon="3.38839">
        <ele>291</ele>
        <time>2020-06-23T16:12:45.339Z</time>
      </trkpt>
      <trkpt lat="45.94524" lon="3.38688">
        <ele>292.43756103516</ele>
        <time>2020-06-23T16:13:00.524Z</time>
      </trkpt>
      <trkpt lat="45.94481" lon="3.38587">
        <ele>293</ele>
        <time>2020-06-23T16:13:15.722Z</time>
      </trkpt>
      <trkpt lat="45.94453" lon="3.38541">
        <ele>292.75094604492</ele>
        <time>2020-06-23T16:13:30.927Z</time>
      </trkpt>
      <trkpt lat="45.94403" lon="3.38465">
        <ele>292.15087890625</ele>
        <time>2020-06-23T16:13:46.143Z</time>
      </trkpt>
      <trkpt lat="45.94324" lon="3.38329">
        <ele>291.84494018555</ele>
        <time>2020-06-23T16:14:01.379Z</time>
      </trkpt>
      <trkpt lat="45.94244" lon="3.38184">
        <ele>292.24002075195</ele>
        <time>2020-06-23T16:14:16.636Z</time>
      </trkpt>
      <trkpt lat="45.94207" lon="3.38122">
        <ele>292.20761108398</ele>
        <time>2020-06-23T16:14:31.902Z</time>
      </trkpt>
      <trkpt lat="45.94122" lon="3.37994">
        <ele>294</ele>
        <time>2020-06-23T16:14:47.188Z</time>
      </trkpt>
      <trkpt lat="45.94069" lon="3.37917">
        <ele>294</ele>
        <time>2020-06-23T16:15:02.486Z</time>
      </trkpt>
      <trkpt lat="45.94017" lon="3.37851">
        <ele>294</ele>
        <time>2020-06-23T16:15:17.795Z</time>
      </trkpt>
      <trkpt lat="45.93948" lon="3.37777">
        <ele>293.69003295898</ele>
        <time>2020-06-23T16:15:33.117Z</time>
      </trkpt>
      <trkpt lat="45.93936" lon="3.37762">
        <ele>293.58102416992</ele>
        <time>2020-06-23T16:15:48.442Z</time>
      </trkpt>
      <trkpt lat="45.9383" lon="3.37593">
        <ele>293.27154541016</ele>
        <time>2020-06-23T16:16:03.792Z</time>
      </trkpt>
      <trkpt lat="45.9381" lon="3.37559">
        <ele>293.02987670898</ele>
        <time>2020-06-23T16:16:19.147Z</time>
      </trkpt>
      <trkpt lat="45.93801" lon="3.37538">
        <ele>293.07339477539</ele>
        <time>2020-06-23T16:16:34.505Z</time>
      </trkpt>
      <trkpt lat="45.93783" lon="3.37472">
        <ele>293.21984863281</ele>
        <time>2020-06-23T16:16:49.871Z</time>
      </trkpt>
      <trkpt lat="45.93752" lon="3.37331">
        <ele>293.36080932617</ele>
        <time>2020-06-23T16:17:05.254Z</time>
      </trkpt>
      <trkpt lat="45.93716" lon="3.37141">
        <ele>294.07888793945</ele>
        <time>2020-06-23T16:17:20.659Z</time>
      </trkpt>
      <trkpt lat="45.93698" lon="3.37036">
        <ele>294.04931640625</ele>
        <time>2020-06-23T16:17:36.076Z</time>
      </trkpt>
      <trkpt lat="45.93689" lon="3.36962">
        <ele>294.388671875</ele>
        <time>2020-06-23T16:17:51.501Z</time>
      </trkpt>
      <trkpt lat="45.93686" lon="3.36908">
        <ele>294.34777832031</ele>
        <time>2020-06-23T16:18:06.932Z</time>
      </trkpt>
      <trkpt lat="45.9369" lon="3.36843">
        <ele>294.48504638672</ele>
        <time>2020-06-23T16:18:22.370Z</time>
      </trkpt>
      <trkpt lat="45.93699" lon="3.36757">
        <ele>295.90441894531</ele>
        <time>2020-06-23T16:18:37.818Z</time>
      </trkpt>
      <trkpt lat="45.93714" lon="3.36683">
        <ele>296.40307617188</ele>
        <time>2020-06-23T16:18:53.275Z</time>
      </trkpt>
      <trkpt lat="45.93741" lon="3.366">
        <ele>296.02865600586</ele>
        <time>2020-06-23T16:19:08.742Z</time>
      </trkpt>
      <trkpt lat="45.93759" lon="3.36539">
        <ele>295.41613769531</ele>
        <time>2020-06-23T16:19:24.216Z</time>
      </trkpt>
      <trkpt lat="45.93763" lon="3.36517">
        <ele>295.46258544922</ele>
        <time>2020-06-23T16:19:39.693Z</time>
      </trkpt>
      <trkpt lat="45.93765" lon="3.36482">
        <ele>295.09991455078</ele>
        <time>2020-06-23T16:19:55.174Z</time>
      </trkpt>
      <trkpt lat="45.93764" lon="3.36458">
        <ele>294.79501342773</ele>
        <time>2020-06-23T16:20:10.657Z</time>
      </trkpt>
      <trkpt lat="45.9376" lon="3.36433">
        <ele>294.46383666992</ele>
        <time>2020-06-23T16:20:26.143Z</time>
      </trkpt>
      <trkpt lat="45.93751" lon="3.36398">
        <ele>295.11056518555</ele>
        <time>2020-06-23T16:20:41.633Z</time>
      </trkpt>
      <trkpt lat="45.93671" lon="3.3619">
        <ele>295.07513427734</ele>
        <time>2020-06-23T16:20:57.150Z</time>
      </trkpt>
      <trkpt lat="45.93627" lon="3.36102">
        <ele>295.87252807617</ele>
        <time>2020-06-23T16:21:12.679Z</time>
      </trkpt>
      <trkpt lat="45.93549" lon="3.35973">
        <ele>296.00149536133</ele>
        <time>2020-06-23T16:21:28.227Z</time>
      </trkpt>
      <trkpt lat="45.93514" lon="3.35923">
        <ele>295.986328125</ele>
        <time>2020-06-23T16:21:43.783Z</time>
      </trkpt>
      <trkpt lat="45.93507" lon="3.35915">
        <ele>296.08798217773</ele>
        <time>2020-06-23T16:21:59.341Z</time>
      </trkpt>
      <trkpt lat="45.93462" lon="3.35878">
        <ele>296.36837768555</ele>
        <time>2020-06-23T16:22:14.907Z</time>
      </trkpt>
      <trkpt lat="45.93416" lon="3.35843">
        <ele>297.02130126953</ele>
        <time>2020-06-23T16:22:30.481Z</time>
      </trkpt>
      <trkpt lat="45.93373" lon="3.35805">
        <ele>296.59762573242</ele>
        <time>2020-06-23T16:22:46.063Z</time>
      </trkpt>
      <trkpt lat="45.9324" lon="3.35681">
        <ele>296.99420166016</ele>
        <time>2020-06-23T16:23:01.671Z</time>
      </trkpt>
      <trkpt lat="45.9319" lon="3.35644">
        <ele>297.49362182617</ele>
        <time>2020-06-23T16:23:17.288Z</time>
      </trkpt>
      <trkpt lat="45.93175" lon="3.35634">
        <ele>297.52203369141</ele>
        <time>2020-06-23T16:23:32.907Z</time>
      </trkpt>
      <trkpt lat="45.93121" lon="3.35607">
        <ele>297.6755065918</ele>
        <time>2020-06-23T16:23:48.535Z</time>
      </trkpt>
      <trkpt lat="45.9304" lon="3.35579">
        <ele>298</ele>
        <time>2020-06-23T16:24:04.177Z</time>
      </trkpt>
      <trkpt lat="45.9299" lon="3.35558">
        <ele>297.35055541992</ele>
        <time>2020-06-23T16:24:19.827Z</time>
      </trkpt>
      <trkpt lat="45.92974" lon="3.35549">
        <ele>297.16571044922</ele>
        <time>2020-06-23T16:24:35.480Z</time>
      </trkpt>
      <trkpt lat="45.92942" lon="3.35529">
        <ele>297.27139282227</ele>
        <time>2020-06-23T16:24:51.138Z</time>
      </trkpt>
      <trkpt lat="45.92919" lon="3.3551">
        <ele>297.38946533203</ele>
        <time>2020-06-23T16:25:06.801Z</time>
      </trkpt>
      <trkpt lat="45.92866" lon="3.35458">
        <ele>296.21676635742</ele>
        <time>2020-06-23T16:25:22.474Z</time>
      </trkpt>
      <trkpt lat="45.92818" lon="3.3539">
        <ele>293.62286376953</ele>
        <time>2020-06-23T16:25:38.158Z</time>
      </trkpt>
      <trkpt lat="45.92715" lon="3.35231">
        <ele>296.494140625</ele>
        <time>2020-06-23T16:25:53.866Z</time>
      </trkpt>
      <trkpt lat="45.92688" lon="3.35174">
        <ele>296.80157470703</ele>
        <time>2020-06-23T16:26:09.582Z</time>
      </trkpt>
      <trkpt lat="45.92669" lon="3.35122">
        <ele>296.6770324707</ele>
        <time>2020-06-23T16:26:25.304Z</time>
      </trkpt>
      <trkpt lat="45.92643" lon="3.35026">
        <ele>296.91842651367</ele>
        <time>2020-06-23T16:26:41.038Z</time>
      </trkpt>
      <trkpt lat="45.92635" lon="3.34978">
        <ele>296.98446655273</ele>
        <time>2020-06-23T16:26:56.777Z</time>
      </trkpt>
      <trkpt lat="45.92633" lon="3.34921">
        <ele>297.19519042969</ele>
        <time>2020-06-23T16:27:12.523Z</time>
      </trkpt>
      <trkpt lat="45.92637" lon="3.34863">
        <ele>296.1237487793</ele>
        <time>2020-06-23T16:27:28.275Z</time>
      </trkpt>
      <trkpt lat="45.92638" lon="3.34789">
        <ele>296.49166870117</ele>
        <time>2020-06-23T16:27:44.035Z</time>
      </trkpt>
      <trkpt lat="45.92628" lon="3.34713">
        <ele>297.33322143555</ele>
        <time>2020-06-23T16:27:59.804Z</time>
      </trkpt>
      <trkpt lat="45.92612" lon="3.34643">
        <ele>298.42276000977</ele>
        <time>2020-06-23T16:28:15.581Z</time>
      </trkpt>
      <trkpt lat="45.92587" lon="3.3459">
        <ele>298.17526245117</ele>
        <time>2020-06-23T16:28:31.365Z</time>
      </trkpt>
      <trkpt lat="45.92462" lon="3.34339">
        <ele>299.67593383789</ele>
        <time>2020-06-23T16:28:47.184Z</time>
      </trkpt>
      <trkpt lat="45.92438" lon="3.34269">
        <ele>300.15646362305</ele>
        <time>2020-06-23T16:29:03.012Z</time>
      </trkpt>
      <trkpt lat="45.92415" lon="3.34197">
        <ele>299.8955078125</ele>
        <time>2020-06-23T16:29:18.848Z</time>
      </trkpt>
      <trkpt lat="45.92408" lon="3.34167">
        <ele>299.95614624023</ele>
        <time>2020-06-23T16:29:34.688Z</time>
      </trkpt>
      <trkpt lat="45.924" lon="3.34125">
        <ele>300.69277954102</ele>
        <time>2020-06-23T16:29:50.533Z</time>
      </trkpt>
      <trkpt lat="45.92376" lon="3.33976">
        <ele>301</ele>
        <time>2020-06-23T16:30:06.395Z</time>
      </trkpt>
      <trkpt lat="45.92372" lon="3.33938">
        <ele>301</ele>
        <time>2020-06-23T16:30:22.261Z</time>
      </trkpt>
      <trkpt lat="45.92377" lon="3.33901">
        <ele>301.35360717773</ele>
        <time>2020-06-23T16:30:38.131Z</time>
      </trkpt>
      <trkpt lat="45.92372" lon="3.3389">
        <ele>301.48675537109</ele>
        <time>2020-06-23T16:30:54.003Z</time>
      </trkpt>
      <trkpt lat="45.92362" lon="3.33893">
        <ele>301.451171875</ele>
        <time>2020-06-23T16:31:09.877Z</time>
      </trkpt>
      <trkpt lat="45.92352" lon="3.339">
        <ele>301.36990356445</ele>
        <time>2020-06-23T16:31:25.752Z</time>
      </trkpt>
      <trkpt lat="45.92333" lon="3.33906">
        <ele>301.30062866211</ele>
        <time>2020-06-23T16:31:41.630Z</time>
      </trkpt>
      <trkpt lat="45.92294" lon="3.3391">
        <ele>300.93988037109</ele>
        <time>2020-06-23T16:31:57.515Z</time>
      </trkpt>
      <trkpt lat="45.92261" lon="3.33907">
        <ele>300.18673706055</ele>
        <time>2020-06-23T16:32:13.405Z</time>
      </trkpt>
      <trkpt lat="45.92245" lon="3.33904">
        <ele>299.8212890625</ele>
        <time>2020-06-23T16:32:29.298Z</time>
      </trkpt>
      <trkpt lat="45.92183" lon="3.33886">
        <ele>298.0637512207</ele>
        <time>2020-06-23T16:32:45.201Z</time>
      </trkpt>
      <trkpt lat="45.92103" lon="3.3385">
        <ele>296.08004760742</ele>
        <time>2020-06-23T16:33:01.117Z</time>
      </trkpt>
      <trkpt lat="45.92065" lon="3.33825">
        <ele>295.72662353516</ele>
        <time>2020-06-23T16:33:17.040Z</time>
      </trkpt>
      <trkpt lat="45.92048" lon="3.33799">
        <ele>296.4755859375</ele>
        <time>2020-06-23T16:33:32.967Z</time>
      </trkpt>
      <trkpt lat="45.92043" lon="3.33794">
        <ele>296.7770690918</ele>
        <time>2020-06-23T16:33:48.895Z</time>
      </trkpt>
      <trkpt lat="45.92031" lon="3.33791">
        <ele>297.28512573242</ele>
        <time>2020-06-23T16:34:04.825Z</time>
      </trkpt>
      <trkpt lat="45.92006" lon="3.33798">
        <ele>298.10775756836</ele>
        <time>2020-06-23T16:34:20.759Z</time>
      </trkpt>
      <trkpt lat="45.9198" lon="3.33792">
        <ele>299.92358398438</ele>
        <time>2020-06-23T16:34:36.697Z</time>
      </trkpt>
      <trkpt lat="45.91929" lon="3.33771">
        <ele>300.62847900391</ele>
        <time>2020-06-23T16:34:52.643Z</time>
      </trkpt>
      <trkpt lat="45.91785" lon="3.33706">
        <ele>301.30218505859</ele>
        <time>2020-06-23T16:35:08.614Z</time>
      </trkpt>
      <trkpt lat="45.91706" lon="3.33675">
        <ele>301.14129638672</ele>
        <time>2020-06-23T16:35:24.598Z</time>
      </trkpt>
      <trkpt lat="45.91631" lon="3.33653">
        <ele>301.66439819336</ele>
        <time>2020-06-23T16:35:40.594Z</time>
      </trkpt>
      <trkpt lat="45.91433" lon="3.33601">
        <ele>301.51116943359</ele>
        <time>2020-06-23T16:35:56.622Z</time>
      </trkpt>
      <trkpt lat="45.91372" lon="3.33582">
        <ele>301.59103393555</ele>
        <time>2020-06-23T16:36:12.660Z</time>
      </trkpt>
      <trkpt lat="45.91356" lon="3.33574">
        <ele>301.98101806641</ele>
        <time>2020-06-23T16:36:28.701Z</time>
      </trkpt>
      <trkpt lat="45.913" lon="3.33536">
        <ele>303.30072021484</ele>
        <time>2020-06-23T16:36:44.752Z</time>
      </trkpt>
      <trkpt lat="45.9125" lon="3.33486">
        <ele>302.96878051758</ele>
        <time>2020-06-23T16:37:00.813Z</time>
      </trkpt>
      <trkpt lat="45.91207" lon="3.33426">
        <ele>302.65179443359</ele>
        <time>2020-06-23T16:37:16.883Z</time>
      </trkpt>
      <trkpt lat="45.91176" lon="3.33373">
        <ele>302.43353271484</ele>
        <time>2020-06-23T16:37:32.961Z</time>
      </trkpt>
      <trkpt lat="45.91169" lon="3.33337">
        <ele>302.46694946289</ele>
        <time>2020-06-23T16:37:49.043Z</time>
      </trkpt>
      <trkpt lat="45.91157" lon="3.33312">
        <ele>302.6233215332</ele>
        <time>2020-06-23T16:38:05.128Z</time>
      </trkpt>
      <trkpt lat="45.91129" lon="3.33302">
        <ele>302.80688476562</ele>
        <time>2020-06-23T16:38:21.218Z</time>
      </trkpt>
      <trkpt lat="45.91118" lon="3.33289">
        <ele>303.23638916016</ele>
        <time>2020-06-23T16:38:37.310Z</time>
      </trkpt>
      <trkpt lat="45.91086" lon="3.33244">
        <ele>304.06594848633</ele>
        <time>2020-06-23T16:38:53.410Z</time>
      </trkpt>
      <trkpt lat="45.91049" lon="3.33209">
        <ele>304.33993530273</ele>
        <time>2020-06-23T16:39:09.517Z</time>
      </trkpt>
      <trkpt lat="45.91007" lon="3.33184">
        <ele>304.03570556641</ele>
        <time>2020-06-23T16:39:25.631Z</time>
      </trkpt>
      <trkpt lat="45.90877" lon="3.33123">
        <ele>301.85217285156</ele>
        <time>2020-06-23T16:39:41.767Z</time>
      </trkpt>
      <trkpt lat="45.9072" lon="3.33072">
        <ele>303</ele>
        <time>2020-06-23T16:39:57.929Z</time>
      </trkpt>
      <trkpt lat="45.90669" lon="3.33057">
        <ele>303.36151123047</ele>
        <time>2020-06-23T16:40:14.099Z</time>
      </trkpt>
      <trkpt lat="45.90555" lon="3.3303">
        <ele>302.41152954102</ele>
        <time>2020-06-23T16:40:30.287Z</time>
      </trkpt>
      <trkpt lat="45.90509" lon="3.33013">
        <ele>302.56585693359</ele>
        <time>2020-06-23T16:40:46.483Z</time>
      </trkpt>
      <trkpt lat="45.90373" lon="3.32946">
        <ele>302.98315429688</ele>
        <time>2020-06-23T16:41:02.702Z</time>
      </trkpt>
      <trkpt lat="45.90352" lon="3.32932">
        <ele>302.56661987305</ele>
        <time>2020-06-23T16:41:18.925Z</time>
      </trkpt>
      <trkpt lat="45.90314" lon="3.329">
        <ele>302.83374023438</ele>
        <time>2020-06-23T16:41:35.155Z</time>
      </trkpt>
      <trkpt lat="45.90257" lon="3.32832">
        <ele>304</ele>
        <time>2020-06-23T16:41:51.397Z</time>
      </trkpt>
      <trkpt lat="45.90206" lon="3.32785">
        <ele>303.79592895508</ele>
        <time>2020-06-23T16:42:07.648Z</time>
      </trkpt>
      <trkpt lat="45.9015" lon="3.32748">
        <ele>303.11911010742</ele>
        <time>2020-06-23T16:42:23.909Z</time>
      </trkpt>
      <trkpt lat="45.90071" lon="3.32701">
        <ele>302.91729736328</ele>
        <time>2020-06-23T16:42:40.184Z</time>
      </trkpt>
      <trkpt lat="45.90007" lon="3.32673">
        <ele>304.02038574219</ele>
        <time>2020-06-23T16:42:56.470Z</time>
      </trkpt>
      <trkpt lat="45.89976" lon="3.32663">
        <ele>304.50973510742</ele>
        <time>2020-06-23T16:43:12.761Z</time>
      </trkpt>
      <trkpt lat="45.89914" lon="3.32647">
        <ele>304.91250610352</ele>
        <time>2020-06-23T16:43:29.062Z</time>
      </trkpt>
      <trkpt lat="45.89692" lon="3.3261">
        <ele>304.30834960938</ele>
        <time>2020-06-23T16:43:45.399Z</time>
      </trkpt>
      <trkpt lat="45.89661" lon="3.32604">
        <ele>304.16897583008</ele>
        <time>2020-06-23T16:44:01.741Z</time>
      </trkpt>
      <trkpt lat="45.89598" lon="3.32589">
        <ele>303.60424804688</ele>
        <time>2020-06-23T16:44:18.093Z</time>
      </trkpt>
      <trkpt lat="45.89514" lon="3.32566">
        <ele>303.51123046875</ele>
        <time>2020-06-23T16:44:34.458Z</time>
      </trkpt>
      <trkpt lat="45.89356" lon="3.32519">
        <ele>302.90228271484</ele>
        <time>2020-06-23T16:44:50.849Z</time>
      </trkpt>
      <trkpt lat="45.89176" lon="3.32453">
        <ele>304.54135131836</ele>
        <time>2020-06-23T16:45:07.270Z</time>
      </trkpt>
      <trkpt lat="45.89147" lon="3.3244">
        <ele>304.16632080078</ele>
        <time>2020-06-23T16:45:23.696Z</time>
      </trkpt>
      <trkpt lat="45.8909" lon="3.32404">
        <ele>306.11614990234</ele>
        <time>2020-06-23T16:45:40.132Z</time>
      </trkpt>
      <trkpt lat="45.88894" lon="3.32265">
        <ele>307.01879882812</ele>
        <time>2020-06-23T16:45:56.603Z</time>
      </trkpt>
      <trkpt lat="45.88864" lon="3.32238">
        <ele>306.05892944336</ele>
        <time>2020-06-23T16:46:13.080Z</time>
      </trkpt>
      <trkpt lat="45.88857" lon="3.32234">
        <ele>305.86343383789</ele>
        <time>2020-06-23T16:46:29.558Z</time>
      </trkpt>
      <trkpt lat="45.88855" lon="3.32236">
        <ele>305.82019042969</ele>
        <time>2020-06-23T16:46:46.036Z</time>
      </trkpt>
      <trkpt lat="45.88856" lon="3.32247">
        <ele>305.99075317383</ele>
        <time>2020-06-23T16:47:02.515Z</time>
      </trkpt>
      <trkpt lat="45.88873" lon="3.32266">
        <ele>306.6037902832</ele>
        <time>2020-06-23T16:47:18.998Z</time>
      </trkpt>
      <trkpt lat="45.88868" lon="3.32266">
        <ele>306.48471069336</ele>
        <time>2020-06-23T16:47:35.482Z</time>
      </trkpt>
      <trkpt lat="45.88866" lon="3.32271">
        <ele>306.4326171875</ele>
        <time>2020-06-23T16:47:51.966Z</time>
      </trkpt>
      <trkpt lat="45.8882" lon="3.32475">
        <ele>305.298828125</ele>
        <time>2020-06-23T16:48:08.474Z</time>
      </trkpt>
      <trkpt lat="45.88795" lon="3.32574">
        <ele>304.54879760742</ele>
        <time>2020-06-23T16:48:24.994Z</time>
      </trkpt>
      <trkpt lat="45.8879" lon="3.32591">
        <ele>304.34494018555</ele>
        <time>2020-06-23T16:48:41.516Z</time>
      </trkpt>
      <trkpt lat="45.88785" lon="3.326">
        <ele>304.17486572266</ele>
        <time>2020-06-23T16:48:58.039Z</time>
      </trkpt>
      <trkpt lat="45.88773" lon="3.32605">
        <ele>304.21792602539</ele>
        <time>2020-06-23T16:49:14.564Z</time>
      </trkpt>
      <trkpt lat="45.88764" lon="3.32603">
        <ele>304.36071777344</ele>
        <time>2020-06-23T16:49:31.091Z</time>
      </trkpt>
      <trkpt lat="45.88758" lon="3.32599">
        <ele>304.53219604492</ele>
        <time>2020-06-23T16:49:47.619Z</time>
      </trkpt>
      <trkpt lat="45.88733" lon="3.32577">
        <ele>305.36083984375</ele>
        <time>2020-06-23T16:50:04.152Z</time>
      </trkpt>
      <trkpt lat="45.88656" lon="3.32532">
        <ele>304.86862182617</ele>
        <time>2020-06-23T16:50:20.698Z</time>
      </trkpt>
      <trkpt lat="45.88599" lon="3.32496">
        <ele>304.29504394531</ele>
        <time>2020-06-23T16:50:37.254Z</time>
      </trkpt>
      <trkpt lat="45.88587" lon="3.32489">
        <ele>304.27612304688</ele>
        <time>2020-06-23T16:50:53.812Z</time>
      </trkpt>
      <trkpt lat="45.88578" lon="3.32479">
        <ele>304.54666137695</ele>
        <time>2020-06-23T16:51:10.372Z</time>
      </trkpt>
      <trkpt lat="45.88577" lon="3.32456">
        <ele>306.13137817383</ele>
        <time>2020-06-23T16:51:26.934Z</time>
      </trkpt>
      <trkpt lat="45.88581" lon="3.32441">
        <ele>306.74987792969</ele>
        <time>2020-06-23T16:51:43.498Z</time>
      </trkpt>
      <trkpt lat="45.88588" lon="3.32427">
        <ele>306.96243286133</ele>
        <time>2020-06-23T16:52:00.064Z</time>
      </trkpt>
      <trkpt lat="45.88607" lon="3.32366">
        <ele>306.23141479492</ele>
        <time>2020-06-23T16:52:16.638Z</time>
      </trkpt>
      <trkpt lat="45.88621" lon="3.32343">
        <ele>306</ele>
        <time>2020-06-23T16:52:33.215Z</time>
      </trkpt>
      <trkpt lat="45.88611" lon="3.32351">
        <ele>306.05090332031</ele>
        <time>2020-06-23T16:52:49.794Z</time>
      </trkpt>
      <trkpt lat="45.88606" lon="3.32363">
        <ele>306.18807983398</ele>
        <time>2020-06-23T16:53:06.374Z</time>
      </trkpt>
      <trkpt lat="45.88596" lon="3.32394">
        <ele>306.56680297852</ele>
        <time>2020-06-23T16:53:22.958Z</time>
      </trkpt>
      <trkpt lat="45.88593" lon="3.32411">
        <ele>306.76330566406</ele>
        <time>2020-06-23T16:53:39.544Z</time>
      </trkpt>
      <trkpt lat="45.88579" lon="3.3244">
        <ele>306.77261352539</ele>
        <time>2020-06-23T16:53:56.134Z</time>
      </trkpt>
      <trkpt lat="45.88573" lon="3.32468">
        <ele>305.13717651367</ele>
        <time>2020-06-23T16:54:12.727Z</time>
      </trkpt>
      <trkpt lat="45.88571" lon="3.32471">
        <ele>304.7341003418</ele>
        <time>2020-06-23T16:54:29.321Z</time>
      </trkpt>
      <trkpt lat="45.88566" lon="3.32472">
        <ele>304.42135620117</ele>
        <time>2020-06-23T16:54:45.916Z</time>
      </trkpt>
      <trkpt lat="45.88512" lon="3.32441">
        <ele>304.11001586914</ele>
        <time>2020-06-23T16:55:02.520Z</time>
      </trkpt>
      <trkpt lat="45.8847" lon="3.32406">
        <ele>303.40069580078</ele>
        <time>2020-06-23T16:55:19.132Z</time>
      </trkpt>
      <trkpt lat="45.88448" lon="3.3238">
        <ele>302.67700195312</ele>
        <time>2020-06-23T16:55:35.748Z</time>
      </trkpt>
      <trkpt lat="45.88399" lon="3.32299">
        <ele>302.85757446289</ele>
        <time>2020-06-23T16:55:52.376Z</time>
      </trkpt>
      <trkpt lat="45.88358" lon="3.32218">
        <ele>304.71224975586</ele>
        <time>2020-06-23T16:56:09.016Z</time>
      </trkpt>
      <trkpt lat="45.88308" lon="3.32158">
        <ele>305.55358886719</ele>
        <time>2020-06-23T16:56:25.666Z</time>
      </trkpt>
      <trkpt lat="45.88271" lon="3.32109">
        <ele>304.60256958008</ele>
        <time>2020-06-23T16:56:42.324Z</time>
      </trkpt>
      <trkpt lat="45.88246" lon="3.32066">
        <ele>304.84234619141</ele>
        <time>2020-06-23T16:56:58.988Z</time>
      </trkpt>
      <trkpt lat="45.8823" lon="3.32035">
        <ele>305.39385986328</ele>
        <time>2020-06-23T16:57:15.657Z</time>
      </trkpt>
      <trkpt lat="45.88228" lon="3.32021">
        <ele>305.90222167969</ele>
        <time>2020-06-23T16:57:32.327Z</time>
      </trkpt>
      <trkpt lat="45.88255" lon="3.31959">
        <ele>307.56970214844</ele>
        <time>2020-06-23T16:57:49.005Z</time>
      </trkpt>
      <trkpt lat="45.88328" lon="3.31685">
        <ele>309.54379272461</ele>
        <time>2020-06-23T16:58:05.716Z</time>
      </trkpt>
      <trkpt lat="45.88331" lon="3.31675">
        <ele>309.4162902832</ele>
        <time>2020-06-23T16:58:22.428Z</time>
      </trkpt>
      <trkpt lat="45.88334" lon="3.31672">
        <ele>309.33221435547</ele>
        <time>2020-06-23T16:58:39.141Z</time>
      </trkpt>
      <trkpt lat="45.88335" lon="3.31669">
        <ele>309.32699584961</ele>
        <time>2020-06-23T16:58:55.854Z</time>
      </trkpt>
      <trkpt lat="45.88328" lon="3.31657">
        <ele>309.48147583008</ele>
        <time>2020-06-23T16:59:12.569Z</time>
      </trkpt>
      <trkpt lat="45.88275" lon="3.31586">
        <ele>309.49603271484</ele>
        <time>2020-06-23T16:59:29.296Z</time>
      </trkpt>
      <trkpt lat="45.88195" lon="3.31465">
        <ele>308.58526611328</ele>
        <time>2020-06-23T16:59:46.041Z</time>
      </trkpt>
      <trkpt lat="45.88184" lon="3.31451">
        <ele>308.74597167969</ele>
        <time>2020-06-23T17:00:02.789Z</time>
      </trkpt>
      <trkpt lat="45.88142" lon="3.31411">
        <ele>309</ele>
        <time>2020-06-23T17:00:19.545Z</time>
      </trkpt>
      <trkpt lat="45.88075" lon="3.31365">
        <ele>309</ele>
        <time>2020-06-23T17:00:36.313Z</time>
      </trkpt>
      <trkpt lat="45.88022" lon="3.3132">
        <ele>309.08813476562</ele>
        <time>2020-06-23T17:00:53.090Z</time>
      </trkpt>
      <trkpt lat="45.87976" lon="3.31267">
        <ele>309</ele>
        <time>2020-06-23T17:01:09.877Z</time>
      </trkpt>
      <trkpt lat="45.87928" lon="3.3122">
        <ele>308.47952270508</ele>
        <time>2020-06-23T17:01:26.673Z</time>
      </trkpt>
      <trkpt lat="45.8787" lon="3.31176">
        <ele>308.47253417969</ele>
        <time>2020-06-23T17:01:43.480Z</time>
      </trkpt>
      <trkpt lat="45.87845" lon="3.31154">
        <ele>309.06948852539</ele>
        <time>2020-06-23T17:02:00.291Z</time>
      </trkpt>
      <trkpt lat="45.87664" lon="3.30959">
        <ele>311.24389648438</ele>
        <time>2020-06-23T17:02:17.139Z</time>
      </trkpt>
      <trkpt lat="45.87643" lon="3.30931">
        <ele>310.98962402344</ele>
        <time>2020-06-23T17:02:33.991Z</time>
      </trkpt>
      <trkpt lat="45.87603" lon="3.30873">
        <ele>310.55395507812</ele>
        <time>2020-06-23T17:02:50.853Z</time>
      </trkpt>
      <trkpt lat="45.8752" lon="3.30774">
        <ele>311.74462890625</ele>
        <time>2020-06-23T17:03:07.732Z</time>
      </trkpt>
      <trkpt lat="45.87491" lon="3.30745">
        <ele>312.35479736328</ele>
        <time>2020-06-23T17:03:24.616Z</time>
      </trkpt>
      <trkpt lat="45.8743" lon="3.30693">
        <ele>312.6647644043</ele>
        <time>2020-06-23T17:03:41.512Z</time>
      </trkpt>
      <trkpt lat="45.87391" lon="3.30649">
        <ele>312.97988891602</ele>
        <time>2020-06-23T17:03:58.416Z</time>
      </trkpt>
      <trkpt lat="45.87318" lon="3.30551">
        <ele>316.11926269531</ele>
        <time>2020-06-23T17:04:15.336Z</time>
      </trkpt>
      <trkpt lat="45.87263" lon="3.30486">
        <ele>315.96109008789</ele>
        <time>2020-06-23T17:04:32.267Z</time>
      </trkpt>
      <trkpt lat="45.87079" lon="3.30293">
        <ele>314.45657348633</ele>
        <time>2020-06-23T17:04:49.235Z</time>
      </trkpt>
      <trkpt lat="45.87067" lon="3.30282">
        <ele>314.73959350586</ele>
        <time>2020-06-23T17:05:06.205Z</time>
      </trkpt>
      <trkpt lat="45.87029" lon="3.3026">
        <ele>313.96771240234</ele>
        <time>2020-06-23T17:05:23.182Z</time>
      </trkpt>
      <trkpt lat="45.86984" lon="3.30237">
        <ele>312.09356689453</ele>
        <time>2020-06-23T17:05:40.166Z</time>
      </trkpt>
      <trkpt lat="45.86953" lon="3.30205">
        <ele>312.01342773438</ele>
        <time>2020-06-23T17:05:57.156Z</time>
      </trkpt>
      <trkpt lat="45.86925" lon="3.30167">
        <ele>312.41638183594</ele>
        <time>2020-06-23T17:06:14.152Z</time>
      </trkpt>
      <trkpt lat="45.86881" lon="3.30113">
        <ele>312.60162353516</ele>
        <time>2020-06-23T17:06:31.158Z</time>
      </trkpt>
      <trkpt lat="45.86645" lon="3.29855">
        <ele>314</ele>
        <time>2020-06-23T17:06:48.211Z</time>
      </trkpt>
      <trkpt lat="45.86636" lon="3.29843">
        <ele>314.04360961914</ele>
        <time>2020-06-23T17:07:05.266Z</time>
      </trkpt>
      <trkpt lat="45.86568" lon="3.29773">
        <ele>314.85406494141</ele>
        <time>2020-06-23T17:07:22.335Z</time>
      </trkpt>
      <trkpt lat="45.86454" lon="3.2965">
        <ele>314</ele>
        <time>2020-06-23T17:07:39.426Z</time>
      </trkpt>
      <trkpt lat="45.86401" lon="3.29599">
        <ele>314</ele>
        <time>2020-06-23T17:07:56.528Z</time>
      </trkpt>
      <trkpt lat="45.86264" lon="3.29455">
        <ele>316.51086425781</ele>
        <time>2020-06-23T17:08:13.657Z</time>
      </trkpt>
      <trkpt lat="45.8616" lon="3.29333">
        <ele>317.6591796875</ele>
        <time>2020-06-23T17:08:30.807Z</time>
      </trkpt>
      <trkpt lat="45.86081" lon="3.29248">
        <ele>319.1842956543</ele>
        <time>2020-06-23T17:08:47.973Z</time>
      </trkpt>
      <trkpt lat="45.86079" lon="3.29245">
        <ele>319.21508789062</ele>
        <time>2020-06-23T17:09:05.140Z</time>
      </trkpt>
    </trkseg>
  </trk>
</gpx>